<?xml version="1.0" encoding="UTF-8" standalone="no" ?>
<gpx xmlns="http://www.topografix.com/GPX/1/1" xmlns:xsi="http://www.w3.org/2001/XMLSchema-instance" xsi:schemaLocation="http://www.topografix.com/GPX/1/1 http://www.topografix.com/GPX/1/1/gpx.xsd" version="1.1" creator="VisuGPX - https://www.visugpx.com">
  <metadata>
    <name>RANDO MONTREGARD 26 KM</name>
    <desc><![CDATA[RANDO MONTREGARD 26 KM.DEPART ARRIVEE PARKING MONTREGARD.CHAZALET.FOUGERES.SOUVIGNET.MALATRAY.MARTIN.LA GARNAT.TREDOS.LES MOULINS.ROCHEDIX.LES MAISONNETTES.SALETTE]]></desc>
  </metadata>
  <trk>
    <name><![CDATA[2024-11-17 16:00:13]]></name>
    <desc><![CDATA[

]]></desc>
    <extensions>
      <line xmlns="http://www.topografix.com/GPX/gpx_style/0/2">
        <color>0000FF</color>
        <width>4</width>
      </line>
    </extensions>
    <trkseg>
      <trkpt lat="45.15819" lon="4.34511">
        <ele>996.06</ele>
        <time>2024-11-17T07:23:52Z</time>
      </trkpt>
      <trkpt lat="45.1582" lon="4.34507">
        <ele>996.06</ele>
        <time>2024-11-17T07:24:48Z</time>
      </trkpt>
      <trkpt lat="45.15823" lon="4.34506">
        <ele>995.58</ele>
        <time>2024-11-17T07:26:30Z</time>
      </trkpt>
      <trkpt lat="45.15822" lon="4.34507">
        <ele>994.14</ele>
        <time>2024-11-17T07:28:06Z</time>
      </trkpt>
      <trkpt lat="45.15811" lon="4.34539">
        <ele>996.06</ele>
        <time>2024-11-17T07:29:09Z</time>
      </trkpt>
      <trkpt lat="45.15803" lon="4.3454">
        <ele>996.54</ele>
        <time>2024-11-17T07:29:17Z</time>
      </trkpt>
      <trkpt lat="45.15797" lon="4.34568">
        <ele>999.43</ele>
        <time>2024-11-17T07:29:35Z</time>
      </trkpt>
      <trkpt lat="45.15796" lon="4.34569">
        <ele>999.91</ele>
        <time>2024-11-17T07:29:36Z</time>
      </trkpt>
      <trkpt lat="45.15796" lon="4.34575">
        <ele>1000.39</ele>
        <time>2024-11-17T07:29:41Z</time>
      </trkpt>
      <trkpt lat="45.15793" lon="4.34581">
        <ele>1000.87</ele>
        <time>2024-11-17T07:29:46Z</time>
      </trkpt>
      <trkpt lat="45.15794" lon="4.34594">
        <ele>1001.83</ele>
        <time>2024-11-17T07:29:55Z</time>
      </trkpt>
      <trkpt lat="45.15801" lon="4.34619">
        <ele>1005.68</ele>
        <time>2024-11-17T07:30:11Z</time>
      </trkpt>
      <trkpt lat="45.15801" lon="4.34621">
        <ele>1005.68</ele>
        <time>2024-11-17T07:30:13Z</time>
      </trkpt>
      <trkpt lat="45.15789" lon="4.3464">
        <ele>1012.41</ele>
        <time>2024-11-17T07:30:29Z</time>
      </trkpt>
      <trkpt lat="45.15783" lon="4.34672">
        <ele>1016.25</ele>
        <time>2024-11-17T07:30:47Z</time>
      </trkpt>
      <trkpt lat="45.15774" lon="4.34694">
        <ele>1017.21</ele>
        <time>2024-11-17T07:31:02Z</time>
      </trkpt>
      <trkpt lat="45.15771" lon="4.34724">
        <ele>1016.25</ele>
        <time>2024-11-17T07:31:18Z</time>
      </trkpt>
      <trkpt lat="45.15768" lon="4.34756">
        <ele>1014.33</ele>
        <time>2024-11-17T07:31:35Z</time>
      </trkpt>
      <trkpt lat="45.15766" lon="4.34787">
        <ele>1015.77</ele>
        <time>2024-11-17T07:31:52Z</time>
      </trkpt>
      <trkpt lat="45.15766" lon="4.34821">
        <ele>1015.77</ele>
        <time>2024-11-17T07:32:10Z</time>
      </trkpt>
      <trkpt lat="45.15769" lon="4.34852">
        <ele>1015.77</ele>
        <time>2024-11-17T07:32:26Z</time>
      </trkpt>
      <trkpt lat="45.15771" lon="4.34886">
        <ele>1016.25</ele>
        <time>2024-11-17T07:32:45Z</time>
      </trkpt>
      <trkpt lat="45.15768" lon="4.34915">
        <ele>1017.21</ele>
        <time>2024-11-17T07:33:02Z</time>
      </trkpt>
      <trkpt lat="45.15764" lon="4.3494">
        <ele>1017.69</ele>
        <time>2024-11-17T07:33:16Z</time>
      </trkpt>
      <trkpt lat="45.15762" lon="4.34962">
        <ele>1016.73</ele>
        <time>2024-11-17T07:33:28Z</time>
      </trkpt>
      <trkpt lat="45.15771" lon="4.34972">
        <ele>1016.25</ele>
        <time>2024-11-17T07:33:38Z</time>
      </trkpt>
      <trkpt lat="45.15776" lon="4.34971">
        <ele>1015.77</ele>
        <time>2024-11-17T07:33:44Z</time>
      </trkpt>
      <trkpt lat="45.15796" lon="4.34988">
        <ele>1018.65</ele>
        <time>2024-11-17T07:34:02Z</time>
      </trkpt>
      <trkpt lat="45.15803" lon="4.34995">
        <ele>1019.62</ele>
        <time>2024-11-17T07:34:09Z</time>
      </trkpt>
      <trkpt lat="45.15822" lon="4.35011">
        <ele>1023.46</ele>
        <time>2024-11-17T07:34:27Z</time>
      </trkpt>
      <trkpt lat="45.15826" lon="4.35016">
        <ele>1024.9</ele>
        <time>2024-11-17T07:34:33Z</time>
      </trkpt>
      <trkpt lat="45.1582" lon="4.35037">
        <ele>1028.27</ele>
        <time>2024-11-17T07:34:48Z</time>
      </trkpt>
      <trkpt lat="45.15815" lon="4.35068">
        <ele>1031.63</ele>
        <time>2024-11-17T07:35:06Z</time>
      </trkpt>
      <trkpt lat="45.1581" lon="4.35096">
        <ele>1034.52</ele>
        <time>2024-11-17T07:35:23Z</time>
      </trkpt>
      <trkpt lat="45.15808" lon="4.35113">
        <ele>1034.52</ele>
        <time>2024-11-17T07:35:33Z</time>
      </trkpt>
      <trkpt lat="45.15806" lon="4.35129">
        <ele>1035.48</ele>
        <time>2024-11-17T07:35:42Z</time>
      </trkpt>
      <trkpt lat="45.15804" lon="4.35136">
        <ele>1035.96</ele>
        <time>2024-11-17T07:35:46Z</time>
      </trkpt>
      <trkpt lat="45.15794" lon="4.35168">
        <ele>1037.4</ele>
        <time>2024-11-17T07:36:04Z</time>
      </trkpt>
      <trkpt lat="45.1579" lon="4.35206">
        <ele>1036.92</ele>
        <time>2024-11-17T07:36:23Z</time>
      </trkpt>
      <trkpt lat="45.15781" lon="4.35237">
        <ele>1035.96</ele>
        <time>2024-11-17T07:36:41Z</time>
      </trkpt>
      <trkpt lat="45.15771" lon="4.35266">
        <ele>1034.04</ele>
        <time>2024-11-17T07:36:57Z</time>
      </trkpt>
      <trkpt lat="45.15769" lon="4.35301">
        <ele>1031.63</ele>
        <time>2024-11-17T07:37:14Z</time>
      </trkpt>
      <trkpt lat="45.15774" lon="4.35336">
        <ele>1030.19</ele>
        <time>2024-11-17T07:37:32Z</time>
      </trkpt>
      <trkpt lat="45.15781" lon="4.35367">
        <ele>1031.15</ele>
        <time>2024-11-17T07:37:49Z</time>
      </trkpt>
      <trkpt lat="45.15783" lon="4.35378">
        <ele>1033.07</ele>
        <time>2024-11-17T07:37:56Z</time>
      </trkpt>
      <trkpt lat="45.15789" lon="4.35409">
        <ele>1038.84</ele>
        <time>2024-11-17T07:38:14Z</time>
      </trkpt>
      <trkpt lat="45.15789" lon="4.35421">
        <ele>1039.8</ele>
        <time>2024-11-17T07:38:21Z</time>
      </trkpt>
      <trkpt lat="45.1579" lon="4.35434">
        <ele>1041.73</ele>
        <time>2024-11-17T07:38:29Z</time>
      </trkpt>
      <trkpt lat="45.1579" lon="4.35459">
        <ele>1044.13</ele>
        <time>2024-11-17T07:38:43Z</time>
      </trkpt>
      <trkpt lat="45.1579" lon="4.3547">
        <ele>1045.57</ele>
        <time>2024-11-17T07:38:49Z</time>
      </trkpt>
      <trkpt lat="45.1579" lon="4.35477">
        <ele>1046.53</ele>
        <time>2024-11-17T07:38:53Z</time>
      </trkpt>
      <trkpt lat="45.15789" lon="4.35506">
        <ele>1048.45</ele>
        <time>2024-11-17T07:39:08Z</time>
      </trkpt>
      <trkpt lat="45.15789" lon="4.35536">
        <ele>1050.86</ele>
        <time>2024-11-17T07:39:24Z</time>
      </trkpt>
      <trkpt lat="45.15788" lon="4.35566">
        <ele>1050.38</ele>
        <time>2024-11-17T07:39:39Z</time>
      </trkpt>
      <trkpt lat="45.15791" lon="4.35597">
        <ele>1050.38</ele>
        <time>2024-11-17T07:39:57Z</time>
      </trkpt>
      <trkpt lat="45.15793" lon="4.35606">
        <ele>1051.34</ele>
        <time>2024-11-17T07:40:03Z</time>
      </trkpt>
      <trkpt lat="45.15786" lon="4.35634">
        <ele>1052.78</ele>
        <time>2024-11-17T07:40:20Z</time>
      </trkpt>
      <trkpt lat="45.15779" lon="4.35657">
        <ele>1053.74</ele>
        <time>2024-11-17T07:40:37Z</time>
      </trkpt>
      <trkpt lat="45.15778" lon="4.35682">
        <ele>1055.67</ele>
        <time>2024-11-17T07:40:53Z</time>
      </trkpt>
      <trkpt lat="45.15775" lon="4.35702">
        <ele>1059.03</ele>
        <time>2024-11-17T07:41:07Z</time>
      </trkpt>
      <trkpt lat="45.15776" lon="4.35725">
        <ele>1063.36</ele>
        <time>2024-11-17T07:41:22Z</time>
      </trkpt>
      <trkpt lat="45.15775" lon="4.35734">
        <ele>1065.28</ele>
        <time>2024-11-17T07:41:27Z</time>
      </trkpt>
      <trkpt lat="45.15774" lon="4.3574">
        <ele>1066.24</ele>
        <time>2024-11-17T07:41:31Z</time>
      </trkpt>
      <trkpt lat="45.15771" lon="4.35763">
        <ele>1069.6</ele>
        <time>2024-11-17T07:41:47Z</time>
      </trkpt>
      <trkpt lat="45.1577" lon="4.35782">
        <ele>1074.89</ele>
        <time>2024-11-17T07:42:00Z</time>
      </trkpt>
      <trkpt lat="45.15775" lon="4.35802">
        <ele>1076.81</ele>
        <time>2024-11-17T07:42:14Z</time>
      </trkpt>
      <trkpt lat="45.15785" lon="4.35824">
        <ele>1081.14</ele>
        <time>2024-11-17T07:42:31Z</time>
      </trkpt>
      <trkpt lat="45.15794" lon="4.35843">
        <ele>1080.66</ele>
        <time>2024-11-17T07:42:47Z</time>
      </trkpt>
      <trkpt lat="45.15804" lon="4.35857">
        <ele>1080.18</ele>
        <time>2024-11-17T07:43:01Z</time>
      </trkpt>
      <trkpt lat="45.15815" lon="4.35875">
        <ele>1082.1</ele>
        <time>2024-11-17T07:43:15Z</time>
      </trkpt>
      <trkpt lat="45.15826" lon="4.35894">
        <ele>1085.47</ele>
        <time>2024-11-17T07:43:29Z</time>
      </trkpt>
      <trkpt lat="45.15832" lon="4.35908">
        <ele>1087.39</ele>
        <time>2024-11-17T07:43:38Z</time>
      </trkpt>
      <trkpt lat="45.15838" lon="4.35929">
        <ele>1091.71</ele>
        <time>2024-11-17T07:43:54Z</time>
      </trkpt>
      <trkpt lat="45.1584" lon="4.35952">
        <ele>1094.6</ele>
        <time>2024-11-17T07:44:09Z</time>
      </trkpt>
      <trkpt lat="45.15842" lon="4.35975">
        <ele>1096.04</ele>
        <time>2024-11-17T07:44:23Z</time>
      </trkpt>
      <trkpt lat="45.15845" lon="4.35995">
        <ele>1096.04</ele>
        <time>2024-11-17T07:44:36Z</time>
      </trkpt>
      <trkpt lat="45.1585" lon="4.36018">
        <ele>1096.52</ele>
        <time>2024-11-17T07:44:49Z</time>
      </trkpt>
      <trkpt lat="45.15858" lon="4.36048">
        <ele>1100.37</ele>
        <time>2024-11-17T07:45:04Z</time>
      </trkpt>
      <trkpt lat="45.15862" lon="4.36065">
        <ele>1102.29</ele>
        <time>2024-11-17T07:45:17Z</time>
      </trkpt>
      <trkpt lat="45.15864" lon="4.36067">
        <ele>1101.81</ele>
        <time>2024-11-17T07:45:20Z</time>
      </trkpt>
      <trkpt lat="45.15875" lon="4.36086">
        <ele>1100.37</ele>
        <time>2024-11-17T07:45:31Z</time>
      </trkpt>
      <trkpt lat="45.15886" lon="4.3611">
        <ele>1099.4</ele>
        <time>2024-11-17T07:45:46Z</time>
      </trkpt>
      <trkpt lat="45.15896" lon="4.36136">
        <ele>1097.96</ele>
        <time>2024-11-17T07:46:01Z</time>
      </trkpt>
      <trkpt lat="45.15904" lon="4.36159">
        <ele>1099.4</ele>
        <time>2024-11-17T07:46:14Z</time>
      </trkpt>
      <trkpt lat="45.15912" lon="4.36189">
        <ele>1107.58</ele>
        <time>2024-11-17T07:46:31Z</time>
      </trkpt>
      <trkpt lat="45.15918" lon="4.36217">
        <ele>1114.31</ele>
        <time>2024-11-17T07:46:49Z</time>
      </trkpt>
      <trkpt lat="45.15924" lon="4.3624">
        <ele>1114.31</ele>
        <time>2024-11-17T07:47:02Z</time>
      </trkpt>
      <trkpt lat="45.15929" lon="4.36265">
        <ele>1117.67</ele>
        <time>2024-11-17T07:47:17Z</time>
      </trkpt>
      <trkpt lat="45.15937" lon="4.36292">
        <ele>1118.15</ele>
        <time>2024-11-17T07:47:33Z</time>
      </trkpt>
      <trkpt lat="45.15946" lon="4.36319">
        <ele>1118.15</ele>
        <time>2024-11-17T07:47:49Z</time>
      </trkpt>
      <trkpt lat="45.15961" lon="4.36357">
        <ele>1121.52</ele>
        <time>2024-11-17T07:48:06Z</time>
      </trkpt>
      <trkpt lat="45.15972" lon="4.36382">
        <ele>1118.63</ele>
        <time>2024-11-17T07:48:22Z</time>
      </trkpt>
      <trkpt lat="45.15983" lon="4.36399">
        <ele>1115.27</ele>
        <time>2024-11-17T07:48:36Z</time>
      </trkpt>
      <trkpt lat="45.15988" lon="4.36407">
        <ele>1113.82</ele>
        <time>2024-11-17T07:48:42Z</time>
      </trkpt>
      <trkpt lat="45.16002" lon="4.36426">
        <ele>1115.75</ele>
        <time>2024-11-17T07:48:59Z</time>
      </trkpt>
      <trkpt lat="45.16016" lon="4.36447">
        <ele>1117.19</ele>
        <time>2024-11-17T07:49:15Z</time>
      </trkpt>
      <trkpt lat="45.16018" lon="4.3645">
        <ele>1117.19</ele>
        <time>2024-11-17T07:49:18Z</time>
      </trkpt>
      <trkpt lat="45.16032" lon="4.36469">
        <ele>1115.27</ele>
        <time>2024-11-17T07:49:35Z</time>
      </trkpt>
      <trkpt lat="45.16045" lon="4.36486">
        <ele>1113.34</ele>
        <time>2024-11-17T07:49:51Z</time>
      </trkpt>
      <trkpt lat="45.16061" lon="4.36504">
        <ele>1113.82</ele>
        <time>2024-11-17T07:50:08Z</time>
      </trkpt>
      <trkpt lat="45.16073" lon="4.36518">
        <ele>1116.71</ele>
        <time>2024-11-17T07:50:22Z</time>
      </trkpt>
      <trkpt lat="45.16089" lon="4.36537">
        <ele>1116.71</ele>
        <time>2024-11-17T07:50:38Z</time>
      </trkpt>
      <trkpt lat="45.16109" lon="4.36554">
        <ele>1117.19</ele>
        <time>2024-11-17T07:50:54Z</time>
      </trkpt>
      <trkpt lat="45.16129" lon="4.36564">
        <ele>1119.59</ele>
        <time>2024-11-17T07:51:11Z</time>
      </trkpt>
      <trkpt lat="45.16136" lon="4.36566">
        <ele>1120.07</ele>
        <time>2024-11-17T07:51:17Z</time>
      </trkpt>
      <trkpt lat="45.16143" lon="4.36571">
        <ele>1119.59</ele>
        <time>2024-11-17T07:51:22Z</time>
      </trkpt>
      <trkpt lat="45.16162" lon="4.36579">
        <ele>1116.23</ele>
        <time>2024-11-17T07:51:38Z</time>
      </trkpt>
      <trkpt lat="45.16182" lon="4.36589">
        <ele>1118.63</ele>
        <time>2024-11-17T07:51:55Z</time>
      </trkpt>
      <trkpt lat="45.16197" lon="4.36599">
        <ele>1120.07</ele>
        <time>2024-11-17T07:52:08Z</time>
      </trkpt>
      <trkpt lat="45.16213" lon="4.36606">
        <ele>1122.96</ele>
        <time>2024-11-17T07:52:22Z</time>
      </trkpt>
      <trkpt lat="45.16231" lon="4.36616">
        <ele>1123.92</ele>
        <time>2024-11-17T07:52:37Z</time>
      </trkpt>
      <trkpt lat="45.16249" lon="4.36623">
        <ele>1127.28</ele>
        <time>2024-11-17T07:52:52Z</time>
      </trkpt>
      <trkpt lat="45.16266" lon="4.36631">
        <ele>1128.73</ele>
        <time>2024-11-17T07:53:06Z</time>
      </trkpt>
      <trkpt lat="45.16288" lon="4.36642">
        <ele>1130.17</ele>
        <time>2024-11-17T07:53:23Z</time>
      </trkpt>
      <trkpt lat="45.16297" lon="4.36645">
        <ele>1129.21</ele>
        <time>2024-11-17T07:53:32Z</time>
      </trkpt>
      <trkpt lat="45.16317" lon="4.3666">
        <ele>1129.21</ele>
        <time>2024-11-17T07:53:48Z</time>
      </trkpt>
      <trkpt lat="45.16338" lon="4.3668">
        <ele>1129.21</ele>
        <time>2024-11-17T07:54:06Z</time>
      </trkpt>
      <trkpt lat="45.16354" lon="4.36701">
        <ele>1128.24</ele>
        <time>2024-11-17T07:54:24Z</time>
      </trkpt>
      <trkpt lat="45.16368" lon="4.36717">
        <ele>1127.28</ele>
        <time>2024-11-17T07:54:39Z</time>
      </trkpt>
      <trkpt lat="45.16383" lon="4.3673">
        <ele>1128.24</ele>
        <time>2024-11-17T07:54:53Z</time>
      </trkpt>
      <trkpt lat="45.16387" lon="4.36735">
        <ele>1127.28</ele>
        <time>2024-11-17T07:54:57Z</time>
      </trkpt>
      <trkpt lat="45.16391" lon="4.36739">
        <ele>1126.32</ele>
        <time>2024-11-17T07:55:01Z</time>
      </trkpt>
      <trkpt lat="45.16406" lon="4.36754">
        <ele>1122.48</ele>
        <time>2024-11-17T07:55:17Z</time>
      </trkpt>
      <trkpt lat="45.16419" lon="4.36767">
        <ele>1119.11</ele>
        <time>2024-11-17T07:55:30Z</time>
      </trkpt>
      <trkpt lat="45.16435" lon="4.36781">
        <ele>1117.67</ele>
        <time>2024-11-17T07:55:46Z</time>
      </trkpt>
      <trkpt lat="45.16442" lon="4.36788">
        <ele>1114.79</ele>
        <time>2024-11-17T07:55:55Z</time>
      </trkpt>
      <trkpt lat="45.16458" lon="4.36807">
        <ele>1115.27</ele>
        <time>2024-11-17T07:56:12Z</time>
      </trkpt>
      <trkpt lat="45.16469" lon="4.36815">
        <ele>1103.25</ele>
        <time>2024-11-17T07:56:26Z</time>
      </trkpt>
      <trkpt lat="45.16476" lon="4.36822">
        <ele>1099.4</ele>
        <time>2024-11-17T07:56:39Z</time>
      </trkpt>
      <trkpt lat="45.16479" lon="4.36828">
        <ele>1097.48</ele>
        <time>2024-11-17T07:56:45Z</time>
      </trkpt>
      <trkpt lat="45.16488" lon="4.36842">
        <ele>1093.16</ele>
        <time>2024-11-17T07:56:58Z</time>
      </trkpt>
      <trkpt lat="45.16496" lon="4.36851">
        <ele>1093.64</ele>
        <time>2024-11-17T07:57:09Z</time>
      </trkpt>
      <trkpt lat="45.16507" lon="4.36855">
        <ele>1085.95</ele>
        <time>2024-11-17T07:57:29Z</time>
      </trkpt>
      <trkpt lat="45.1651" lon="4.36854">
        <ele>1081.62</ele>
        <time>2024-11-17T07:57:45Z</time>
      </trkpt>
      <trkpt lat="45.16515" lon="4.36863">
        <ele>1083.06</ele>
        <time>2024-11-17T07:57:59Z</time>
      </trkpt>
      <trkpt lat="45.16521" lon="4.36873">
        <ele>1083.54</ele>
        <time>2024-11-17T07:58:07Z</time>
      </trkpt>
      <trkpt lat="45.16524" lon="4.36878">
        <ele>1084.5</ele>
        <time>2024-11-17T07:58:11Z</time>
      </trkpt>
      <trkpt lat="45.16542" lon="4.36893">
        <ele>1086.91</ele>
        <time>2024-11-17T07:58:29Z</time>
      </trkpt>
      <trkpt lat="45.16557" lon="4.36907">
        <ele>1086.91</ele>
        <time>2024-11-17T07:58:43Z</time>
      </trkpt>
      <trkpt lat="45.16573" lon="4.36927">
        <ele>1087.87</ele>
        <time>2024-11-17T07:59:00Z</time>
      </trkpt>
      <trkpt lat="45.1658" lon="4.36938">
        <ele>1089.79</ele>
        <time>2024-11-17T07:59:09Z</time>
      </trkpt>
      <trkpt lat="45.16593" lon="4.36955">
        <ele>1092.68</ele>
        <time>2024-11-17T07:59:24Z</time>
      </trkpt>
      <trkpt lat="45.16609" lon="4.36975">
        <ele>1096.52</ele>
        <time>2024-11-17T07:59:40Z</time>
      </trkpt>
      <trkpt lat="45.16628" lon="4.36997">
        <ele>1096.52</ele>
        <time>2024-11-17T07:59:56Z</time>
      </trkpt>
      <trkpt lat="45.16629" lon="4.36999">
        <ele>1096.52</ele>
        <time>2024-11-17T07:59:57Z</time>
      </trkpt>
      <trkpt lat="45.16647" lon="4.37018">
        <ele>1092.2</ele>
        <time>2024-11-17T08:00:13Z</time>
      </trkpt>
      <trkpt lat="45.16672" lon="4.37039">
        <ele>1084.5</ele>
        <time>2024-11-17T08:00:32Z</time>
      </trkpt>
      <trkpt lat="45.16694" lon="4.37059">
        <ele>1077.29</ele>
        <time>2024-11-17T08:00:50Z</time>
      </trkpt>
      <trkpt lat="45.16717" lon="4.37082">
        <ele>1073.45</ele>
        <time>2024-11-17T08:01:11Z</time>
      </trkpt>
      <trkpt lat="45.16728" lon="4.37101">
        <ele>1072.97</ele>
        <time>2024-11-17T08:01:26Z</time>
      </trkpt>
      <trkpt lat="45.1673" lon="4.37112">
        <ele>1072.01</ele>
        <time>2024-11-17T08:01:33Z</time>
      </trkpt>
      <trkpt lat="45.16732" lon="4.37118">
        <ele>1072.01</ele>
        <time>2024-11-17T08:01:37Z</time>
      </trkpt>
      <trkpt lat="45.16739" lon="4.3715">
        <ele>1072.01</ele>
        <time>2024-11-17T08:01:55Z</time>
      </trkpt>
      <trkpt lat="45.16744" lon="4.37177">
        <ele>1071.05</ele>
        <time>2024-11-17T08:02:10Z</time>
      </trkpt>
      <trkpt lat="45.16742" lon="4.37207">
        <ele>1069.12</ele>
        <time>2024-11-17T08:02:27Z</time>
      </trkpt>
      <trkpt lat="45.16746" lon="4.37237">
        <ele>1066.72</ele>
        <time>2024-11-17T08:02:43Z</time>
      </trkpt>
      <trkpt lat="45.16755" lon="4.37271">
        <ele>1062.87</ele>
        <time>2024-11-17T08:03:01Z</time>
      </trkpt>
      <trkpt lat="45.16761" lon="4.37293">
        <ele>1059.51</ele>
        <time>2024-11-17T08:03:13Z</time>
      </trkpt>
      <trkpt lat="45.16771" lon="4.37323">
        <ele>1054.7</ele>
        <time>2024-11-17T08:03:30Z</time>
      </trkpt>
      <trkpt lat="45.16777" lon="4.37347">
        <ele>1053.26</ele>
        <time>2024-11-17T08:03:44Z</time>
      </trkpt>
      <trkpt lat="45.16781" lon="4.37358">
        <ele>1053.26</ele>
        <time>2024-11-17T08:03:50Z</time>
      </trkpt>
      <trkpt lat="45.16785" lon="4.37366">
        <ele>1052.78</ele>
        <time>2024-11-17T08:03:55Z</time>
      </trkpt>
      <trkpt lat="45.16795" lon="4.37394">
        <ele>1049.9</ele>
        <time>2024-11-17T08:04:11Z</time>
      </trkpt>
      <trkpt lat="45.16797" lon="4.374">
        <ele>1048.94</ele>
        <time>2024-11-17T08:04:15Z</time>
      </trkpt>
      <trkpt lat="45.168" lon="4.37406">
        <ele>1048.45</ele>
        <time>2024-11-17T08:04:19Z</time>
      </trkpt>
      <trkpt lat="45.16802" lon="4.37415">
        <ele>1048.45</ele>
        <time>2024-11-17T08:04:24Z</time>
      </trkpt>
      <trkpt lat="45.16813" lon="4.37447">
        <ele>1046.05</ele>
        <time>2024-11-17T08:04:43Z</time>
      </trkpt>
      <trkpt lat="45.1682" lon="4.37482">
        <ele>1044.61</ele>
        <time>2024-11-17T08:05:03Z</time>
      </trkpt>
      <trkpt lat="45.16825" lon="4.37519">
        <ele>1043.17</ele>
        <time>2024-11-17T08:05:23Z</time>
      </trkpt>
      <trkpt lat="45.16829" lon="4.37556">
        <ele>1044.13</ele>
        <time>2024-11-17T08:05:43Z</time>
      </trkpt>
      <trkpt lat="45.16831" lon="4.37572">
        <ele>1044.61</ele>
        <time>2024-11-17T08:05:51Z</time>
      </trkpt>
      <trkpt lat="45.16835" lon="4.37602">
        <ele>1046.53</ele>
        <time>2024-11-17T08:06:07Z</time>
      </trkpt>
      <trkpt lat="45.16842" lon="4.37636">
        <ele>1049.9</ele>
        <time>2024-11-17T08:06:26Z</time>
      </trkpt>
      <trkpt lat="45.1685" lon="4.37672">
        <ele>1048.94</ele>
        <time>2024-11-17T08:06:46Z</time>
      </trkpt>
      <trkpt lat="45.16858" lon="4.37707">
        <ele>1047.49</ele>
        <time>2024-11-17T08:07:06Z</time>
      </trkpt>
      <trkpt lat="45.16868" lon="4.37737">
        <ele>1044.61</ele>
        <time>2024-11-17T08:07:23Z</time>
      </trkpt>
      <trkpt lat="45.16873" lon="4.37764">
        <ele>1042.21</ele>
        <time>2024-11-17T08:07:39Z</time>
      </trkpt>
      <trkpt lat="45.16879" lon="4.37783">
        <ele>1038.84</ele>
        <time>2024-11-17T08:07:53Z</time>
      </trkpt>
      <trkpt lat="45.16882" lon="4.37805">
        <ele>1037.4</ele>
        <time>2024-11-17T08:08:08Z</time>
      </trkpt>
      <trkpt lat="45.16884" lon="4.37827">
        <ele>1039.8</ele>
        <time>2024-11-17T08:08:22Z</time>
      </trkpt>
      <trkpt lat="45.16887" lon="4.37847">
        <ele>1041.73</ele>
        <time>2024-11-17T08:08:35Z</time>
      </trkpt>
      <trkpt lat="45.16892" lon="4.37872">
        <ele>1044.13</ele>
        <time>2024-11-17T08:08:50Z</time>
      </trkpt>
      <trkpt lat="45.16895" lon="4.37885">
        <ele>1045.09</ele>
        <time>2024-11-17T08:08:57Z</time>
      </trkpt>
      <trkpt lat="45.169" lon="4.37916">
        <ele>1045.57</ele>
        <time>2024-11-17T08:09:13Z</time>
      </trkpt>
      <trkpt lat="45.16901" lon="4.37932">
        <ele>1049.9</ele>
        <time>2024-11-17T08:09:24Z</time>
      </trkpt>
      <trkpt lat="45.16903" lon="4.37953">
        <ele>1057.11</ele>
        <time>2024-11-17T08:09:38Z</time>
      </trkpt>
      <trkpt lat="45.16905" lon="4.37973">
        <ele>1064.32</ele>
        <time>2024-11-17T08:09:52Z</time>
      </trkpt>
      <trkpt lat="45.16904" lon="4.37994">
        <ele>1067.68</ele>
        <time>2024-11-17T08:10:04Z</time>
      </trkpt>
      <trkpt lat="45.16901" lon="4.38021">
        <ele>1067.2</ele>
        <time>2024-11-17T08:10:18Z</time>
      </trkpt>
      <trkpt lat="45.16896" lon="4.38047">
        <ele>1069.6</ele>
        <time>2024-11-17T08:10:33Z</time>
      </trkpt>
      <trkpt lat="45.16894" lon="4.38072">
        <ele>1065.28</ele>
        <time>2024-11-17T08:10:48Z</time>
      </trkpt>
      <trkpt lat="45.16891" lon="4.38091">
        <ele>1057.59</ele>
        <time>2024-11-17T08:11:00Z</time>
      </trkpt>
      <trkpt lat="45.16887" lon="4.38106">
        <ele>1051.34</ele>
        <time>2024-11-17T08:11:10Z</time>
      </trkpt>
      <trkpt lat="45.16887" lon="4.38116">
        <ele>1050.86</ele>
        <time>2024-11-17T08:11:14Z</time>
      </trkpt>
      <trkpt lat="45.16896" lon="4.38153">
        <ele>1043.17</ele>
        <time>2024-11-17T08:11:30Z</time>
      </trkpt>
      <trkpt lat="45.16902" lon="4.38183">
        <ele>1033.07</ele>
        <time>2024-11-17T08:11:45Z</time>
      </trkpt>
      <trkpt lat="45.16903" lon="4.38196">
        <ele>1022.5</ele>
        <time>2024-11-17T08:12:00Z</time>
      </trkpt>
      <trkpt lat="45.16909" lon="4.38205">
        <ele>1004.23</ele>
        <time>2024-11-17T08:12:15Z</time>
      </trkpt>
      <trkpt lat="45.1691" lon="4.38206">
        <ele>996.06</ele>
        <time>2024-11-17T08:12:33Z</time>
      </trkpt>
      <trkpt lat="45.1691" lon="4.38205">
        <ele>992.22</ele>
        <time>2024-11-17T08:12:47Z</time>
      </trkpt>
      <trkpt lat="45.16907" lon="4.3821">
        <ele>990.3</ele>
        <time>2024-11-17T08:13:02Z</time>
      </trkpt>
      <trkpt lat="45.16897" lon="4.38234">
        <ele>985.97</ele>
        <time>2024-11-17T08:13:19Z</time>
      </trkpt>
      <trkpt lat="45.16889" lon="4.3826">
        <ele>984.53</ele>
        <time>2024-11-17T08:13:34Z</time>
      </trkpt>
      <trkpt lat="45.16886" lon="4.3827">
        <ele>983.57</ele>
        <time>2024-11-17T08:13:40Z</time>
      </trkpt>
      <trkpt lat="45.16878" lon="4.38291">
        <ele>982.12</ele>
        <time>2024-11-17T08:13:54Z</time>
      </trkpt>
      <trkpt lat="45.16877" lon="4.38302">
        <ele>981.16</ele>
        <time>2024-11-17T08:14:00Z</time>
      </trkpt>
      <trkpt lat="45.16872" lon="4.38313">
        <ele>979.24</ele>
        <time>2024-11-17T08:14:07Z</time>
      </trkpt>
      <trkpt lat="45.16863" lon="4.38331">
        <ele>978.28</ele>
        <time>2024-11-17T08:14:23Z</time>
      </trkpt>
      <trkpt lat="45.16861" lon="4.38334">
        <ele>977.8</ele>
        <time>2024-11-17T08:14:27Z</time>
      </trkpt>
      <trkpt lat="45.16859" lon="4.38335">
        <ele>977.32</ele>
        <time>2024-11-17T08:14:29Z</time>
      </trkpt>
      <trkpt lat="45.1685" lon="4.3835">
        <ele>976.84</ele>
        <time>2024-11-17T08:14:43Z</time>
      </trkpt>
      <trkpt lat="45.1684" lon="4.38365">
        <ele>976.36</ele>
        <time>2024-11-17T08:14:57Z</time>
      </trkpt>
      <trkpt lat="45.16824" lon="4.38377">
        <ele>979.72</ele>
        <time>2024-11-17T08:15:12Z</time>
      </trkpt>
      <trkpt lat="45.16815" lon="4.38384">
        <ele>979.72</ele>
        <time>2024-11-17T08:15:19Z</time>
      </trkpt>
      <trkpt lat="45.16799" lon="4.38395">
        <ele>977.32</ele>
        <time>2024-11-17T08:15:34Z</time>
      </trkpt>
      <trkpt lat="45.1678" lon="4.38401">
        <ele>971.55</ele>
        <time>2024-11-17T08:15:49Z</time>
      </trkpt>
      <trkpt lat="45.16762" lon="4.38399">
        <ele>963.38</ele>
        <time>2024-11-17T08:16:06Z</time>
      </trkpt>
      <trkpt lat="45.16735" lon="4.38386">
        <ele>959.05</ele>
        <time>2024-11-17T08:16:25Z</time>
      </trkpt>
      <trkpt lat="45.16723" lon="4.38406">
        <ele>958.09</ele>
        <time>2024-11-17T08:16:40Z</time>
      </trkpt>
      <trkpt lat="45.16726" lon="4.38436">
        <ele>959.05</ele>
        <time>2024-11-17T08:16:57Z</time>
      </trkpt>
      <trkpt lat="45.16736" lon="4.3848">
        <ele>959.05</ele>
        <time>2024-11-17T08:17:21Z</time>
      </trkpt>
      <trkpt lat="45.16743" lon="4.38514">
        <ele>959.53</ele>
        <time>2024-11-17T08:17:39Z</time>
      </trkpt>
      <trkpt lat="45.16746" lon="4.38552">
        <ele>960.49</ele>
        <time>2024-11-17T08:17:58Z</time>
      </trkpt>
      <trkpt lat="45.16744" lon="4.38589">
        <ele>963.38</ele>
        <time>2024-11-17T08:18:19Z</time>
      </trkpt>
      <trkpt lat="45.16738" lon="4.38619">
        <ele>964.34</ele>
        <time>2024-11-17T08:18:37Z</time>
      </trkpt>
      <trkpt lat="45.16727" lon="4.38648">
        <ele>962.42</ele>
        <time>2024-11-17T08:18:54Z</time>
      </trkpt>
      <trkpt lat="45.16712" lon="4.3867">
        <ele>960.49</ele>
        <time>2024-11-17T08:19:11Z</time>
      </trkpt>
      <trkpt lat="45.16694" lon="4.38684">
        <ele>960.49</ele>
        <time>2024-11-17T08:19:28Z</time>
      </trkpt>
      <trkpt lat="45.16692" lon="4.38685">
        <ele>960.49</ele>
        <time>2024-11-17T08:19:30Z</time>
      </trkpt>
      <trkpt lat="45.16692" lon="4.38689">
        <ele>961.46</ele>
        <time>2024-11-17T08:19:42Z</time>
      </trkpt>
      <trkpt lat="45.16689" lon="4.38689">
        <ele>961.94</ele>
        <time>2024-11-17T08:19:55Z</time>
      </trkpt>
      <trkpt lat="45.16667" lon="4.38703">
        <ele>961.46</ele>
        <time>2024-11-17T08:20:15Z</time>
      </trkpt>
      <trkpt lat="45.16645" lon="4.38704">
        <ele>962.42</ele>
        <time>2024-11-17T08:20:33Z</time>
      </trkpt>
      <trkpt lat="45.1664" lon="4.38705">
        <ele>964.82</ele>
        <time>2024-11-17T08:20:43Z</time>
      </trkpt>
      <trkpt lat="45.16637" lon="4.38708">
        <ele>964.34</ele>
        <time>2024-11-17T08:20:53Z</time>
      </trkpt>
      <trkpt lat="45.16638" lon="4.38713">
        <ele>963.86</ele>
        <time>2024-11-17T08:21:01Z</time>
      </trkpt>
      <trkpt lat="45.16649" lon="4.38738">
        <ele>961.46</ele>
        <time>2024-11-17T08:21:20Z</time>
      </trkpt>
      <trkpt lat="45.16665" lon="4.38767">
        <ele>957.13</ele>
        <time>2024-11-17T08:21:40Z</time>
      </trkpt>
      <trkpt lat="45.16682" lon="4.38799">
        <ele>952.32</ele>
        <time>2024-11-17T08:22:01Z</time>
      </trkpt>
      <trkpt lat="45.16696" lon="4.3882">
        <ele>950.4</ele>
        <time>2024-11-17T08:22:16Z</time>
      </trkpt>
      <trkpt lat="45.16716" lon="4.38845">
        <ele>949.92</ele>
        <time>2024-11-17T08:22:35Z</time>
      </trkpt>
      <trkpt lat="45.16741" lon="4.38872">
        <ele>948</ele>
        <time>2024-11-17T08:22:57Z</time>
      </trkpt>
      <trkpt lat="45.16764" lon="4.38896">
        <ele>948.96</ele>
        <time>2024-11-17T08:23:17Z</time>
      </trkpt>
      <trkpt lat="45.16789" lon="4.38911">
        <ele>952.8</ele>
        <time>2024-11-17T08:23:37Z</time>
      </trkpt>
      <trkpt lat="45.16807" lon="4.38929">
        <ele>955.69</ele>
        <time>2024-11-17T08:23:55Z</time>
      </trkpt>
      <trkpt lat="45.16825" lon="4.3895">
        <ele>957.13</ele>
        <time>2024-11-17T08:24:14Z</time>
      </trkpt>
      <trkpt lat="45.16831" lon="4.38954">
        <ele>957.61</ele>
        <time>2024-11-17T08:24:25Z</time>
      </trkpt>
      <trkpt lat="45.16846" lon="4.38972">
        <ele>959.05</ele>
        <time>2024-11-17T08:24:43Z</time>
      </trkpt>
      <trkpt lat="45.16861" lon="4.38994">
        <ele>962.42</ele>
        <time>2024-11-17T08:25:01Z</time>
      </trkpt>
      <trkpt lat="45.16868" lon="4.39024">
        <ele>967.7</ele>
        <time>2024-11-17T08:25:19Z</time>
      </trkpt>
      <trkpt lat="45.16868" lon="4.39034">
        <ele>969.15</ele>
        <time>2024-11-17T08:25:25Z</time>
      </trkpt>
      <trkpt lat="45.16871" lon="4.39038">
        <ele>970.11</ele>
        <time>2024-11-17T08:25:30Z</time>
      </trkpt>
      <trkpt lat="45.16877" lon="4.39035">
        <ele>970.11</ele>
        <time>2024-11-17T08:25:35Z</time>
      </trkpt>
      <trkpt lat="45.16894" lon="4.39021">
        <ele>973.95</ele>
        <time>2024-11-17T08:25:53Z</time>
      </trkpt>
      <trkpt lat="45.16911" lon="4.39008">
        <ele>976.36</ele>
        <time>2024-11-17T08:26:08Z</time>
      </trkpt>
      <trkpt lat="45.16929" lon="4.38995">
        <ele>978.76</ele>
        <time>2024-11-17T08:26:24Z</time>
      </trkpt>
      <trkpt lat="45.16948" lon="4.38987">
        <ele>980.68</ele>
        <time>2024-11-17T08:26:40Z</time>
      </trkpt>
      <trkpt lat="45.16969" lon="4.38981">
        <ele>983.57</ele>
        <time>2024-11-17T08:26:57Z</time>
      </trkpt>
      <trkpt lat="45.16978" lon="4.38979">
        <ele>984.05</ele>
        <time>2024-11-17T08:27:04Z</time>
      </trkpt>
      <trkpt lat="45.16996" lon="4.38973">
        <ele>985.01</ele>
        <time>2024-11-17T08:27:18Z</time>
      </trkpt>
      <trkpt lat="45.17009" lon="4.38971">
        <ele>985.49</ele>
        <time>2024-11-17T08:27:29Z</time>
      </trkpt>
      <trkpt lat="45.17015" lon="4.38966">
        <ele>985.97</ele>
        <time>2024-11-17T08:27:41Z</time>
      </trkpt>
      <trkpt lat="45.17035" lon="4.38971">
        <ele>986.93</ele>
        <time>2024-11-17T08:27:59Z</time>
      </trkpt>
      <trkpt lat="45.17054" lon="4.38977">
        <ele>988.85</ele>
        <time>2024-11-17T08:28:16Z</time>
      </trkpt>
      <trkpt lat="45.17071" lon="4.38989">
        <ele>988.85</ele>
        <time>2024-11-17T08:28:33Z</time>
      </trkpt>
      <trkpt lat="45.17089" lon="4.38998">
        <ele>988.85</ele>
        <time>2024-11-17T08:28:50Z</time>
      </trkpt>
      <trkpt lat="45.17112" lon="4.39">
        <ele>989.81</ele>
        <time>2024-11-17T08:29:08Z</time>
      </trkpt>
      <trkpt lat="45.17133" lon="4.39">
        <ele>990.3</ele>
        <time>2024-11-17T08:29:24Z</time>
      </trkpt>
      <trkpt lat="45.17154" lon="4.38997">
        <ele>990.78</ele>
        <time>2024-11-17T08:29:41Z</time>
      </trkpt>
      <trkpt lat="45.17172" lon="4.38994">
        <ele>991.74</ele>
        <time>2024-11-17T08:29:55Z</time>
      </trkpt>
      <trkpt lat="45.17202" lon="4.3899">
        <ele>991.26</ele>
        <time>2024-11-17T08:30:17Z</time>
      </trkpt>
      <trkpt lat="45.17225" lon="4.38991">
        <ele>994.14</ele>
        <time>2024-11-17T08:30:35Z</time>
      </trkpt>
      <trkpt lat="45.17248" lon="4.38993">
        <ele>993.66</ele>
        <time>2024-11-17T08:30:52Z</time>
      </trkpt>
      <trkpt lat="45.17272" lon="4.38998">
        <ele>991.26</ele>
        <time>2024-11-17T08:31:10Z</time>
      </trkpt>
      <trkpt lat="45.17291" lon="4.39001">
        <ele>988.85</ele>
        <time>2024-11-17T08:31:24Z</time>
      </trkpt>
      <trkpt lat="45.1732" lon="4.39007">
        <ele>988.85</ele>
        <time>2024-11-17T08:31:45Z</time>
      </trkpt>
      <trkpt lat="45.17348" lon="4.39019">
        <ele>986.93</ele>
        <time>2024-11-17T08:32:07Z</time>
      </trkpt>
      <trkpt lat="45.17371" lon="4.39032">
        <ele>986.45</ele>
        <time>2024-11-17T08:32:26Z</time>
      </trkpt>
      <trkpt lat="45.17391" lon="4.39043">
        <ele>985.49</ele>
        <time>2024-11-17T08:32:43Z</time>
      </trkpt>
      <trkpt lat="45.17413" lon="4.39051">
        <ele>984.53</ele>
        <time>2024-11-17T08:32:59Z</time>
      </trkpt>
      <trkpt lat="45.17432" lon="4.39051">
        <ele>984.53</ele>
        <time>2024-11-17T08:33:15Z</time>
      </trkpt>
      <trkpt lat="45.17433" lon="4.39051">
        <ele>984.53</ele>
        <time>2024-11-17T08:33:16Z</time>
      </trkpt>
      <trkpt lat="45.17438" lon="4.39047">
        <ele>984.53</ele>
        <time>2024-11-17T08:33:21Z</time>
      </trkpt>
      <trkpt lat="45.17448" lon="4.39049">
        <ele>984.05</ele>
        <time>2024-11-17T08:33:29Z</time>
      </trkpt>
      <trkpt lat="45.17468" lon="4.39063">
        <ele>981.16</ele>
        <time>2024-11-17T08:33:46Z</time>
      </trkpt>
      <trkpt lat="45.17485" lon="4.39071">
        <ele>983.09</ele>
        <time>2024-11-17T08:34:01Z</time>
      </trkpt>
      <trkpt lat="45.17501" lon="4.39079">
        <ele>983.57</ele>
        <time>2024-11-17T08:34:14Z</time>
      </trkpt>
      <trkpt lat="45.1752" lon="4.39081">
        <ele>983.09</ele>
        <time>2024-11-17T08:34:29Z</time>
      </trkpt>
      <trkpt lat="45.17521" lon="4.39081">
        <ele>983.09</ele>
        <time>2024-11-17T08:34:30Z</time>
      </trkpt>
      <trkpt lat="45.17544" lon="4.39094">
        <ele>986.93</ele>
        <time>2024-11-17T08:34:47Z</time>
      </trkpt>
      <trkpt lat="45.17551" lon="4.39102">
        <ele>985.01</ele>
        <time>2024-11-17T08:34:58Z</time>
      </trkpt>
      <trkpt lat="45.17555" lon="4.39103">
        <ele>982.6</ele>
        <time>2024-11-17T08:35:06Z</time>
      </trkpt>
      <trkpt lat="45.17572" lon="4.39099">
        <ele>982.12</ele>
        <time>2024-11-17T08:35:19Z</time>
      </trkpt>
      <trkpt lat="45.17577" lon="4.39097">
        <ele>981.64</ele>
        <time>2024-11-17T08:35:24Z</time>
      </trkpt>
      <trkpt lat="45.17579" lon="4.39098">
        <ele>981.64</ele>
        <time>2024-11-17T08:35:27Z</time>
      </trkpt>
      <trkpt lat="45.17581" lon="4.39099">
        <ele>981.16</ele>
        <time>2024-11-17T08:35:29Z</time>
      </trkpt>
      <trkpt lat="45.17586" lon="4.39099">
        <ele>981.16</ele>
        <time>2024-11-17T08:35:34Z</time>
      </trkpt>
      <trkpt lat="45.17601" lon="4.39104">
        <ele>978.76</ele>
        <time>2024-11-17T08:35:49Z</time>
      </trkpt>
      <trkpt lat="45.17618" lon="4.39105">
        <ele>979.24</ele>
        <time>2024-11-17T08:36:06Z</time>
      </trkpt>
      <trkpt lat="45.17634" lon="4.39106">
        <ele>981.64</ele>
        <time>2024-11-17T08:36:22Z</time>
      </trkpt>
      <trkpt lat="45.17646" lon="4.39113">
        <ele>980.2</ele>
        <time>2024-11-17T08:36:37Z</time>
      </trkpt>
      <trkpt lat="45.17649" lon="4.39117">
        <ele>978.28</ele>
        <time>2024-11-17T08:36:52Z</time>
      </trkpt>
      <trkpt lat="45.17654" lon="4.39123">
        <ele>976.84</ele>
        <time>2024-11-17T08:37:08Z</time>
      </trkpt>
      <trkpt lat="45.17656" lon="4.39113">
        <ele>978.76</ele>
        <time>2024-11-17T08:37:25Z</time>
      </trkpt>
      <trkpt lat="45.17658" lon="4.39115">
        <ele>978.28</ele>
        <time>2024-11-17T08:37:37Z</time>
      </trkpt>
      <trkpt lat="45.17667" lon="4.39123">
        <ele>978.28</ele>
        <time>2024-11-17T08:37:51Z</time>
      </trkpt>
      <trkpt lat="45.17678" lon="4.39135">
        <ele>978.28</ele>
        <time>2024-11-17T08:38:05Z</time>
      </trkpt>
      <trkpt lat="45.17679" lon="4.39137">
        <ele>978.28</ele>
        <time>2024-11-17T08:38:06Z</time>
      </trkpt>
      <trkpt lat="45.17684" lon="4.39148">
        <ele>976.84</ele>
        <time>2024-11-17T08:38:13Z</time>
      </trkpt>
      <trkpt lat="45.17686" lon="4.39153">
        <ele>976.84</ele>
        <time>2024-11-17T08:38:16Z</time>
      </trkpt>
      <trkpt lat="45.17691" lon="4.39166">
        <ele>976.36</ele>
        <time>2024-11-17T08:38:25Z</time>
      </trkpt>
      <trkpt lat="45.17694" lon="4.39186">
        <ele>974.91</ele>
        <time>2024-11-17T08:38:37Z</time>
      </trkpt>
      <trkpt lat="45.17696" lon="4.39198">
        <ele>972.99</ele>
        <time>2024-11-17T08:38:53Z</time>
      </trkpt>
      <trkpt lat="45.17699" lon="4.39205">
        <ele>969.63</ele>
        <time>2024-11-17T08:39:07Z</time>
      </trkpt>
      <trkpt lat="45.17699" lon="4.39219">
        <ele>970.11</ele>
        <time>2024-11-17T08:39:20Z</time>
      </trkpt>
      <trkpt lat="45.17701" lon="4.39228">
        <ele>970.59</ele>
        <time>2024-11-17T08:39:26Z</time>
      </trkpt>
      <trkpt lat="45.17705" lon="4.39254">
        <ele>970.11</ele>
        <time>2024-11-17T08:39:40Z</time>
      </trkpt>
      <trkpt lat="45.17705" lon="4.3926">
        <ele>967.22</ele>
        <time>2024-11-17T08:39:55Z</time>
      </trkpt>
      <trkpt lat="45.17708" lon="4.39263">
        <ele>965.78</ele>
        <time>2024-11-17T08:40:00Z</time>
      </trkpt>
      <trkpt lat="45.17717" lon="4.39263">
        <ele>965.78</ele>
        <time>2024-11-17T08:40:14Z</time>
      </trkpt>
      <trkpt lat="45.17725" lon="4.39261">
        <ele>965.78</ele>
        <time>2024-11-17T08:40:22Z</time>
      </trkpt>
      <trkpt lat="45.1773" lon="4.39257">
        <ele>965.78</ele>
        <time>2024-11-17T08:40:27Z</time>
      </trkpt>
      <trkpt lat="45.17744" lon="4.3925">
        <ele>968.18</ele>
        <time>2024-11-17T08:40:41Z</time>
      </trkpt>
      <trkpt lat="45.17758" lon="4.39236">
        <ele>969.15</ele>
        <time>2024-11-17T08:40:55Z</time>
      </trkpt>
      <trkpt lat="45.17772" lon="4.39225">
        <ele>968.67</ele>
        <time>2024-11-17T08:41:11Z</time>
      </trkpt>
      <trkpt lat="45.17782" lon="4.39213">
        <ele>969.15</ele>
        <time>2024-11-17T08:41:24Z</time>
      </trkpt>
      <trkpt lat="45.17789" lon="4.39209">
        <ele>970.59</ele>
        <time>2024-11-17T08:41:37Z</time>
      </trkpt>
      <trkpt lat="45.17799" lon="4.39201">
        <ele>972.99</ele>
        <time>2024-11-17T08:41:48Z</time>
      </trkpt>
      <trkpt lat="45.17815" lon="4.39185">
        <ele>972.99</ele>
        <time>2024-11-17T08:42:04Z</time>
      </trkpt>
      <trkpt lat="45.17827" lon="4.39173">
        <ele>969.63</ele>
        <time>2024-11-17T08:42:19Z</time>
      </trkpt>
      <trkpt lat="45.17843" lon="4.39154">
        <ele>956.65</ele>
        <time>2024-11-17T08:42:36Z</time>
      </trkpt>
      <trkpt lat="45.17853" lon="4.39137">
        <ele>952.8</ele>
        <time>2024-11-17T08:42:51Z</time>
      </trkpt>
      <trkpt lat="45.17863" lon="4.39122">
        <ele>950.88</ele>
        <time>2024-11-17T08:43:04Z</time>
      </trkpt>
      <trkpt lat="45.1787" lon="4.39112">
        <ele>948</ele>
        <time>2024-11-17T08:43:14Z</time>
      </trkpt>
      <trkpt lat="45.17874" lon="4.39103">
        <ele>947.04</ele>
        <time>2024-11-17T08:43:22Z</time>
      </trkpt>
      <trkpt lat="45.17883" lon="4.3908">
        <ele>941.27</ele>
        <time>2024-11-17T08:43:39Z</time>
      </trkpt>
      <trkpt lat="45.17892" lon="4.39062">
        <ele>939.83</ele>
        <time>2024-11-17T08:43:55Z</time>
      </trkpt>
      <trkpt lat="45.17892" lon="4.3906">
        <ele>939.83</ele>
        <time>2024-11-17T08:43:56Z</time>
      </trkpt>
      <trkpt lat="45.17896" lon="4.39055">
        <ele>939.35</ele>
        <time>2024-11-17T08:44:00Z</time>
      </trkpt>
      <trkpt lat="45.17902" lon="4.39043">
        <ele>938.38</ele>
        <time>2024-11-17T08:44:07Z</time>
      </trkpt>
      <trkpt lat="45.17913" lon="4.39017">
        <ele>934.06</ele>
        <time>2024-11-17T08:44:22Z</time>
      </trkpt>
      <trkpt lat="45.17926" lon="4.38988">
        <ele>926.37</ele>
        <time>2024-11-17T08:44:39Z</time>
      </trkpt>
      <trkpt lat="45.1794" lon="4.38966">
        <ele>922.52</ele>
        <time>2024-11-17T08:44:56Z</time>
      </trkpt>
      <trkpt lat="45.17955" lon="4.38943">
        <ele>915.31</ele>
        <time>2024-11-17T08:45:10Z</time>
      </trkpt>
      <trkpt lat="45.17974" lon="4.3892">
        <ele>913.39</ele>
        <time>2024-11-17T08:45:29Z</time>
      </trkpt>
      <trkpt lat="45.17988" lon="4.38907">
        <ele>912.91</ele>
        <time>2024-11-17T08:45:42Z</time>
      </trkpt>
      <trkpt lat="45.18002" lon="4.38894">
        <ele>910.99</ele>
        <time>2024-11-17T08:45:57Z</time>
      </trkpt>
      <trkpt lat="45.18018" lon="4.38882">
        <ele>908.1</ele>
        <time>2024-11-17T08:46:10Z</time>
      </trkpt>
      <trkpt lat="45.18036" lon="4.3887">
        <ele>906.66</ele>
        <time>2024-11-17T08:46:24Z</time>
      </trkpt>
      <trkpt lat="45.1804" lon="4.38867">
        <ele>905.7</ele>
        <time>2024-11-17T08:46:27Z</time>
      </trkpt>
      <trkpt lat="45.18058" lon="4.38854">
        <ele>902.33</ele>
        <time>2024-11-17T08:46:42Z</time>
      </trkpt>
      <trkpt lat="45.1806" lon="4.38853">
        <ele>901.85</ele>
        <time>2024-11-17T08:46:45Z</time>
      </trkpt>
      <trkpt lat="45.18074" lon="4.3884">
        <ele>901.37</ele>
        <time>2024-11-17T08:46:59Z</time>
      </trkpt>
      <trkpt lat="45.18082" lon="4.38831">
        <ele>901.85</ele>
        <time>2024-11-17T08:47:07Z</time>
      </trkpt>
      <trkpt lat="45.18095" lon="4.38821">
        <ele>901.85</ele>
        <time>2024-11-17T08:47:19Z</time>
      </trkpt>
      <trkpt lat="45.18109" lon="4.38811">
        <ele>900.89</ele>
        <time>2024-11-17T08:47:30Z</time>
      </trkpt>
      <trkpt lat="45.18126" lon="4.38803">
        <ele>897.05</ele>
        <time>2024-11-17T08:47:44Z</time>
      </trkpt>
      <trkpt lat="45.18135" lon="4.38801">
        <ele>894.64</ele>
        <time>2024-11-17T08:47:53Z</time>
      </trkpt>
      <trkpt lat="45.18139" lon="4.38799">
        <ele>893.68</ele>
        <time>2024-11-17T08:47:57Z</time>
      </trkpt>
      <trkpt lat="45.18153" lon="4.38798">
        <ele>891.76</ele>
        <time>2024-11-17T08:48:11Z</time>
      </trkpt>
      <trkpt lat="45.18155" lon="4.38799">
        <ele>890.8</ele>
        <time>2024-11-17T08:48:13Z</time>
      </trkpt>
      <trkpt lat="45.18167" lon="4.38816">
        <ele>881.67</ele>
        <time>2024-11-17T08:48:31Z</time>
      </trkpt>
      <trkpt lat="45.1817" lon="4.38818">
        <ele>878.3</ele>
        <time>2024-11-17T08:48:44Z</time>
      </trkpt>
      <trkpt lat="45.18172" lon="4.38818">
        <ele>876.38</ele>
        <time>2024-11-17T08:48:56Z</time>
      </trkpt>
      <trkpt lat="45.18169" lon="4.38826">
        <ele>876.38</ele>
        <time>2024-11-17T08:49:11Z</time>
      </trkpt>
      <trkpt lat="45.18166" lon="4.38828">
        <ele>875.42</ele>
        <time>2024-11-17T08:49:16Z</time>
      </trkpt>
      <trkpt lat="45.18168" lon="4.3884">
        <ele>873.01</ele>
        <time>2024-11-17T08:49:28Z</time>
      </trkpt>
      <trkpt lat="45.18173" lon="4.38847">
        <ele>871.57</ele>
        <time>2024-11-17T08:49:43Z</time>
      </trkpt>
      <trkpt lat="45.18174" lon="4.38848">
        <ele>871.09</ele>
        <time>2024-11-17T08:49:46Z</time>
      </trkpt>
      <trkpt lat="45.18182" lon="4.38858">
        <ele>871.09</ele>
        <time>2024-11-17T08:49:59Z</time>
      </trkpt>
      <trkpt lat="45.18185" lon="4.38863">
        <ele>872.05</ele>
        <time>2024-11-17T08:50:11Z</time>
      </trkpt>
      <trkpt lat="45.18184" lon="4.38861">
        <ele>873.01</ele>
        <time>2024-11-17T08:50:19Z</time>
      </trkpt>
      <trkpt lat="45.18168" lon="4.38856">
        <ele>871.57</ele>
        <time>2024-11-17T08:50:37Z</time>
      </trkpt>
      <trkpt lat="45.18156" lon="4.38863">
        <ele>871.57</ele>
        <time>2024-11-17T08:50:50Z</time>
      </trkpt>
      <trkpt lat="45.18146" lon="4.38879">
        <ele>872.53</ele>
        <time>2024-11-17T08:51:03Z</time>
      </trkpt>
      <trkpt lat="45.18131" lon="4.38905">
        <ele>875.9</ele>
        <time>2024-11-17T08:51:22Z</time>
      </trkpt>
      <trkpt lat="45.18113" lon="4.38932">
        <ele>878.3</ele>
        <time>2024-11-17T08:51:42Z</time>
      </trkpt>
      <trkpt lat="45.18096" lon="4.38955">
        <ele>879.74</ele>
        <time>2024-11-17T08:52:00Z</time>
      </trkpt>
      <trkpt lat="45.18076" lon="4.38985">
        <ele>879.74</ele>
        <time>2024-11-17T08:52:21Z</time>
      </trkpt>
      <trkpt lat="45.18057" lon="4.3901">
        <ele>879.74</ele>
        <time>2024-11-17T08:52:41Z</time>
      </trkpt>
      <trkpt lat="45.18042" lon="4.39033">
        <ele>881.19</ele>
        <time>2024-11-17T08:52:58Z</time>
      </trkpt>
      <trkpt lat="45.18031" lon="4.3907">
        <ele>881.67</ele>
        <time>2024-11-17T08:53:18Z</time>
      </trkpt>
      <trkpt lat="45.18039" lon="4.39106">
        <ele>881.19</ele>
        <time>2024-11-17T08:53:36Z</time>
      </trkpt>
      <trkpt lat="45.18042" lon="4.39134">
        <ele>882.63</ele>
        <time>2024-11-17T08:53:52Z</time>
      </trkpt>
      <trkpt lat="45.18039" lon="4.39163">
        <ele>885.03</ele>
        <time>2024-11-17T08:54:08Z</time>
      </trkpt>
      <trkpt lat="45.18031" lon="4.39207">
        <ele>887.43</ele>
        <time>2024-11-17T08:54:32Z</time>
      </trkpt>
      <trkpt lat="45.18022" lon="4.39248">
        <ele>888.4</ele>
        <time>2024-11-17T08:54:54Z</time>
      </trkpt>
      <trkpt lat="45.18017" lon="4.39279">
        <ele>891.28</ele>
        <time>2024-11-17T08:55:12Z</time>
      </trkpt>
      <trkpt lat="45.1801" lon="4.39313">
        <ele>890.32</ele>
        <time>2024-11-17T08:55:31Z</time>
      </trkpt>
      <trkpt lat="45.18003" lon="4.39344">
        <ele>890.32</ele>
        <time>2024-11-17T08:55:49Z</time>
      </trkpt>
      <trkpt lat="45.17993" lon="4.39378">
        <ele>889.84</ele>
        <time>2024-11-17T08:56:08Z</time>
      </trkpt>
      <trkpt lat="45.1799" lon="4.39398">
        <ele>890.32</ele>
        <time>2024-11-17T08:56:24Z</time>
      </trkpt>
      <trkpt lat="45.17998" lon="4.39396">
        <ele>888.4</ele>
        <time>2024-11-17T08:56:33Z</time>
      </trkpt>
      <trkpt lat="45.18007" lon="4.3939">
        <ele>891.28</ele>
        <time>2024-11-17T08:56:47Z</time>
      </trkpt>
      <trkpt lat="45.18015" lon="4.39377">
        <ele>895.12</ele>
        <time>2024-11-17T08:57:01Z</time>
      </trkpt>
      <trkpt lat="45.18024" lon="4.39361">
        <ele>898.01</ele>
        <time>2024-11-17T08:57:16Z</time>
      </trkpt>
      <trkpt lat="45.18031" lon="4.39347">
        <ele>901.37</ele>
        <time>2024-11-17T08:57:30Z</time>
      </trkpt>
      <trkpt lat="45.18038" lon="4.39333">
        <ele>901.85</ele>
        <time>2024-11-17T08:57:43Z</time>
      </trkpt>
      <trkpt lat="45.18044" lon="4.39318">
        <ele>905.22</ele>
        <time>2024-11-17T08:57:55Z</time>
      </trkpt>
      <trkpt lat="45.18053" lon="4.39301">
        <ele>909.06</ele>
        <time>2024-11-17T08:58:09Z</time>
      </trkpt>
      <trkpt lat="45.18061" lon="4.39283">
        <ele>908.58</ele>
        <time>2024-11-17T08:58:21Z</time>
      </trkpt>
      <trkpt lat="45.18071" lon="4.39257">
        <ele>910.03</ele>
        <time>2024-11-17T08:58:36Z</time>
      </trkpt>
      <trkpt lat="45.18075" lon="4.39238">
        <ele>912.43</ele>
        <time>2024-11-17T08:58:51Z</time>
      </trkpt>
      <trkpt lat="45.18076" lon="4.3923">
        <ele>911.95</ele>
        <time>2024-11-17T08:59:01Z</time>
      </trkpt>
      <trkpt lat="45.18079" lon="4.39223">
        <ele>911.95</ele>
        <time>2024-11-17T08:59:05Z</time>
      </trkpt>
      <trkpt lat="45.18086" lon="4.39196">
        <ele>916.75</ele>
        <time>2024-11-17T08:59:21Z</time>
      </trkpt>
      <trkpt lat="45.1809" lon="4.39169">
        <ele>922.04</ele>
        <time>2024-11-17T08:59:39Z</time>
      </trkpt>
      <trkpt lat="45.18095" lon="4.39138">
        <ele>922.04</ele>
        <time>2024-11-17T08:59:55Z</time>
      </trkpt>
      <trkpt lat="45.18098" lon="4.39117">
        <ele>925.41</ele>
        <time>2024-11-17T09:00:09Z</time>
      </trkpt>
      <trkpt lat="45.18106" lon="4.391">
        <ele>928.29</ele>
        <time>2024-11-17T09:00:25Z</time>
      </trkpt>
      <trkpt lat="45.1811" lon="4.39094">
        <ele>929.73</ele>
        <time>2024-11-17T09:00:34Z</time>
      </trkpt>
      <trkpt lat="45.18108" lon="4.39102">
        <ele>929.73</ele>
        <time>2024-11-17T09:00:48Z</time>
      </trkpt>
      <trkpt lat="45.18108" lon="4.39104">
        <ele>930.21</ele>
        <time>2024-11-17T09:00:50Z</time>
      </trkpt>
      <trkpt lat="45.18108" lon="4.39107">
        <ele>930.21</ele>
        <time>2024-11-17T09:00:53Z</time>
      </trkpt>
      <trkpt lat="45.18108" lon="4.39124">
        <ele>930.69</ele>
        <time>2024-11-17T09:01:08Z</time>
      </trkpt>
      <trkpt lat="45.18109" lon="4.39138">
        <ele>932.62</ele>
        <time>2024-11-17T09:01:21Z</time>
      </trkpt>
      <trkpt lat="45.18111" lon="4.39151">
        <ele>935.98</ele>
        <time>2024-11-17T09:01:34Z</time>
      </trkpt>
      <trkpt lat="45.18114" lon="4.39163">
        <ele>938.38</ele>
        <time>2024-11-17T09:01:46Z</time>
      </trkpt>
      <trkpt lat="45.18117" lon="4.39178">
        <ele>940.79</ele>
        <time>2024-11-17T09:01:58Z</time>
      </trkpt>
      <trkpt lat="45.18118" lon="4.39181">
        <ele>941.27</ele>
        <time>2024-11-17T09:02:00Z</time>
      </trkpt>
      <trkpt lat="45.18123" lon="4.392">
        <ele>943.67</ele>
        <time>2024-11-17T09:02:14Z</time>
      </trkpt>
      <trkpt lat="45.18125" lon="4.39212">
        <ele>944.63</ele>
        <time>2024-11-17T09:02:24Z</time>
      </trkpt>
      <trkpt lat="45.18126" lon="4.39232">
        <ele>946.07</ele>
        <time>2024-11-17T09:02:39Z</time>
      </trkpt>
      <trkpt lat="45.18126" lon="4.39235">
        <ele>946.07</ele>
        <time>2024-11-17T09:02:41Z</time>
      </trkpt>
      <trkpt lat="45.18127" lon="4.39263">
        <ele>947.52</ele>
        <time>2024-11-17T09:02:59Z</time>
      </trkpt>
      <trkpt lat="45.18127" lon="4.39265">
        <ele>948</ele>
        <time>2024-11-17T09:03:00Z</time>
      </trkpt>
      <trkpt lat="45.18127" lon="4.39267">
        <ele>948</ele>
        <time>2024-11-17T09:03:02Z</time>
      </trkpt>
      <trkpt lat="45.18129" lon="4.39294">
        <ele>948.48</ele>
        <time>2024-11-17T09:03:19Z</time>
      </trkpt>
      <trkpt lat="45.18131" lon="4.39317">
        <ele>951.36</ele>
        <time>2024-11-17T09:03:33Z</time>
      </trkpt>
      <trkpt lat="45.18134" lon="4.39338">
        <ele>951.84</ele>
        <time>2024-11-17T09:03:46Z</time>
      </trkpt>
      <trkpt lat="45.18135" lon="4.39345">
        <ele>952.8</ele>
        <time>2024-11-17T09:03:51Z</time>
      </trkpt>
      <trkpt lat="45.18141" lon="4.39368">
        <ele>954.73</ele>
        <time>2024-11-17T09:04:07Z</time>
      </trkpt>
      <trkpt lat="45.18143" lon="4.39376">
        <ele>957.13</ele>
        <time>2024-11-17T09:04:12Z</time>
      </trkpt>
      <trkpt lat="45.18144" lon="4.39382">
        <ele>958.09</ele>
        <time>2024-11-17T09:04:17Z</time>
      </trkpt>
      <trkpt lat="45.18144" lon="4.39394">
        <ele>958.09</ele>
        <time>2024-11-17T09:04:24Z</time>
      </trkpt>
      <trkpt lat="45.18148" lon="4.39426">
        <ele>958.57</ele>
        <time>2024-11-17T09:04:43Z</time>
      </trkpt>
      <trkpt lat="45.18154" lon="4.39454">
        <ele>958.57</ele>
        <time>2024-11-17T09:05:01Z</time>
      </trkpt>
      <trkpt lat="45.18154" lon="4.39458">
        <ele>959.05</ele>
        <time>2024-11-17T09:05:05Z</time>
      </trkpt>
      <trkpt lat="45.18149" lon="4.39469">
        <ele>959.53</ele>
        <time>2024-11-17T09:05:15Z</time>
      </trkpt>
      <trkpt lat="45.18137" lon="4.39488">
        <ele>960.01</ele>
        <time>2024-11-17T09:05:31Z</time>
      </trkpt>
      <trkpt lat="45.18123" lon="4.39515">
        <ele>961.94</ele>
        <time>2024-11-17T09:05:50Z</time>
      </trkpt>
      <trkpt lat="45.18113" lon="4.39539">
        <ele>964.82</ele>
        <time>2024-11-17T09:06:07Z</time>
      </trkpt>
      <trkpt lat="45.18104" lon="4.39562">
        <ele>965.78</ele>
        <time>2024-11-17T09:06:23Z</time>
      </trkpt>
      <trkpt lat="45.18094" lon="4.39587">
        <ele>967.7</ele>
        <time>2024-11-17T09:06:39Z</time>
      </trkpt>
      <trkpt lat="45.18086" lon="4.39612">
        <ele>970.11</ele>
        <time>2024-11-17T09:06:54Z</time>
      </trkpt>
      <trkpt lat="45.18079" lon="4.39642">
        <ele>971.55</ele>
        <time>2024-11-17T09:07:12Z</time>
      </trkpt>
      <trkpt lat="45.18073" lon="4.39672">
        <ele>973.95</ele>
        <time>2024-11-17T09:07:30Z</time>
      </trkpt>
      <trkpt lat="45.18065" lon="4.39702">
        <ele>976.36</ele>
        <time>2024-11-17T09:07:48Z</time>
      </trkpt>
      <trkpt lat="45.18056" lon="4.39731">
        <ele>979.24</ele>
        <time>2024-11-17T09:08:05Z</time>
      </trkpt>
      <trkpt lat="45.1805" lon="4.39757">
        <ele>980.68</ele>
        <time>2024-11-17T09:08:20Z</time>
      </trkpt>
      <trkpt lat="45.1805" lon="4.39759">
        <ele>980.68</ele>
        <time>2024-11-17T09:08:21Z</time>
      </trkpt>
      <trkpt lat="45.18044" lon="4.39791">
        <ele>982.12</ele>
        <time>2024-11-17T09:08:39Z</time>
      </trkpt>
      <trkpt lat="45.1804" lon="4.39818">
        <ele>984.53</ele>
        <time>2024-11-17T09:08:55Z</time>
      </trkpt>
      <trkpt lat="45.18036" lon="4.39844">
        <ele>986.45</ele>
        <time>2024-11-17T09:09:10Z</time>
      </trkpt>
      <trkpt lat="45.18032" lon="4.3987">
        <ele>987.41</ele>
        <time>2024-11-17T09:09:27Z</time>
      </trkpt>
      <trkpt lat="45.18031" lon="4.39889">
        <ele>988.85</ele>
        <time>2024-11-17T09:09:39Z</time>
      </trkpt>
      <trkpt lat="45.1803" lon="4.39922">
        <ele>989.33</ele>
        <time>2024-11-17T09:09:57Z</time>
      </trkpt>
      <trkpt lat="45.1803" lon="4.39956">
        <ele>990.78</ele>
        <time>2024-11-17T09:10:15Z</time>
      </trkpt>
      <trkpt lat="45.18032" lon="4.39986">
        <ele>992.22</ele>
        <time>2024-11-17T09:10:32Z</time>
      </trkpt>
      <trkpt lat="45.18035" lon="4.40018">
        <ele>993.66</ele>
        <time>2024-11-17T09:10:50Z</time>
      </trkpt>
      <trkpt lat="45.1804" lon="4.40052">
        <ele>995.1</ele>
        <time>2024-11-17T09:11:09Z</time>
      </trkpt>
      <trkpt lat="45.18046" lon="4.40091">
        <ele>996.54</ele>
        <time>2024-11-17T09:11:30Z</time>
      </trkpt>
      <trkpt lat="45.18054" lon="4.40127">
        <ele>997.99</ele>
        <time>2024-11-17T09:11:50Z</time>
      </trkpt>
      <trkpt lat="45.18064" lon="4.4016">
        <ele>999.43</ele>
        <time>2024-11-17T09:12:09Z</time>
      </trkpt>
      <trkpt lat="45.18077" lon="4.40192">
        <ele>1000.39</ele>
        <time>2024-11-17T09:12:29Z</time>
      </trkpt>
      <trkpt lat="45.18092" lon="4.40219">
        <ele>1000.39</ele>
        <time>2024-11-17T09:12:48Z</time>
      </trkpt>
      <trkpt lat="45.18109" lon="4.40249">
        <ele>999.43</ele>
        <time>2024-11-17T09:13:09Z</time>
      </trkpt>
      <trkpt lat="45.18124" lon="4.40271">
        <ele>998.47</ele>
        <time>2024-11-17T09:13:27Z</time>
      </trkpt>
      <trkpt lat="45.18144" lon="4.40295">
        <ele>998.95</ele>
        <time>2024-11-17T09:13:47Z</time>
      </trkpt>
      <trkpt lat="45.18152" lon="4.40302">
        <ele>998.95</ele>
        <time>2024-11-17T09:13:55Z</time>
      </trkpt>
      <trkpt lat="45.18163" lon="4.40313">
        <ele>998.47</ele>
        <time>2024-11-17T09:14:05Z</time>
      </trkpt>
      <trkpt lat="45.1816" lon="4.40314">
        <ele>997.51</ele>
        <time>2024-11-17T09:14:09Z</time>
      </trkpt>
      <trkpt lat="45.18147" lon="4.40327">
        <ele>995.1</ele>
        <time>2024-11-17T09:14:24Z</time>
      </trkpt>
      <trkpt lat="45.18155" lon="4.40347">
        <ele>992.7</ele>
        <time>2024-11-17T09:14:36Z</time>
      </trkpt>
      <trkpt lat="45.18172" lon="4.40366">
        <ele>991.74</ele>
        <time>2024-11-17T09:14:52Z</time>
      </trkpt>
      <trkpt lat="45.18183" lon="4.40382">
        <ele>991.74</ele>
        <time>2024-11-17T09:15:05Z</time>
      </trkpt>
      <trkpt lat="45.18193" lon="4.40406">
        <ele>990.3</ele>
        <time>2024-11-17T09:15:20Z</time>
      </trkpt>
      <trkpt lat="45.18197" lon="4.40433">
        <ele>988.85</ele>
        <time>2024-11-17T09:15:36Z</time>
      </trkpt>
      <trkpt lat="45.18194" lon="4.40463">
        <ele>987.89</ele>
        <time>2024-11-17T09:15:53Z</time>
      </trkpt>
      <trkpt lat="45.18187" lon="4.40484">
        <ele>988.85</ele>
        <time>2024-11-17T09:16:10Z</time>
      </trkpt>
      <trkpt lat="45.18186" lon="4.40485">
        <ele>988.85</ele>
        <time>2024-11-17T09:16:11Z</time>
      </trkpt>
      <trkpt lat="45.1817" lon="4.40502">
        <ele>988.37</ele>
        <time>2024-11-17T09:16:30Z</time>
      </trkpt>
      <trkpt lat="45.18154" lon="4.40515">
        <ele>986.45</ele>
        <time>2024-11-17T09:16:47Z</time>
      </trkpt>
      <trkpt lat="45.18137" lon="4.40519">
        <ele>982.6</ele>
        <time>2024-11-17T09:17:02Z</time>
      </trkpt>
      <trkpt lat="45.18115" lon="4.40521">
        <ele>978.28</ele>
        <time>2024-11-17T09:17:21Z</time>
      </trkpt>
      <trkpt lat="45.18094" lon="4.40524">
        <ele>974.43</ele>
        <time>2024-11-17T09:17:40Z</time>
      </trkpt>
      <trkpt lat="45.18069" lon="4.4053">
        <ele>970.59</ele>
        <time>2024-11-17T09:18:01Z</time>
      </trkpt>
      <trkpt lat="45.18049" lon="4.40534">
        <ele>967.7</ele>
        <time>2024-11-17T09:18:18Z</time>
      </trkpt>
      <trkpt lat="45.18029" lon="4.40541">
        <ele>965.3</ele>
        <time>2024-11-17T09:18:36Z</time>
      </trkpt>
      <trkpt lat="45.18008" lon="4.40544">
        <ele>963.38</ele>
        <time>2024-11-17T09:18:54Z</time>
      </trkpt>
      <trkpt lat="45.1799" lon="4.40542">
        <ele>961.94</ele>
        <time>2024-11-17T09:19:10Z</time>
      </trkpt>
      <trkpt lat="45.17989" lon="4.40541">
        <ele>961.46</ele>
        <time>2024-11-17T09:19:12Z</time>
      </trkpt>
      <trkpt lat="45.17984" lon="4.40539">
        <ele>960.98</ele>
        <time>2024-11-17T09:19:17Z</time>
      </trkpt>
      <trkpt lat="45.17977" lon="4.40535">
        <ele>960.01</ele>
        <time>2024-11-17T09:19:24Z</time>
      </trkpt>
      <trkpt lat="45.17967" lon="4.40525">
        <ele>958.57</ele>
        <time>2024-11-17T09:19:35Z</time>
      </trkpt>
      <trkpt lat="45.17946" lon="4.40519">
        <ele>954.73</ele>
        <time>2024-11-17T09:19:52Z</time>
      </trkpt>
      <trkpt lat="45.17925" lon="4.40516">
        <ele>953.77</ele>
        <time>2024-11-17T09:20:09Z</time>
      </trkpt>
      <trkpt lat="45.17907" lon="4.40514">
        <ele>952.8</ele>
        <time>2024-11-17T09:20:25Z</time>
      </trkpt>
      <trkpt lat="45.17889" lon="4.40509">
        <ele>950.88</ele>
        <time>2024-11-17T09:20:41Z</time>
      </trkpt>
      <trkpt lat="45.17873" lon="4.40504">
        <ele>948.48</ele>
        <time>2024-11-17T09:20:56Z</time>
      </trkpt>
      <trkpt lat="45.17866" lon="4.40492">
        <ele>945.59</ele>
        <time>2024-11-17T09:21:08Z</time>
      </trkpt>
      <trkpt lat="45.17856" lon="4.40486">
        <ele>944.15</ele>
        <time>2024-11-17T09:21:19Z</time>
      </trkpt>
      <trkpt lat="45.17838" lon="4.40491">
        <ele>941.27</ele>
        <time>2024-11-17T09:21:35Z</time>
      </trkpt>
      <trkpt lat="45.17827" lon="4.40509">
        <ele>941.27</ele>
        <time>2024-11-17T09:21:53Z</time>
      </trkpt>
      <trkpt lat="45.17824" lon="4.4052">
        <ele>941.27</ele>
        <time>2024-11-17T09:22:04Z</time>
      </trkpt>
      <trkpt lat="45.17819" lon="4.40523">
        <ele>940.79</ele>
        <time>2024-11-17T09:22:11Z</time>
      </trkpt>
      <trkpt lat="45.17816" lon="4.40522">
        <ele>939.83</ele>
        <time>2024-11-17T09:22:14Z</time>
      </trkpt>
      <trkpt lat="45.17813" lon="4.4052">
        <ele>938.86</ele>
        <time>2024-11-17T09:22:17Z</time>
      </trkpt>
      <trkpt lat="45.17807" lon="4.40512">
        <ele>937.42</ele>
        <time>2024-11-17T09:22:25Z</time>
      </trkpt>
      <trkpt lat="45.17804" lon="4.40509">
        <ele>936.94</ele>
        <time>2024-11-17T09:22:29Z</time>
      </trkpt>
      <trkpt lat="45.17795" lon="4.40494">
        <ele>933.58</ele>
        <time>2024-11-17T09:22:44Z</time>
      </trkpt>
      <trkpt lat="45.17795" lon="4.40488">
        <ele>933.1</ele>
        <time>2024-11-17T09:22:48Z</time>
      </trkpt>
      <trkpt lat="45.17793" lon="4.40469">
        <ele>934.06</ele>
        <time>2024-11-17T09:23:02Z</time>
      </trkpt>
      <trkpt lat="45.17786" lon="4.40461">
        <ele>932.62</ele>
        <time>2024-11-17T09:23:12Z</time>
      </trkpt>
      <trkpt lat="45.1778" lon="4.40462">
        <ele>930.21</ele>
        <time>2024-11-17T09:23:18Z</time>
      </trkpt>
      <trkpt lat="45.17776" lon="4.40465">
        <ele>929.25</ele>
        <time>2024-11-17T09:23:22Z</time>
      </trkpt>
      <trkpt lat="45.17772" lon="4.40468">
        <ele>928.77</ele>
        <time>2024-11-17T09:23:26Z</time>
      </trkpt>
      <trkpt lat="45.17766" lon="4.40476">
        <ele>927.33</ele>
        <time>2024-11-17T09:23:33Z</time>
      </trkpt>
      <trkpt lat="45.17764" lon="4.40485">
        <ele>927.33</ele>
        <time>2024-11-17T09:23:39Z</time>
      </trkpt>
      <trkpt lat="45.17765" lon="4.40504">
        <ele>926.85</ele>
        <time>2024-11-17T09:23:52Z</time>
      </trkpt>
      <trkpt lat="45.17771" lon="4.40521">
        <ele>924.93</ele>
        <time>2024-11-17T09:24:03Z</time>
      </trkpt>
      <trkpt lat="45.17782" lon="4.40544">
        <ele>923</ele>
        <time>2024-11-17T09:24:20Z</time>
      </trkpt>
      <trkpt lat="45.17787" lon="4.40556">
        <ele>921.56</ele>
        <time>2024-11-17T09:24:36Z</time>
      </trkpt>
      <trkpt lat="45.1778" lon="4.40553">
        <ele>917.24</ele>
        <time>2024-11-17T09:24:48Z</time>
      </trkpt>
      <trkpt lat="45.17771" lon="4.40545">
        <ele>913.87</ele>
        <time>2024-11-17T09:25:02Z</time>
      </trkpt>
      <trkpt lat="45.17766" lon="4.40536">
        <ele>913.39</ele>
        <time>2024-11-17T09:25:11Z</time>
      </trkpt>
      <trkpt lat="45.17751" lon="4.40519">
        <ele>914.35</ele>
        <time>2024-11-17T09:25:27Z</time>
      </trkpt>
      <trkpt lat="45.17751" lon="4.40518">
        <ele>914.35</ele>
        <time>2024-11-17T09:25:28Z</time>
      </trkpt>
      <trkpt lat="45.17744" lon="4.40502">
        <ele>912.91</ele>
        <time>2024-11-17T09:25:43Z</time>
      </trkpt>
      <trkpt lat="45.17735" lon="4.40483">
        <ele>910.03</ele>
        <time>2024-11-17T09:25:57Z</time>
      </trkpt>
      <trkpt lat="45.17734" lon="4.40477">
        <ele>909.54</ele>
        <time>2024-11-17T09:26:01Z</time>
      </trkpt>
      <trkpt lat="45.17732" lon="4.40467">
        <ele>907.62</ele>
        <time>2024-11-17T09:26:10Z</time>
      </trkpt>
      <trkpt lat="45.17732" lon="4.40462">
        <ele>907.14</ele>
        <time>2024-11-17T09:26:13Z</time>
      </trkpt>
      <trkpt lat="45.17728" lon="4.40446">
        <ele>904.74</ele>
        <time>2024-11-17T09:26:25Z</time>
      </trkpt>
      <trkpt lat="45.17728" lon="4.40443">
        <ele>904.26</ele>
        <time>2024-11-17T09:26:27Z</time>
      </trkpt>
      <trkpt lat="45.17727" lon="4.40425">
        <ele>901.37</ele>
        <time>2024-11-17T09:26:42Z</time>
      </trkpt>
      <trkpt lat="45.17727" lon="4.40414">
        <ele>901.37</ele>
        <time>2024-11-17T09:26:56Z</time>
      </trkpt>
      <trkpt lat="45.17729" lon="4.40402">
        <ele>900.41</ele>
        <time>2024-11-17T09:27:11Z</time>
      </trkpt>
      <trkpt lat="45.1773" lon="4.40393">
        <ele>899.93</ele>
        <time>2024-11-17T09:27:24Z</time>
      </trkpt>
      <trkpt lat="45.1773" lon="4.4039">
        <ele>898.01</ele>
        <time>2024-11-17T09:27:35Z</time>
      </trkpt>
      <trkpt lat="45.17728" lon="4.40385">
        <ele>896.09</ele>
        <time>2024-11-17T09:27:48Z</time>
      </trkpt>
      <trkpt lat="45.17727" lon="4.40385">
        <ele>895.61</ele>
        <time>2024-11-17T09:27:50Z</time>
      </trkpt>
      <trkpt lat="45.1772" lon="4.40381">
        <ele>895.12</ele>
        <time>2024-11-17T09:28:02Z</time>
      </trkpt>
      <trkpt lat="45.17715" lon="4.40379">
        <ele>895.61</ele>
        <time>2024-11-17T09:28:08Z</time>
      </trkpt>
      <trkpt lat="45.17706" lon="4.40381">
        <ele>896.57</ele>
        <time>2024-11-17T09:28:21Z</time>
      </trkpt>
      <trkpt lat="45.17706" lon="4.40382">
        <ele>896.57</ele>
        <time>2024-11-17T09:28:22Z</time>
      </trkpt>
      <trkpt lat="45.17706" lon="4.40381">
        <ele>896.57</ele>
        <time>2024-11-17T09:28:32Z</time>
      </trkpt>
      <trkpt lat="45.17704" lon="4.4038">
        <ele>896.57</ele>
        <time>2024-11-17T09:28:46Z</time>
      </trkpt>
      <trkpt lat="45.17703" lon="4.40383">
        <ele>896.09</ele>
        <time>2024-11-17T09:28:56Z</time>
      </trkpt>
      <trkpt lat="45.17702" lon="4.40383">
        <ele>897.53</ele>
        <time>2024-11-17T09:29:08Z</time>
      </trkpt>
      <trkpt lat="45.17701" lon="4.40387">
        <ele>898.01</ele>
        <time>2024-11-17T09:29:22Z</time>
      </trkpt>
      <trkpt lat="45.17703" lon="4.40392">
        <ele>896.57</ele>
        <time>2024-11-17T09:29:35Z</time>
      </trkpt>
      <trkpt lat="45.17703" lon="4.40397">
        <ele>897.05</ele>
        <time>2024-11-17T09:29:39Z</time>
      </trkpt>
      <trkpt lat="45.177" lon="4.40418">
        <ele>898.01</ele>
        <time>2024-11-17T09:29:55Z</time>
      </trkpt>
      <trkpt lat="45.17699" lon="4.40422">
        <ele>898.01</ele>
        <time>2024-11-17T09:29:58Z</time>
      </trkpt>
      <trkpt lat="45.17699" lon="4.40428">
        <ele>898.01</ele>
        <time>2024-11-17T09:30:02Z</time>
      </trkpt>
      <trkpt lat="45.17697" lon="4.40461">
        <ele>899.45</ele>
        <time>2024-11-17T09:30:21Z</time>
      </trkpt>
      <trkpt lat="45.177" lon="4.40493">
        <ele>900.89</ele>
        <time>2024-11-17T09:30:39Z</time>
      </trkpt>
      <trkpt lat="45.17697" lon="4.40514">
        <ele>901.85</ele>
        <time>2024-11-17T09:30:53Z</time>
      </trkpt>
      <trkpt lat="45.17694" lon="4.40519">
        <ele>901.85</ele>
        <time>2024-11-17T09:30:57Z</time>
      </trkpt>
      <trkpt lat="45.17679" lon="4.40539">
        <ele>901.85</ele>
        <time>2024-11-17T09:31:14Z</time>
      </trkpt>
      <trkpt lat="45.17672" lon="4.40545">
        <ele>900.41</ele>
        <time>2024-11-17T09:31:25Z</time>
      </trkpt>
      <trkpt lat="45.17657" lon="4.40553">
        <ele>900.41</ele>
        <time>2024-11-17T09:31:39Z</time>
      </trkpt>
      <trkpt lat="45.17654" lon="4.40553">
        <ele>900.41</ele>
        <time>2024-11-17T09:31:43Z</time>
      </trkpt>
      <trkpt lat="45.17654" lon="4.40571">
        <ele>900.41</ele>
        <time>2024-11-17T09:31:54Z</time>
      </trkpt>
      <trkpt lat="45.1766" lon="4.40589">
        <ele>901.37</ele>
        <time>2024-11-17T09:32:09Z</time>
      </trkpt>
      <trkpt lat="45.17663" lon="4.40594">
        <ele>901.85</ele>
        <time>2024-11-17T09:32:14Z</time>
      </trkpt>
      <trkpt lat="45.17673" lon="4.40617">
        <ele>904.26</ele>
        <time>2024-11-17T09:32:31Z</time>
      </trkpt>
      <trkpt lat="45.17685" lon="4.40642">
        <ele>906.18</ele>
        <time>2024-11-17T09:32:49Z</time>
      </trkpt>
      <trkpt lat="45.17694" lon="4.40667">
        <ele>909.54</ele>
        <time>2024-11-17T09:33:06Z</time>
      </trkpt>
      <trkpt lat="45.17698" lon="4.40684">
        <ele>912.43</ele>
        <time>2024-11-17T09:33:18Z</time>
      </trkpt>
      <trkpt lat="45.17698" lon="4.4069">
        <ele>913.87</ele>
        <time>2024-11-17T09:33:22Z</time>
      </trkpt>
      <trkpt lat="45.17698" lon="4.40697">
        <ele>915.79</ele>
        <time>2024-11-17T09:33:27Z</time>
      </trkpt>
      <trkpt lat="45.17699" lon="4.40704">
        <ele>916.75</ele>
        <time>2024-11-17T09:33:32Z</time>
      </trkpt>
      <trkpt lat="45.17699" lon="4.40706">
        <ele>918.2</ele>
        <time>2024-11-17T09:33:34Z</time>
      </trkpt>
      <trkpt lat="45.17698" lon="4.40713">
        <ele>920.12</ele>
        <time>2024-11-17T09:33:39Z</time>
      </trkpt>
      <trkpt lat="45.17695" lon="4.40719">
        <ele>921.56</ele>
        <time>2024-11-17T09:33:44Z</time>
      </trkpt>
      <trkpt lat="45.17691" lon="4.40718">
        <ele>922.04</ele>
        <time>2024-11-17T09:33:50Z</time>
      </trkpt>
      <trkpt lat="45.17679" lon="4.40701">
        <ele>923</ele>
        <time>2024-11-17T09:34:07Z</time>
      </trkpt>
      <trkpt lat="45.17663" lon="4.40689">
        <ele>923</ele>
        <time>2024-11-17T09:34:23Z</time>
      </trkpt>
      <trkpt lat="45.17651" lon="4.40684">
        <ele>923.48</ele>
        <time>2024-11-17T09:34:33Z</time>
      </trkpt>
      <trkpt lat="45.17638" lon="4.40677">
        <ele>926.37</ele>
        <time>2024-11-17T09:34:47Z</time>
      </trkpt>
      <trkpt lat="45.17634" lon="4.40673">
        <ele>928.29</ele>
        <time>2024-11-17T09:34:53Z</time>
      </trkpt>
      <trkpt lat="45.17618" lon="4.40663">
        <ele>928.29</ele>
        <time>2024-11-17T09:35:09Z</time>
      </trkpt>
      <trkpt lat="45.17604" lon="4.40656">
        <ele>930.21</ele>
        <time>2024-11-17T09:35:22Z</time>
      </trkpt>
      <trkpt lat="45.17602" lon="4.40656">
        <ele>930.21</ele>
        <time>2024-11-17T09:35:24Z</time>
      </trkpt>
      <trkpt lat="45.17595" lon="4.40661">
        <ele>932.14</ele>
        <time>2024-11-17T09:35:31Z</time>
      </trkpt>
      <trkpt lat="45.17592" lon="4.40666">
        <ele>933.1</ele>
        <time>2024-11-17T09:35:35Z</time>
      </trkpt>
      <trkpt lat="45.17596" lon="4.40688">
        <ele>938.38</ele>
        <time>2024-11-17T09:35:51Z</time>
      </trkpt>
      <trkpt lat="45.17596" lon="4.4069">
        <ele>938.38</ele>
        <time>2024-11-17T09:35:52Z</time>
      </trkpt>
      <trkpt lat="45.17595" lon="4.40693">
        <ele>939.35</ele>
        <time>2024-11-17T09:35:55Z</time>
      </trkpt>
      <trkpt lat="45.17578" lon="4.40703">
        <ele>943.67</ele>
        <time>2024-11-17T09:36:13Z</time>
      </trkpt>
      <trkpt lat="45.17559" lon="4.40713">
        <ele>945.59</ele>
        <time>2024-11-17T09:36:29Z</time>
      </trkpt>
      <trkpt lat="45.17542" lon="4.40726">
        <ele>948.96</ele>
        <time>2024-11-17T09:36:46Z</time>
      </trkpt>
      <trkpt lat="45.17535" lon="4.40733">
        <ele>949.92</ele>
        <time>2024-11-17T09:36:54Z</time>
      </trkpt>
      <trkpt lat="45.17536" lon="4.40742">
        <ele>950.4</ele>
        <time>2024-11-17T09:37:02Z</time>
      </trkpt>
      <trkpt lat="45.17548" lon="4.40757">
        <ele>952.8</ele>
        <time>2024-11-17T09:37:18Z</time>
      </trkpt>
      <trkpt lat="45.17561" lon="4.40773">
        <ele>955.69</ele>
        <time>2024-11-17T09:37:34Z</time>
      </trkpt>
      <trkpt lat="45.17564" lon="4.40779">
        <ele>956.17</ele>
        <time>2024-11-17T09:37:39Z</time>
      </trkpt>
      <trkpt lat="45.17566" lon="4.40786">
        <ele>957.13</ele>
        <time>2024-11-17T09:37:44Z</time>
      </trkpt>
      <trkpt lat="45.17566" lon="4.40793">
        <ele>958.57</ele>
        <time>2024-11-17T09:37:49Z</time>
      </trkpt>
      <trkpt lat="45.17565" lon="4.40804">
        <ele>959.53</ele>
        <time>2024-11-17T09:37:56Z</time>
      </trkpt>
      <trkpt lat="45.17562" lon="4.40811">
        <ele>960.01</ele>
        <time>2024-11-17T09:38:01Z</time>
      </trkpt>
      <trkpt lat="45.17553" lon="4.40832">
        <ele>964.34</ele>
        <time>2024-11-17T09:38:18Z</time>
      </trkpt>
      <trkpt lat="45.17549" lon="4.40845">
        <ele>968.18</ele>
        <time>2024-11-17T09:38:28Z</time>
      </trkpt>
      <trkpt lat="45.17548" lon="4.40847">
        <ele>968.67</ele>
        <time>2024-11-17T09:38:30Z</time>
      </trkpt>
      <trkpt lat="45.17538" lon="4.40863">
        <ele>973.47</ele>
        <time>2024-11-17T09:38:46Z</time>
      </trkpt>
      <trkpt lat="45.17531" lon="4.40877">
        <ele>976.84</ele>
        <time>2024-11-17T09:38:59Z</time>
      </trkpt>
      <trkpt lat="45.17528" lon="4.40886">
        <ele>977.32</ele>
        <time>2024-11-17T09:39:05Z</time>
      </trkpt>
      <trkpt lat="45.17525" lon="4.40899">
        <ele>979.72</ele>
        <time>2024-11-17T09:39:15Z</time>
      </trkpt>
      <trkpt lat="45.17527" lon="4.40918">
        <ele>982.12</ele>
        <time>2024-11-17T09:39:29Z</time>
      </trkpt>
      <trkpt lat="45.17528" lon="4.40928">
        <ele>983.57</ele>
        <time>2024-11-17T09:39:35Z</time>
      </trkpt>
      <trkpt lat="45.17531" lon="4.40945">
        <ele>985.97</ele>
        <time>2024-11-17T09:39:46Z</time>
      </trkpt>
      <trkpt lat="45.17533" lon="4.40949">
        <ele>986.45</ele>
        <time>2024-11-17T09:39:49Z</time>
      </trkpt>
      <trkpt lat="45.17534" lon="4.40954">
        <ele>986.93</ele>
        <time>2024-11-17T09:39:52Z</time>
      </trkpt>
      <trkpt lat="45.17535" lon="4.40977">
        <ele>990.78</ele>
        <time>2024-11-17T09:40:07Z</time>
      </trkpt>
      <trkpt lat="45.17535" lon="4.41004">
        <ele>992.7</ele>
        <time>2024-11-17T09:40:24Z</time>
      </trkpt>
      <trkpt lat="45.17533" lon="4.41033">
        <ele>994.14</ele>
        <time>2024-11-17T09:40:41Z</time>
      </trkpt>
      <trkpt lat="45.17526" lon="4.41059">
        <ele>995.1</ele>
        <time>2024-11-17T09:40:57Z</time>
      </trkpt>
      <trkpt lat="45.17517" lon="4.41082">
        <ele>995.58</ele>
        <time>2024-11-17T09:41:12Z</time>
      </trkpt>
      <trkpt lat="45.17515" lon="4.41085">
        <ele>996.06</ele>
        <time>2024-11-17T09:41:15Z</time>
      </trkpt>
      <trkpt lat="45.17505" lon="4.41113">
        <ele>997.02</ele>
        <time>2024-11-17T09:41:32Z</time>
      </trkpt>
      <trkpt lat="45.17497" lon="4.41137">
        <ele>998.47</ele>
        <time>2024-11-17T09:41:47Z</time>
      </trkpt>
      <trkpt lat="45.17487" lon="4.41164">
        <ele>1002.79</ele>
        <time>2024-11-17T09:42:03Z</time>
      </trkpt>
      <trkpt lat="45.17485" lon="4.41176">
        <ele>1004.23</ele>
        <time>2024-11-17T09:42:10Z</time>
      </trkpt>
      <trkpt lat="45.17478" lon="4.41196">
        <ele>1005.68</ele>
        <time>2024-11-17T09:42:23Z</time>
      </trkpt>
      <trkpt lat="45.17472" lon="4.41214">
        <ele>1007.6</ele>
        <time>2024-11-17T09:42:36Z</time>
      </trkpt>
      <trkpt lat="45.17467" lon="4.41238">
        <ele>1010.96</ele>
        <time>2024-11-17T09:42:51Z</time>
      </trkpt>
      <trkpt lat="45.17459" lon="4.41264">
        <ele>1012.89</ele>
        <time>2024-11-17T09:43:08Z</time>
      </trkpt>
      <trkpt lat="45.17453" lon="4.41281">
        <ele>1014.33</ele>
        <time>2024-11-17T09:43:18Z</time>
      </trkpt>
      <trkpt lat="45.17444" lon="4.41304">
        <ele>1017.21</ele>
        <time>2024-11-17T09:43:34Z</time>
      </trkpt>
      <trkpt lat="45.17434" lon="4.4132">
        <ele>1019.62</ele>
        <time>2024-11-17T09:43:48Z</time>
      </trkpt>
      <trkpt lat="45.17423" lon="4.41336">
        <ele>1021.54</ele>
        <time>2024-11-17T09:44:02Z</time>
      </trkpt>
      <trkpt lat="45.1741" lon="4.41354">
        <ele>1025.86</ele>
        <time>2024-11-17T09:44:17Z</time>
      </trkpt>
      <trkpt lat="45.17388" lon="4.41377">
        <ele>1024.42</ele>
        <time>2024-11-17T09:44:35Z</time>
      </trkpt>
      <trkpt lat="45.17374" lon="4.41396">
        <ele>1021.06</ele>
        <time>2024-11-17T09:44:49Z</time>
      </trkpt>
      <trkpt lat="45.1737" lon="4.41401">
        <ele>1020.1</ele>
        <time>2024-11-17T09:44:53Z</time>
      </trkpt>
      <trkpt lat="45.17353" lon="4.41424">
        <ele>1017.21</ele>
        <time>2024-11-17T09:45:11Z</time>
      </trkpt>
      <trkpt lat="45.17339" lon="4.41439">
        <ele>1016.73</ele>
        <time>2024-11-17T09:45:26Z</time>
      </trkpt>
      <trkpt lat="45.17324" lon="4.41461">
        <ele>1015.29</ele>
        <time>2024-11-17T09:45:43Z</time>
      </trkpt>
      <trkpt lat="45.17314" lon="4.41478">
        <ele>1014.33</ele>
        <time>2024-11-17T09:45:57Z</time>
      </trkpt>
      <trkpt lat="45.17301" lon="4.41495">
        <ele>1016.73</ele>
        <time>2024-11-17T09:46:14Z</time>
      </trkpt>
      <trkpt lat="45.17279" lon="4.41516">
        <ele>1015.77</ele>
        <time>2024-11-17T09:46:32Z</time>
      </trkpt>
      <trkpt lat="45.17256" lon="4.41537">
        <ele>1014.81</ele>
        <time>2024-11-17T09:46:50Z</time>
      </trkpt>
      <trkpt lat="45.17242" lon="4.41553">
        <ele>1015.29</ele>
        <time>2024-11-17T09:47:03Z</time>
      </trkpt>
      <trkpt lat="45.17233" lon="4.41565">
        <ele>1016.73</ele>
        <time>2024-11-17T09:47:13Z</time>
      </trkpt>
      <trkpt lat="45.17217" lon="4.41585">
        <ele>1018.17</ele>
        <time>2024-11-17T09:47:31Z</time>
      </trkpt>
      <trkpt lat="45.17208" lon="4.41598">
        <ele>1018.17</ele>
        <time>2024-11-17T09:47:42Z</time>
      </trkpt>
      <trkpt lat="45.17195" lon="4.41614">
        <ele>1019.62</ele>
        <time>2024-11-17T09:47:57Z</time>
      </trkpt>
      <trkpt lat="45.17185" lon="4.41629">
        <ele>1022.02</ele>
        <time>2024-11-17T09:48:12Z</time>
      </trkpt>
      <trkpt lat="45.17173" lon="4.41646">
        <ele>1024.42</ele>
        <time>2024-11-17T09:48:26Z</time>
      </trkpt>
      <trkpt lat="45.1717" lon="4.41648">
        <ele>1024.9</ele>
        <time>2024-11-17T09:48:29Z</time>
      </trkpt>
      <trkpt lat="45.17158" lon="4.41664">
        <ele>1026.83</ele>
        <time>2024-11-17T09:48:46Z</time>
      </trkpt>
      <trkpt lat="45.17144" lon="4.4168">
        <ele>1029.71</ele>
        <time>2024-11-17T09:49:01Z</time>
      </trkpt>
      <trkpt lat="45.17136" lon="4.41689">
        <ele>1030.67</ele>
        <time>2024-11-17T09:49:10Z</time>
      </trkpt>
      <trkpt lat="45.17134" lon="4.41691">
        <ele>1031.15</ele>
        <time>2024-11-17T09:49:13Z</time>
      </trkpt>
      <trkpt lat="45.17122" lon="4.4171">
        <ele>1033.07</ele>
        <time>2024-11-17T09:49:28Z</time>
      </trkpt>
      <trkpt lat="45.17118" lon="4.41714">
        <ele>1033.55</ele>
        <time>2024-11-17T09:49:32Z</time>
      </trkpt>
      <trkpt lat="45.17102" lon="4.41736">
        <ele>1035.48</ele>
        <time>2024-11-17T09:49:50Z</time>
      </trkpt>
      <trkpt lat="45.17091" lon="4.41755">
        <ele>1037.4</ele>
        <time>2024-11-17T09:50:05Z</time>
      </trkpt>
      <trkpt lat="45.17085" lon="4.41771">
        <ele>1037.4</ele>
        <time>2024-11-17T09:50:16Z</time>
      </trkpt>
      <trkpt lat="45.17082" lon="4.41779">
        <ele>1037.88</ele>
        <time>2024-11-17T09:50:22Z</time>
      </trkpt>
      <trkpt lat="45.17072" lon="4.41805">
        <ele>1038.84</ele>
        <time>2024-11-17T09:50:39Z</time>
      </trkpt>
      <trkpt lat="45.17069" lon="4.41811">
        <ele>1039.32</ele>
        <time>2024-11-17T09:50:44Z</time>
      </trkpt>
      <trkpt lat="45.17059" lon="4.4183">
        <ele>1040.28</ele>
        <time>2024-11-17T09:50:59Z</time>
      </trkpt>
      <trkpt lat="45.17051" lon="4.41856">
        <ele>1039.8</ele>
        <time>2024-11-17T09:51:17Z</time>
      </trkpt>
      <trkpt lat="45.17047" lon="4.41872">
        <ele>1040.76</ele>
        <time>2024-11-17T09:51:29Z</time>
      </trkpt>
      <trkpt lat="45.17043" lon="4.41895">
        <ele>1041.73</ele>
        <time>2024-11-17T09:51:44Z</time>
      </trkpt>
      <trkpt lat="45.1704" lon="4.41919">
        <ele>1043.65</ele>
        <time>2024-11-17T09:51:59Z</time>
      </trkpt>
      <trkpt lat="45.17037" lon="4.41948">
        <ele>1047.01</ele>
        <time>2024-11-17T09:52:16Z</time>
      </trkpt>
      <trkpt lat="45.17035" lon="4.4196">
        <ele>1046.05</ele>
        <time>2024-11-17T09:52:28Z</time>
      </trkpt>
      <trkpt lat="45.17039" lon="4.41964">
        <ele>1043.17</ele>
        <time>2024-11-17T09:52:40Z</time>
      </trkpt>
      <trkpt lat="45.1704" lon="4.41967">
        <ele>1042.21</ele>
        <time>2024-11-17T09:52:51Z</time>
      </trkpt>
      <trkpt lat="45.17041" lon="4.4196">
        <ele>1041.25</ele>
        <time>2024-11-17T09:53:08Z</time>
      </trkpt>
      <trkpt lat="45.1704" lon="4.41961">
        <ele>1042.69</ele>
        <time>2024-11-17T09:53:25Z</time>
      </trkpt>
      <trkpt lat="45.17037" lon="4.41963">
        <ele>1041.25</ele>
        <time>2024-11-17T09:53:39Z</time>
      </trkpt>
      <trkpt lat="45.17035" lon="4.41963">
        <ele>1043.17</ele>
        <time>2024-11-17T09:54:03Z</time>
      </trkpt>
      <trkpt lat="45.17034" lon="4.41964">
        <ele>1042.21</ele>
        <time>2024-11-17T09:54:21Z</time>
      </trkpt>
      <trkpt lat="45.17033" lon="4.41965">
        <ele>1043.17</ele>
        <time>2024-11-17T09:54:47Z</time>
      </trkpt>
      <trkpt lat="45.17035" lon="4.41966">
        <ele>1043.65</ele>
        <time>2024-11-17T09:55:12Z</time>
      </trkpt>
      <trkpt lat="45.1703" lon="4.41974">
        <ele>1042.21</ele>
        <time>2024-11-17T09:55:26Z</time>
      </trkpt>
      <trkpt lat="45.17022" lon="4.41975">
        <ele>1043.17</ele>
        <time>2024-11-17T09:55:38Z</time>
      </trkpt>
      <trkpt lat="45.17019" lon="4.41976">
        <ele>1043.17</ele>
        <time>2024-11-17T09:55:42Z</time>
      </trkpt>
      <trkpt lat="45.17" lon="4.41975">
        <ele>1041.73</ele>
        <time>2024-11-17T09:56:03Z</time>
      </trkpt>
      <trkpt lat="45.16981" lon="4.41981">
        <ele>1038.84</ele>
        <time>2024-11-17T09:56:18Z</time>
      </trkpt>
      <trkpt lat="45.16961" lon="4.41989">
        <ele>1035.48</ele>
        <time>2024-11-17T09:56:35Z</time>
      </trkpt>
      <trkpt lat="45.16944" lon="4.41998">
        <ele>1031.63</ele>
        <time>2024-11-17T09:56:51Z</time>
      </trkpt>
      <trkpt lat="45.16926" lon="4.42007">
        <ele>1028.75</ele>
        <time>2024-11-17T09:57:07Z</time>
      </trkpt>
      <trkpt lat="45.16909" lon="4.42008">
        <ele>1025.86</ele>
        <time>2024-11-17T09:57:22Z</time>
      </trkpt>
      <trkpt lat="45.16897" lon="4.42007">
        <ele>1022.5</ele>
        <time>2024-11-17T09:57:34Z</time>
      </trkpt>
      <trkpt lat="45.16878" lon="4.42005">
        <ele>1019.13</ele>
        <time>2024-11-17T09:57:51Z</time>
      </trkpt>
      <trkpt lat="45.16857" lon="4.42">
        <ele>1016.73</ele>
        <time>2024-11-17T09:58:08Z</time>
      </trkpt>
      <trkpt lat="45.16838" lon="4.41981">
        <ele>1015.77</ele>
        <time>2024-11-17T09:58:27Z</time>
      </trkpt>
      <trkpt lat="45.16828" lon="4.41967">
        <ele>1014.81</ele>
        <time>2024-11-17T09:58:40Z</time>
      </trkpt>
      <trkpt lat="45.1681" lon="4.41956">
        <ele>1012.89</ele>
        <time>2024-11-17T09:58:57Z</time>
      </trkpt>
      <trkpt lat="45.16792" lon="4.41947">
        <ele>1014.33</ele>
        <time>2024-11-17T09:59:16Z</time>
      </trkpt>
      <trkpt lat="45.16776" lon="4.41944">
        <ele>1015.29</ele>
        <time>2024-11-17T09:59:32Z</time>
      </trkpt>
      <trkpt lat="45.16768" lon="4.41943">
        <ele>1015.29</ele>
        <time>2024-11-17T09:59:39Z</time>
      </trkpt>
      <trkpt lat="45.16749" lon="4.41943">
        <ele>1013.85</ele>
        <time>2024-11-17T09:59:55Z</time>
      </trkpt>
      <trkpt lat="45.16735" lon="4.41946">
        <ele>1014.81</ele>
        <time>2024-11-17T10:00:08Z</time>
      </trkpt>
      <trkpt lat="45.16725" lon="4.41943">
        <ele>1013.37</ele>
        <time>2024-11-17T10:00:15Z</time>
      </trkpt>
      <trkpt lat="45.16712" lon="4.41944">
        <ele>1012.89</ele>
        <time>2024-11-17T10:00:30Z</time>
      </trkpt>
      <trkpt lat="45.16703" lon="4.41944">
        <ele>1015.29</ele>
        <time>2024-11-17T10:00:46Z</time>
      </trkpt>
      <trkpt lat="45.16702" lon="4.41945">
        <ele>1016.25</ele>
        <time>2024-11-17T10:00:58Z</time>
      </trkpt>
      <trkpt lat="45.16701" lon="4.41941">
        <ele>1016.73</ele>
        <time>2024-11-17T10:01:01Z</time>
      </trkpt>
      <trkpt lat="45.16694" lon="4.41934">
        <ele>1020.58</ele>
        <time>2024-11-17T10:01:10Z</time>
      </trkpt>
      <trkpt lat="45.16693" lon="4.41918">
        <ele>1024.42</ele>
        <time>2024-11-17T10:01:25Z</time>
      </trkpt>
      <trkpt lat="45.16692" lon="4.41906">
        <ele>1023.46</ele>
        <time>2024-11-17T10:01:38Z</time>
      </trkpt>
      <trkpt lat="45.16693" lon="4.41897">
        <ele>1022.98</ele>
        <time>2024-11-17T10:01:46Z</time>
      </trkpt>
      <trkpt lat="45.16701" lon="4.41879">
        <ele>1020.58</ele>
        <time>2024-11-17T10:02:00Z</time>
      </trkpt>
      <trkpt lat="45.16707" lon="4.41868">
        <ele>1019.62</ele>
        <time>2024-11-17T10:02:07Z</time>
      </trkpt>
      <trkpt lat="45.16714" lon="4.41859">
        <ele>1013.37</ele>
        <time>2024-11-17T10:02:21Z</time>
      </trkpt>
      <trkpt lat="45.16715" lon="4.41859">
        <ele>1012.89</ele>
        <time>2024-11-17T10:02:36Z</time>
      </trkpt>
      <trkpt lat="45.16721" lon="4.41852">
        <ele>1009.04</ele>
        <time>2024-11-17T10:02:49Z</time>
      </trkpt>
      <trkpt lat="45.16732" lon="4.41833">
        <ele>1006.16</ele>
        <time>2024-11-17T10:03:05Z</time>
      </trkpt>
      <trkpt lat="45.16733" lon="4.41831">
        <ele>1006.16</ele>
        <time>2024-11-17T10:03:07Z</time>
      </trkpt>
      <trkpt lat="45.16742" lon="4.41816">
        <ele>1004.23</ele>
        <time>2024-11-17T10:03:21Z</time>
      </trkpt>
      <trkpt lat="45.16749" lon="4.41803">
        <ele>999.43</ele>
        <time>2024-11-17T10:03:34Z</time>
      </trkpt>
      <trkpt lat="45.16753" lon="4.41795">
        <ele>997.99</ele>
        <time>2024-11-17T10:03:42Z</time>
      </trkpt>
      <trkpt lat="45.16759" lon="4.41788">
        <ele>996.06</ele>
        <time>2024-11-17T10:03:49Z</time>
      </trkpt>
      <trkpt lat="45.16761" lon="4.41783">
        <ele>995.1</ele>
        <time>2024-11-17T10:03:53Z</time>
      </trkpt>
      <trkpt lat="45.16771" lon="4.41769">
        <ele>993.18</ele>
        <time>2024-11-17T10:04:06Z</time>
      </trkpt>
      <trkpt lat="45.16782" lon="4.41755">
        <ele>990.3</ele>
        <time>2024-11-17T10:04:20Z</time>
      </trkpt>
      <trkpt lat="45.1679" lon="4.41741">
        <ele>988.85</ele>
        <time>2024-11-17T10:04:34Z</time>
      </trkpt>
      <trkpt lat="45.16799" lon="4.41728">
        <ele>988.37</ele>
        <time>2024-11-17T10:04:47Z</time>
      </trkpt>
      <trkpt lat="45.16808" lon="4.41714">
        <ele>985.97</ele>
        <time>2024-11-17T10:05:00Z</time>
      </trkpt>
      <trkpt lat="45.16817" lon="4.41704">
        <ele>983.57</ele>
        <time>2024-11-17T10:05:13Z</time>
      </trkpt>
      <trkpt lat="45.16825" lon="4.4169">
        <ele>982.6</ele>
        <time>2024-11-17T10:05:26Z</time>
      </trkpt>
      <trkpt lat="45.16833" lon="4.41672">
        <ele>983.57</ele>
        <time>2024-11-17T10:05:42Z</time>
      </trkpt>
      <trkpt lat="45.16839" lon="4.41657">
        <ele>984.53</ele>
        <time>2024-11-17T10:05:56Z</time>
      </trkpt>
      <trkpt lat="45.16848" lon="4.41646">
        <ele>984.05</ele>
        <time>2024-11-17T10:06:09Z</time>
      </trkpt>
      <trkpt lat="45.16855" lon="4.41638">
        <ele>983.09</ele>
        <time>2024-11-17T10:06:23Z</time>
      </trkpt>
      <trkpt lat="45.16861" lon="4.41631">
        <ele>982.6</ele>
        <time>2024-11-17T10:06:36Z</time>
      </trkpt>
      <trkpt lat="45.16866" lon="4.41618">
        <ele>980.68</ele>
        <time>2024-11-17T10:06:48Z</time>
      </trkpt>
      <trkpt lat="45.16864" lon="4.41615">
        <ele>979.72</ele>
        <time>2024-11-17T10:06:53Z</time>
      </trkpt>
      <trkpt lat="45.16859" lon="4.41612">
        <ele>973.47</ele>
        <time>2024-11-17T10:07:06Z</time>
      </trkpt>
      <trkpt lat="45.16847" lon="4.41614">
        <ele>969.15</ele>
        <time>2024-11-17T10:07:24Z</time>
      </trkpt>
      <trkpt lat="45.16833" lon="4.41617">
        <ele>968.67</ele>
        <time>2024-11-17T10:07:37Z</time>
      </trkpt>
      <trkpt lat="45.16814" lon="4.41623">
        <ele>966.26</ele>
        <time>2024-11-17T10:07:51Z</time>
      </trkpt>
      <trkpt lat="45.16797" lon="4.4163">
        <ele>960.98</ele>
        <time>2024-11-17T10:08:08Z</time>
      </trkpt>
      <trkpt lat="45.16777" lon="4.41637">
        <ele>958.09</ele>
        <time>2024-11-17T10:08:23Z</time>
      </trkpt>
      <trkpt lat="45.16763" lon="4.41641">
        <ele>953.28</ele>
        <time>2024-11-17T10:08:35Z</time>
      </trkpt>
      <trkpt lat="45.16744" lon="4.4165">
        <ele>951.36</ele>
        <time>2024-11-17T10:08:53Z</time>
      </trkpt>
      <trkpt lat="45.16729" lon="4.41652">
        <ele>949.92</ele>
        <time>2024-11-17T10:09:09Z</time>
      </trkpt>
      <trkpt lat="45.16723" lon="4.41655">
        <ele>948.96</ele>
        <time>2024-11-17T10:09:22Z</time>
      </trkpt>
      <trkpt lat="45.16718" lon="4.41656">
        <ele>948</ele>
        <time>2024-11-17T10:09:37Z</time>
      </trkpt>
      <trkpt lat="45.16714" lon="4.41657">
        <ele>945.59</ele>
        <time>2024-11-17T10:09:49Z</time>
      </trkpt>
      <trkpt lat="45.16704" lon="4.41656">
        <ele>943.67</ele>
        <time>2024-11-17T10:10:02Z</time>
      </trkpt>
      <trkpt lat="45.16691" lon="4.41657">
        <ele>938.38</ele>
        <time>2024-11-17T10:10:17Z</time>
      </trkpt>
      <trkpt lat="45.16686" lon="4.41658">
        <ele>937.42</ele>
        <time>2024-11-17T10:10:21Z</time>
      </trkpt>
      <trkpt lat="45.16669" lon="4.41659">
        <ele>935.98</ele>
        <time>2024-11-17T10:10:36Z</time>
      </trkpt>
      <trkpt lat="45.1666" lon="4.41661">
        <ele>934.06</ele>
        <time>2024-11-17T10:10:44Z</time>
      </trkpt>
      <trkpt lat="45.16642" lon="4.41662">
        <ele>931.65</ele>
        <time>2024-11-17T10:11:00Z</time>
      </trkpt>
      <trkpt lat="45.16628" lon="4.41666">
        <ele>929.73</ele>
        <time>2024-11-17T10:11:15Z</time>
      </trkpt>
      <trkpt lat="45.16605" lon="4.41665">
        <ele>930.69</ele>
        <time>2024-11-17T10:11:34Z</time>
      </trkpt>
      <trkpt lat="45.1659" lon="4.4166">
        <ele>931.17</ele>
        <time>2024-11-17T10:11:48Z</time>
      </trkpt>
      <trkpt lat="45.16588" lon="4.4166">
        <ele>931.17</ele>
        <time>2024-11-17T10:12:02Z</time>
      </trkpt>
      <trkpt lat="45.16585" lon="4.41661">
        <ele>929.25</ele>
        <time>2024-11-17T10:12:14Z</time>
      </trkpt>
      <trkpt lat="45.16582" lon="4.41662">
        <ele>929.25</ele>
        <time>2024-11-17T10:12:30Z</time>
      </trkpt>
      <trkpt lat="45.1658" lon="4.41666">
        <ele>929.73</ele>
        <time>2024-11-17T10:12:42Z</time>
      </trkpt>
      <trkpt lat="45.16578" lon="4.41666">
        <ele>928.29</ele>
        <time>2024-11-17T10:12:56Z</time>
      </trkpt>
      <trkpt lat="45.16572" lon="4.4167">
        <ele>929.73</ele>
        <time>2024-11-17T10:13:08Z</time>
      </trkpt>
      <trkpt lat="45.16569" lon="4.4167">
        <ele>929.73</ele>
        <time>2024-11-17T10:13:13Z</time>
      </trkpt>
      <trkpt lat="45.16559" lon="4.4167">
        <ele>930.21</ele>
        <time>2024-11-17T10:13:22Z</time>
      </trkpt>
      <trkpt lat="45.16552" lon="4.41671">
        <ele>930.21</ele>
        <time>2024-11-17T10:13:35Z</time>
      </trkpt>
      <trkpt lat="45.16549" lon="4.41669">
        <ele>930.69</ele>
        <time>2024-11-17T10:13:44Z</time>
      </trkpt>
      <trkpt lat="45.16549" lon="4.41669">
        <ele>930.69</ele>
        <time>2024-11-17T10:13:48Z</time>
      </trkpt>
      <trkpt lat="45.16543" lon="4.41667">
        <ele>932.14</ele>
        <time>2024-11-17T10:14:00Z</time>
      </trkpt>
      <trkpt lat="45.16541" lon="4.41667">
        <ele>932.14</ele>
        <time>2024-11-17T10:14:04Z</time>
      </trkpt>
      <trkpt lat="45.16534" lon="4.4167">
        <ele>933.58</ele>
        <time>2024-11-17T10:14:17Z</time>
      </trkpt>
      <trkpt lat="45.16531" lon="4.41667">
        <ele>933.1</ele>
        <time>2024-11-17T10:14:29Z</time>
      </trkpt>
      <trkpt lat="45.16528" lon="4.41667">
        <ele>933.58</ele>
        <time>2024-11-17T10:14:41Z</time>
      </trkpt>
      <trkpt lat="45.16529" lon="4.41666">
        <ele>933.58</ele>
        <time>2024-11-17T10:14:46Z</time>
      </trkpt>
      <trkpt lat="45.1653" lon="4.41668">
        <ele>933.1</ele>
        <time>2024-11-17T10:14:58Z</time>
      </trkpt>
      <trkpt lat="45.16531" lon="4.41668">
        <ele>932.62</ele>
        <time>2024-11-17T10:15:15Z</time>
      </trkpt>
      <trkpt lat="45.16532" lon="4.41664">
        <ele>931.65</ele>
        <time>2024-11-17T10:15:24Z</time>
      </trkpt>
      <trkpt lat="45.16529" lon="4.41663">
        <ele>931.17</ele>
        <time>2024-11-17T10:15:35Z</time>
      </trkpt>
      <trkpt lat="45.16525" lon="4.41662">
        <ele>931.65</ele>
        <time>2024-11-17T10:15:48Z</time>
      </trkpt>
      <trkpt lat="45.16525" lon="4.41662">
        <ele>931.65</ele>
        <time>2024-11-17T10:15:49Z</time>
      </trkpt>
      <trkpt lat="45.16516" lon="4.4166">
        <ele>933.1</ele>
        <time>2024-11-17T10:16:05Z</time>
      </trkpt>
      <trkpt lat="45.16506" lon="4.41658">
        <ele>933.58</ele>
        <time>2024-11-17T10:16:17Z</time>
      </trkpt>
      <trkpt lat="45.16492" lon="4.4166">
        <ele>935.98</ele>
        <time>2024-11-17T10:16:31Z</time>
      </trkpt>
      <trkpt lat="45.16491" lon="4.41663">
        <ele>938.38</ele>
        <time>2024-11-17T10:16:46Z</time>
      </trkpt>
      <trkpt lat="45.16488" lon="4.41657">
        <ele>937.9</ele>
        <time>2024-11-17T10:16:57Z</time>
      </trkpt>
      <trkpt lat="45.16482" lon="4.41652">
        <ele>937.42</ele>
        <time>2024-11-17T10:17:04Z</time>
      </trkpt>
      <trkpt lat="45.16478" lon="4.41653">
        <ele>937.42</ele>
        <time>2024-11-17T10:17:08Z</time>
      </trkpt>
      <trkpt lat="45.16475" lon="4.41659">
        <ele>937.9</ele>
        <time>2024-11-17T10:17:13Z</time>
      </trkpt>
      <trkpt lat="45.16481" lon="4.41684">
        <ele>939.35</ele>
        <time>2024-11-17T10:17:30Z</time>
      </trkpt>
      <trkpt lat="45.16482" lon="4.41689">
        <ele>939.83</ele>
        <time>2024-11-17T10:17:34Z</time>
      </trkpt>
      <trkpt lat="45.1648" lon="4.41711">
        <ele>941.27</ele>
        <time>2024-11-17T10:17:49Z</time>
      </trkpt>
      <trkpt lat="45.16474" lon="4.41729">
        <ele>940.31</ele>
        <time>2024-11-17T10:18:05Z</time>
      </trkpt>
      <trkpt lat="45.16473" lon="4.41742">
        <ele>939.35</ele>
        <time>2024-11-17T10:18:15Z</time>
      </trkpt>
      <trkpt lat="45.16472" lon="4.41748">
        <ele>938.86</ele>
        <time>2024-11-17T10:18:20Z</time>
      </trkpt>
      <trkpt lat="45.16471" lon="4.41768">
        <ele>941.75</ele>
        <time>2024-11-17T10:18:36Z</time>
      </trkpt>
      <trkpt lat="45.16469" lon="4.41794">
        <ele>943.19</ele>
        <time>2024-11-17T10:18:52Z</time>
      </trkpt>
      <trkpt lat="45.16469" lon="4.41811">
        <ele>946.07</ele>
        <time>2024-11-17T10:19:07Z</time>
      </trkpt>
      <trkpt lat="45.16474" lon="4.41818">
        <ele>947.04</ele>
        <time>2024-11-17T10:19:25Z</time>
      </trkpt>
      <trkpt lat="45.16472" lon="4.4182">
        <ele>947.52</ele>
        <time>2024-11-17T10:19:38Z</time>
      </trkpt>
      <trkpt lat="45.16471" lon="4.41827">
        <ele>948</ele>
        <time>2024-11-17T10:19:52Z</time>
      </trkpt>
      <trkpt lat="45.16464" lon="4.41834">
        <ele>950.4</ele>
        <time>2024-11-17T10:20:05Z</time>
      </trkpt>
      <trkpt lat="45.16466" lon="4.41832">
        <ele>952.8</ele>
        <time>2024-11-17T10:20:12Z</time>
      </trkpt>
      <trkpt lat="45.1646" lon="4.41818">
        <ele>955.69</ele>
        <time>2024-11-17T10:20:27Z</time>
      </trkpt>
      <trkpt lat="45.16458" lon="4.41804">
        <ele>960.49</ele>
        <time>2024-11-17T10:20:39Z</time>
      </trkpt>
      <trkpt lat="45.16454" lon="4.41787">
        <ele>965.3</ele>
        <time>2024-11-17T10:20:53Z</time>
      </trkpt>
      <trkpt lat="45.16445" lon="4.41769">
        <ele>965.78</ele>
        <time>2024-11-17T10:21:05Z</time>
      </trkpt>
      <trkpt lat="45.16437" lon="4.41752">
        <ele>967.22</ele>
        <time>2024-11-17T10:21:19Z</time>
      </trkpt>
      <trkpt lat="45.16426" lon="4.41736">
        <ele>971.55</ele>
        <time>2024-11-17T10:21:34Z</time>
      </trkpt>
      <trkpt lat="45.16424" lon="4.41734">
        <ele>971.55</ele>
        <time>2024-11-17T10:21:37Z</time>
      </trkpt>
      <trkpt lat="45.16421" lon="4.41732">
        <ele>972.03</ele>
        <time>2024-11-17T10:21:40Z</time>
      </trkpt>
      <trkpt lat="45.16406" lon="4.41718">
        <ele>972.51</ele>
        <time>2024-11-17T10:21:56Z</time>
      </trkpt>
      <trkpt lat="45.16393" lon="4.41714">
        <ele>973.47</ele>
        <time>2024-11-17T10:22:06Z</time>
      </trkpt>
      <trkpt lat="45.16378" lon="4.4171">
        <ele>972.51</ele>
        <time>2024-11-17T10:22:19Z</time>
      </trkpt>
      <trkpt lat="45.16363" lon="4.41712">
        <ele>972.51</ele>
        <time>2024-11-17T10:22:33Z</time>
      </trkpt>
      <trkpt lat="45.16355" lon="4.41714">
        <ele>972.03</ele>
        <time>2024-11-17T10:22:39Z</time>
      </trkpt>
      <trkpt lat="45.16337" lon="4.41717">
        <ele>973.95</ele>
        <time>2024-11-17T10:22:55Z</time>
      </trkpt>
      <trkpt lat="45.16323" lon="4.41725">
        <ele>978.28</ele>
        <time>2024-11-17T10:23:10Z</time>
      </trkpt>
      <trkpt lat="45.16319" lon="4.41726">
        <ele>978.76</ele>
        <time>2024-11-17T10:23:13Z</time>
      </trkpt>
      <trkpt lat="45.16306" lon="4.41732">
        <ele>981.64</ele>
        <time>2024-11-17T10:23:26Z</time>
      </trkpt>
      <trkpt lat="45.16299" lon="4.41736">
        <ele>981.64</ele>
        <time>2024-11-17T10:23:32Z</time>
      </trkpt>
      <trkpt lat="45.16295" lon="4.41737">
        <ele>982.12</ele>
        <time>2024-11-17T10:23:35Z</time>
      </trkpt>
      <trkpt lat="45.16281" lon="4.41749">
        <ele>984.05</ele>
        <time>2024-11-17T10:23:49Z</time>
      </trkpt>
      <trkpt lat="45.16263" lon="4.41762">
        <ele>986.45</ele>
        <time>2024-11-17T10:24:04Z</time>
      </trkpt>
      <trkpt lat="45.16248" lon="4.41778">
        <ele>991.74</ele>
        <time>2024-11-17T10:24:22Z</time>
      </trkpt>
      <trkpt lat="45.16256" lon="4.41789">
        <ele>995.1</ele>
        <time>2024-11-17T10:24:38Z</time>
      </trkpt>
      <trkpt lat="45.16266" lon="4.41795">
        <ele>995.58</ele>
        <time>2024-11-17T10:24:47Z</time>
      </trkpt>
      <trkpt lat="45.16277" lon="4.41799">
        <ele>997.02</ele>
        <time>2024-11-17T10:25:01Z</time>
      </trkpt>
      <trkpt lat="45.1629" lon="4.41809">
        <ele>1001.35</ele>
        <time>2024-11-17T10:25:14Z</time>
      </trkpt>
      <trkpt lat="45.16298" lon="4.41825">
        <ele>1002.79</ele>
        <time>2024-11-17T10:25:27Z</time>
      </trkpt>
      <trkpt lat="45.16298" lon="4.4183">
        <ele>1004.23</ele>
        <time>2024-11-17T10:25:31Z</time>
      </trkpt>
      <trkpt lat="45.16297" lon="4.41833">
        <ele>1004.72</ele>
        <time>2024-11-17T10:25:33Z</time>
      </trkpt>
      <trkpt lat="45.16295" lon="4.41849">
        <ele>1007.12</ele>
        <time>2024-11-17T10:25:45Z</time>
      </trkpt>
      <trkpt lat="45.16287" lon="4.41861">
        <ele>1009.04</ele>
        <time>2024-11-17T10:25:58Z</time>
      </trkpt>
      <trkpt lat="45.16281" lon="4.41865">
        <ele>1009.04</ele>
        <time>2024-11-17T10:26:07Z</time>
      </trkpt>
      <trkpt lat="45.16273" lon="4.41878">
        <ele>1009.52</ele>
        <time>2024-11-17T10:26:22Z</time>
      </trkpt>
      <trkpt lat="45.16265" lon="4.41894">
        <ele>1011.93</ele>
        <time>2024-11-17T10:26:36Z</time>
      </trkpt>
      <trkpt lat="45.16263" lon="4.41898">
        <ele>1012.89</ele>
        <time>2024-11-17T10:26:39Z</time>
      </trkpt>
      <trkpt lat="45.16249" lon="4.4191">
        <ele>1017.69</ele>
        <time>2024-11-17T10:26:54Z</time>
      </trkpt>
      <trkpt lat="45.16238" lon="4.41919">
        <ele>1019.13</ele>
        <time>2024-11-17T10:27:04Z</time>
      </trkpt>
      <trkpt lat="45.16226" lon="4.41929">
        <ele>1023.46</ele>
        <time>2024-11-17T10:27:17Z</time>
      </trkpt>
      <trkpt lat="45.16209" lon="4.41942">
        <ele>1026.34</ele>
        <time>2024-11-17T10:27:33Z</time>
      </trkpt>
      <trkpt lat="45.16207" lon="4.41943">
        <ele>1026.83</ele>
        <time>2024-11-17T10:27:35Z</time>
      </trkpt>
      <trkpt lat="45.16192" lon="4.41959">
        <ele>1027.31</ele>
        <time>2024-11-17T10:27:50Z</time>
      </trkpt>
      <trkpt lat="45.16184" lon="4.41969">
        <ele>1026.83</ele>
        <time>2024-11-17T10:28:00Z</time>
      </trkpt>
      <trkpt lat="45.16182" lon="4.41971">
        <ele>1026.83</ele>
        <time>2024-11-17T10:28:03Z</time>
      </trkpt>
      <trkpt lat="45.16169" lon="4.41985">
        <ele>1027.79</ele>
        <time>2024-11-17T10:28:18Z</time>
      </trkpt>
      <trkpt lat="45.16166" lon="4.4199">
        <ele>1028.27</ele>
        <time>2024-11-17T10:28:22Z</time>
      </trkpt>
      <trkpt lat="45.16163" lon="4.41995">
        <ele>1028.75</ele>
        <time>2024-11-17T10:28:26Z</time>
      </trkpt>
      <trkpt lat="45.16153" lon="4.42008">
        <ele>1032.11</ele>
        <time>2024-11-17T10:28:40Z</time>
      </trkpt>
      <trkpt lat="45.16146" lon="4.42017">
        <ele>1035</ele>
        <time>2024-11-17T10:28:52Z</time>
      </trkpt>
      <trkpt lat="45.16139" lon="4.42033">
        <ele>1039.32</ele>
        <time>2024-11-17T10:29:07Z</time>
      </trkpt>
      <trkpt lat="45.1613" lon="4.42047">
        <ele>1040.28</ele>
        <time>2024-11-17T10:29:20Z</time>
      </trkpt>
      <trkpt lat="45.16127" lon="4.42051">
        <ele>1040.28</ele>
        <time>2024-11-17T10:29:23Z</time>
      </trkpt>
      <trkpt lat="45.16124" lon="4.42058">
        <ele>1041.25</ele>
        <time>2024-11-17T10:29:27Z</time>
      </trkpt>
      <trkpt lat="45.16117" lon="4.42069">
        <ele>1043.17</ele>
        <time>2024-11-17T10:29:35Z</time>
      </trkpt>
      <trkpt lat="45.16108" lon="4.42091">
        <ele>1046.05</ele>
        <time>2024-11-17T10:29:49Z</time>
      </trkpt>
      <trkpt lat="45.16107" lon="4.42094">
        <ele>1046.05</ele>
        <time>2024-11-17T10:29:51Z</time>
      </trkpt>
      <trkpt lat="45.16106" lon="4.42099">
        <ele>1046.05</ele>
        <time>2024-11-17T10:29:53Z</time>
      </trkpt>
      <trkpt lat="45.16102" lon="4.42118">
        <ele>1046.05</ele>
        <time>2024-11-17T10:30:03Z</time>
      </trkpt>
      <trkpt lat="45.161" lon="4.42125">
        <ele>1046.53</ele>
        <time>2024-11-17T10:30:08Z</time>
      </trkpt>
      <trkpt lat="45.16098" lon="4.42131">
        <ele>1047.97</ele>
        <time>2024-11-17T10:30:12Z</time>
      </trkpt>
      <trkpt lat="45.16093" lon="4.42152">
        <ele>1051.82</ele>
        <time>2024-11-17T10:30:27Z</time>
      </trkpt>
      <trkpt lat="45.16091" lon="4.42171">
        <ele>1054.22</ele>
        <time>2024-11-17T10:30:40Z</time>
      </trkpt>
      <trkpt lat="45.16085" lon="4.42192">
        <ele>1057.11</ele>
        <time>2024-11-17T10:30:56Z</time>
      </trkpt>
      <trkpt lat="45.16082" lon="4.42196">
        <ele>1058.07</ele>
        <time>2024-11-17T10:30:59Z</time>
      </trkpt>
      <trkpt lat="45.16073" lon="4.42213">
        <ele>1062.39</ele>
        <time>2024-11-17T10:31:13Z</time>
      </trkpt>
      <trkpt lat="45.16072" lon="4.42216">
        <ele>1062.87</ele>
        <time>2024-11-17T10:31:15Z</time>
      </trkpt>
      <trkpt lat="45.16066" lon="4.42243">
        <ele>1066.24</ele>
        <time>2024-11-17T10:31:30Z</time>
      </trkpt>
      <trkpt lat="45.16055" lon="4.42265">
        <ele>1065.76</ele>
        <time>2024-11-17T10:31:44Z</time>
      </trkpt>
      <trkpt lat="45.16052" lon="4.4227">
        <ele>1064.32</ele>
        <time>2024-11-17T10:31:47Z</time>
      </trkpt>
      <trkpt lat="45.16045" lon="4.42297">
        <ele>1061.91</ele>
        <time>2024-11-17T10:32:04Z</time>
      </trkpt>
      <trkpt lat="45.16043" lon="4.42303">
        <ele>1061.43</ele>
        <time>2024-11-17T10:32:08Z</time>
      </trkpt>
      <trkpt lat="45.1604" lon="4.4232">
        <ele>1064.32</ele>
        <time>2024-11-17T10:32:21Z</time>
      </trkpt>
      <trkpt lat="45.16031" lon="4.42335">
        <ele>1067.68</ele>
        <time>2024-11-17T10:32:35Z</time>
      </trkpt>
      <trkpt lat="45.16026" lon="4.42351">
        <ele>1068.64</ele>
        <time>2024-11-17T10:32:46Z</time>
      </trkpt>
      <trkpt lat="45.16025" lon="4.4237">
        <ele>1064.8</ele>
        <time>2024-11-17T10:32:59Z</time>
      </trkpt>
      <trkpt lat="45.16025" lon="4.42373">
        <ele>1063.84</ele>
        <time>2024-11-17T10:33:15Z</time>
      </trkpt>
      <trkpt lat="45.16027" lon="4.42374">
        <ele>1063.36</ele>
        <time>2024-11-17T10:33:44Z</time>
      </trkpt>
      <trkpt lat="45.16025" lon="4.42369">
        <ele>1066.24</ele>
        <time>2024-11-17T10:33:51Z</time>
      </trkpt>
      <trkpt lat="45.16018" lon="4.42369">
        <ele>1067.2</ele>
        <time>2024-11-17T10:33:57Z</time>
      </trkpt>
      <trkpt lat="45.16005" lon="4.42385">
        <ele>1066.24</ele>
        <time>2024-11-17T10:34:12Z</time>
      </trkpt>
      <trkpt lat="45.15999" lon="4.42399">
        <ele>1066.72</ele>
        <time>2024-11-17T10:34:22Z</time>
      </trkpt>
      <trkpt lat="45.15987" lon="4.42423">
        <ele>1069.12</ele>
        <time>2024-11-17T10:34:39Z</time>
      </trkpt>
      <trkpt lat="45.15976" lon="4.42439">
        <ele>1072.49</ele>
        <time>2024-11-17T10:34:54Z</time>
      </trkpt>
      <trkpt lat="45.15964" lon="4.42459">
        <ele>1075.85</ele>
        <time>2024-11-17T10:35:10Z</time>
      </trkpt>
      <trkpt lat="45.15958" lon="4.42474">
        <ele>1076.33</ele>
        <time>2024-11-17T10:35:23Z</time>
      </trkpt>
      <trkpt lat="45.1595" lon="4.42488">
        <ele>1079.7</ele>
        <time>2024-11-17T10:35:38Z</time>
      </trkpt>
      <trkpt lat="45.15947" lon="4.42497">
        <ele>1079.7</ele>
        <time>2024-11-17T10:35:44Z</time>
      </trkpt>
      <trkpt lat="45.15944" lon="4.42505">
        <ele>1080.18</ele>
        <time>2024-11-17T10:35:49Z</time>
      </trkpt>
      <trkpt lat="45.15938" lon="4.42524">
        <ele>1085.47</ele>
        <time>2024-11-17T10:36:03Z</time>
      </trkpt>
      <trkpt lat="45.15934" lon="4.42542">
        <ele>1086.91</ele>
        <time>2024-11-17T10:36:19Z</time>
      </trkpt>
      <trkpt lat="45.1594" lon="4.42557">
        <ele>1086.43</ele>
        <time>2024-11-17T10:36:36Z</time>
      </trkpt>
      <trkpt lat="45.15943" lon="4.42563">
        <ele>1084.5</ele>
        <time>2024-11-17T10:36:55Z</time>
      </trkpt>
      <trkpt lat="45.15941" lon="4.42566">
        <ele>1083.54</ele>
        <time>2024-11-17T10:37:07Z</time>
      </trkpt>
      <trkpt lat="45.15943" lon="4.42564">
        <ele>1080.18</ele>
        <time>2024-11-17T10:37:30Z</time>
      </trkpt>
      <trkpt lat="45.15942" lon="4.42567">
        <ele>1078.26</ele>
        <time>2024-11-17T10:37:52Z</time>
      </trkpt>
      <trkpt lat="45.15945" lon="4.42568">
        <ele>1079.7</ele>
        <time>2024-11-17T10:38:15Z</time>
      </trkpt>
      <trkpt lat="45.15943" lon="4.42567">
        <ele>1079.7</ele>
        <time>2024-11-17T10:38:32Z</time>
      </trkpt>
      <trkpt lat="45.15941" lon="4.42561">
        <ele>1079.22</ele>
        <time>2024-11-17T10:38:51Z</time>
      </trkpt>
      <trkpt lat="45.1594" lon="4.42562">
        <ele>1080.18</ele>
        <time>2024-11-17T10:39:03Z</time>
      </trkpt>
      <trkpt lat="45.1594" lon="4.4256">
        <ele>1080.66</ele>
        <time>2024-11-17T10:39:24Z</time>
      </trkpt>
      <trkpt lat="45.15936" lon="4.42563">
        <ele>1080.18</ele>
        <time>2024-11-17T10:39:58Z</time>
      </trkpt>
      <trkpt lat="45.15939" lon="4.42563">
        <ele>1079.7</ele>
        <time>2024-11-17T10:40:26Z</time>
      </trkpt>
      <trkpt lat="45.15939" lon="4.42564">
        <ele>1079.7</ele>
        <time>2024-11-17T10:40:27Z</time>
      </trkpt>
      <trkpt lat="45.15937" lon="4.42565">
        <ele>1077.78</ele>
        <time>2024-11-17T10:40:42Z</time>
      </trkpt>
      <trkpt lat="45.15935" lon="4.42564">
        <ele>1076.81</ele>
        <time>2024-11-17T10:40:58Z</time>
      </trkpt>
      <trkpt lat="45.15934" lon="4.42564">
        <ele>1077.29</ele>
        <time>2024-11-17T10:41:15Z</time>
      </trkpt>
      <trkpt lat="45.15936" lon="4.42564">
        <ele>1075.37</ele>
        <time>2024-11-17T10:41:35Z</time>
      </trkpt>
      <trkpt lat="45.15936" lon="4.42563">
        <ele>1075.37</ele>
        <time>2024-11-17T10:41:57Z</time>
      </trkpt>
      <trkpt lat="45.15935" lon="4.42569">
        <ele>1075.37</ele>
        <time>2024-11-17T10:42:11Z</time>
      </trkpt>
      <trkpt lat="45.15933" lon="4.42578">
        <ele>1076.33</ele>
        <time>2024-11-17T10:42:18Z</time>
      </trkpt>
      <trkpt lat="45.15926" lon="4.42594">
        <ele>1077.78</ele>
        <time>2024-11-17T10:42:33Z</time>
      </trkpt>
      <trkpt lat="45.1592" lon="4.4261">
        <ele>1078.26</ele>
        <time>2024-11-17T10:42:49Z</time>
      </trkpt>
      <trkpt lat="45.15912" lon="4.42639">
        <ele>1078.26</ele>
        <time>2024-11-17T10:43:07Z</time>
      </trkpt>
      <trkpt lat="45.15909" lon="4.42666">
        <ele>1077.29</ele>
        <time>2024-11-17T10:43:23Z</time>
      </trkpt>
      <trkpt lat="45.15901" lon="4.42698">
        <ele>1079.22</ele>
        <time>2024-11-17T10:43:40Z</time>
      </trkpt>
      <trkpt lat="45.15894" lon="4.42727">
        <ele>1080.66</ele>
        <time>2024-11-17T10:43:56Z</time>
      </trkpt>
      <trkpt lat="45.15882" lon="4.42756">
        <ele>1078.26</ele>
        <time>2024-11-17T10:44:13Z</time>
      </trkpt>
      <trkpt lat="45.15872" lon="4.42783">
        <ele>1075.85</ele>
        <time>2024-11-17T10:44:32Z</time>
      </trkpt>
      <trkpt lat="45.1586" lon="4.42815">
        <ele>1072.01</ele>
        <time>2024-11-17T10:44:49Z</time>
      </trkpt>
      <trkpt lat="45.15851" lon="4.42843">
        <ele>1072.01</ele>
        <time>2024-11-17T10:45:05Z</time>
      </trkpt>
      <trkpt lat="45.15842" lon="4.42859">
        <ele>1072.97</ele>
        <time>2024-11-17T10:45:19Z</time>
      </trkpt>
      <trkpt lat="45.15837" lon="4.42857">
        <ele>1072.97</ele>
        <time>2024-11-17T10:45:29Z</time>
      </trkpt>
      <trkpt lat="45.15823" lon="4.42851">
        <ele>1072.49</ele>
        <time>2024-11-17T10:45:45Z</time>
      </trkpt>
      <trkpt lat="45.15817" lon="4.4285">
        <ele>1071.53</ele>
        <time>2024-11-17T10:46:00Z</time>
      </trkpt>
      <trkpt lat="45.15822" lon="4.42852">
        <ele>1071.53</ele>
        <time>2024-11-17T10:46:13Z</time>
      </trkpt>
      <trkpt lat="45.15824" lon="4.42845">
        <ele>1074.89</ele>
        <time>2024-11-17T10:46:28Z</time>
      </trkpt>
      <trkpt lat="45.15824" lon="4.42843">
        <ele>1075.37</ele>
        <time>2024-11-17T10:46:41Z</time>
      </trkpt>
      <trkpt lat="45.15823" lon="4.42841">
        <ele>1076.33</ele>
        <time>2024-11-17T10:47:01Z</time>
      </trkpt>
      <trkpt lat="45.15822" lon="4.42843">
        <ele>1077.29</ele>
        <time>2024-11-17T10:47:25Z</time>
      </trkpt>
      <trkpt lat="45.15821" lon="4.42844">
        <ele>1077.29</ele>
        <time>2024-11-17T10:47:50Z</time>
      </trkpt>
      <trkpt lat="45.15822" lon="4.42844">
        <ele>1075.37</ele>
        <time>2024-11-17T10:48:13Z</time>
      </trkpt>
      <trkpt lat="45.15821" lon="4.42844">
        <ele>1077.78</ele>
        <time>2024-11-17T10:48:39Z</time>
      </trkpt>
      <trkpt lat="45.15822" lon="4.42846">
        <ele>1080.66</ele>
        <time>2024-11-17T10:49:04Z</time>
      </trkpt>
      <trkpt lat="45.15821" lon="4.42848">
        <ele>1082.1</ele>
        <time>2024-11-17T10:49:28Z</time>
      </trkpt>
      <trkpt lat="45.15819" lon="4.42848">
        <ele>1087.39</ele>
        <time>2024-11-17T10:49:50Z</time>
      </trkpt>
      <trkpt lat="45.15819" lon="4.42846">
        <ele>1089.31</ele>
        <time>2024-11-17T10:50:12Z</time>
      </trkpt>
      <trkpt lat="45.15819" lon="4.42845">
        <ele>1088.83</ele>
        <time>2024-11-17T10:50:31Z</time>
      </trkpt>
      <trkpt lat="45.15819" lon="4.42845">
        <ele>1089.79</ele>
        <time>2024-11-17T10:50:56Z</time>
      </trkpt>
      <trkpt lat="45.15821" lon="4.42843">
        <ele>1086.43</ele>
        <time>2024-11-17T10:51:24Z</time>
      </trkpt>
      <trkpt lat="45.15818" lon="4.42844">
        <ele>1083.54</ele>
        <time>2024-11-17T10:51:49Z</time>
      </trkpt>
      <trkpt lat="45.15819" lon="4.42844">
        <ele>1081.14</ele>
        <time>2024-11-17T10:52:15Z</time>
      </trkpt>
      <trkpt lat="45.15821" lon="4.42845">
        <ele>1075.37</ele>
        <time>2024-11-17T10:52:41Z</time>
      </trkpt>
      <trkpt lat="45.15823" lon="4.42845">
        <ele>1074.89</ele>
        <time>2024-11-17T10:53:00Z</time>
      </trkpt>
      <trkpt lat="45.15823" lon="4.42845">
        <ele>1076.33</ele>
        <time>2024-11-17T10:53:18Z</time>
      </trkpt>
      <trkpt lat="45.15824" lon="4.42844">
        <ele>1074.89</ele>
        <time>2024-11-17T10:53:34Z</time>
      </trkpt>
      <trkpt lat="45.15824" lon="4.42846">
        <ele>1075.85</ele>
        <time>2024-11-17T10:53:59Z</time>
      </trkpt>
      <trkpt lat="45.15824" lon="4.42845">
        <ele>1072.49</ele>
        <time>2024-11-17T10:54:29Z</time>
      </trkpt>
      <trkpt lat="45.15821" lon="4.42844">
        <ele>1075.85</ele>
        <time>2024-11-17T10:54:49Z</time>
      </trkpt>
      <trkpt lat="45.15821" lon="4.42845">
        <ele>1074.41</ele>
        <time>2024-11-17T10:55:07Z</time>
      </trkpt>
      <trkpt lat="45.15823" lon="4.42845">
        <ele>1074.89</ele>
        <time>2024-11-17T10:55:34Z</time>
      </trkpt>
      <trkpt lat="45.15823" lon="4.42843">
        <ele>1076.33</ele>
        <time>2024-11-17T10:55:50Z</time>
      </trkpt>
      <trkpt lat="45.15822" lon="4.42844">
        <ele>1077.29</ele>
        <time>2024-11-17T10:56:09Z</time>
      </trkpt>
      <trkpt lat="45.15824" lon="4.42843">
        <ele>1072.01</ele>
        <time>2024-11-17T10:56:37Z</time>
      </trkpt>
      <trkpt lat="45.15826" lon="4.42843">
        <ele>1071.53</ele>
        <time>2024-11-17T10:56:55Z</time>
      </trkpt>
      <trkpt lat="45.15826" lon="4.42844">
        <ele>1072.97</ele>
        <time>2024-11-17T10:57:21Z</time>
      </trkpt>
      <trkpt lat="45.15827" lon="4.42845">
        <ele>1074.89</ele>
        <time>2024-11-17T10:57:49Z</time>
      </trkpt>
      <trkpt lat="45.15826" lon="4.42846">
        <ele>1072.01</ele>
        <time>2024-11-17T10:58:14Z</time>
      </trkpt>
      <trkpt lat="45.15822" lon="4.42846">
        <ele>1076.81</ele>
        <time>2024-11-17T10:58:37Z</time>
      </trkpt>
      <trkpt lat="45.1582" lon="4.42845">
        <ele>1077.29</ele>
        <time>2024-11-17T10:59:03Z</time>
      </trkpt>
      <trkpt lat="45.1582" lon="4.42844">
        <ele>1074.89</ele>
        <time>2024-11-17T10:59:28Z</time>
      </trkpt>
      <trkpt lat="45.15821" lon="4.42845">
        <ele>1074.41</ele>
        <time>2024-11-17T10:59:59Z</time>
      </trkpt>
      <trkpt lat="45.15823" lon="4.42845">
        <ele>1074.89</ele>
        <time>2024-11-17T11:00:16Z</time>
      </trkpt>
      <trkpt lat="45.15823" lon="4.42845">
        <ele>1075.37</ele>
        <time>2024-11-17T11:00:39Z</time>
      </trkpt>
      <trkpt lat="45.15821" lon="4.42846">
        <ele>1079.22</ele>
        <time>2024-11-17T11:01:08Z</time>
      </trkpt>
      <trkpt lat="45.15819" lon="4.42847">
        <ele>1081.62</ele>
        <time>2024-11-17T11:01:32Z</time>
      </trkpt>
      <trkpt lat="45.15822" lon="4.42846">
        <ele>1079.7</ele>
        <time>2024-11-17T11:01:59Z</time>
      </trkpt>
      <trkpt lat="45.15821" lon="4.42845">
        <ele>1078.26</ele>
        <time>2024-11-17T11:02:23Z</time>
      </trkpt>
      <trkpt lat="45.15822" lon="4.42845">
        <ele>1079.7</ele>
        <time>2024-11-17T11:02:46Z</time>
      </trkpt>
      <trkpt lat="45.15824" lon="4.42844">
        <ele>1078.26</ele>
        <time>2024-11-17T11:03:04Z</time>
      </trkpt>
      <trkpt lat="45.15826" lon="4.42842">
        <ele>1077.29</ele>
        <time>2024-11-17T11:03:26Z</time>
      </trkpt>
      <trkpt lat="45.15826" lon="4.42843">
        <ele>1077.78</ele>
        <time>2024-11-17T11:03:49Z</time>
      </trkpt>
      <trkpt lat="45.15823" lon="4.42843">
        <ele>1080.66</ele>
        <time>2024-11-17T11:04:11Z</time>
      </trkpt>
      <trkpt lat="45.15824" lon="4.42842">
        <ele>1080.66</ele>
        <time>2024-11-17T11:04:23Z</time>
      </trkpt>
      <trkpt lat="45.15825" lon="4.42843">
        <ele>1080.18</ele>
        <time>2024-11-17T11:04:42Z</time>
      </trkpt>
      <trkpt lat="45.15825" lon="4.42845">
        <ele>1082.58</ele>
        <time>2024-11-17T11:05:10Z</time>
      </trkpt>
      <trkpt lat="45.15826" lon="4.42845">
        <ele>1082.1</ele>
        <time>2024-11-17T11:05:33Z</time>
      </trkpt>
      <trkpt lat="45.15826" lon="4.42845">
        <ele>1082.1</ele>
        <time>2024-11-17T11:05:55Z</time>
      </trkpt>
      <trkpt lat="45.15825" lon="4.42846">
        <ele>1081.62</ele>
        <time>2024-11-17T11:06:22Z</time>
      </trkpt>
      <trkpt lat="45.15823" lon="4.42844">
        <ele>1082.58</ele>
        <time>2024-11-17T11:06:44Z</time>
      </trkpt>
      <trkpt lat="45.15823" lon="4.42845">
        <ele>1082.1</ele>
        <time>2024-11-17T11:07:06Z</time>
      </trkpt>
      <trkpt lat="45.15823" lon="4.42846">
        <ele>1083.06</ele>
        <time>2024-11-17T11:07:32Z</time>
      </trkpt>
      <trkpt lat="45.15824" lon="4.42845">
        <ele>1081.62</ele>
        <time>2024-11-17T11:07:47Z</time>
      </trkpt>
      <trkpt lat="45.15823" lon="4.42844">
        <ele>1082.1</ele>
        <time>2024-11-17T11:08:10Z</time>
      </trkpt>
      <trkpt lat="45.15822" lon="4.42843">
        <ele>1082.58</ele>
        <time>2024-11-17T11:08:37Z</time>
      </trkpt>
      <trkpt lat="45.15823" lon="4.42845">
        <ele>1081.62</ele>
        <time>2024-11-17T11:08:59Z</time>
      </trkpt>
      <trkpt lat="45.15822" lon="4.42845">
        <ele>1082.1</ele>
        <time>2024-11-17T11:09:27Z</time>
      </trkpt>
      <trkpt lat="45.15822" lon="4.42846">
        <ele>1082.1</ele>
        <time>2024-11-17T11:09:50Z</time>
      </trkpt>
      <trkpt lat="45.15824" lon="4.42846">
        <ele>1080.18</ele>
        <time>2024-11-17T11:10:20Z</time>
      </trkpt>
      <trkpt lat="45.15822" lon="4.42845">
        <ele>1080.18</ele>
        <time>2024-11-17T11:10:43Z</time>
      </trkpt>
      <trkpt lat="45.1582" lon="4.42844">
        <ele>1077.29</ele>
        <time>2024-11-17T11:11:08Z</time>
      </trkpt>
      <trkpt lat="45.15821" lon="4.42841">
        <ele>1075.37</ele>
        <time>2024-11-17T11:11:37Z</time>
      </trkpt>
      <trkpt lat="45.15819" lon="4.42842">
        <ele>1071.53</ele>
        <time>2024-11-17T11:12:03Z</time>
      </trkpt>
      <trkpt lat="45.15819" lon="4.42843">
        <ele>1072.49</ele>
        <time>2024-11-17T11:12:25Z</time>
      </trkpt>
      <trkpt lat="45.1582" lon="4.42844">
        <ele>1074.89</ele>
        <time>2024-11-17T11:12:52Z</time>
      </trkpt>
      <trkpt lat="45.15816" lon="4.42844">
        <ele>1075.37</ele>
        <time>2024-11-17T11:13:21Z</time>
      </trkpt>
      <trkpt lat="45.15816" lon="4.42844">
        <ele>1075.37</ele>
        <time>2024-11-17T11:13:48Z</time>
      </trkpt>
      <trkpt lat="45.15817" lon="4.42846">
        <ele>1072.97</ele>
        <time>2024-11-17T11:14:15Z</time>
      </trkpt>
      <trkpt lat="45.15822" lon="4.42848">
        <ele>1072.49</ele>
        <time>2024-11-17T11:14:40Z</time>
      </trkpt>
      <trkpt lat="45.15821" lon="4.42847">
        <ele>1071.05</ele>
        <time>2024-11-17T11:15:08Z</time>
      </trkpt>
      <trkpt lat="45.15821" lon="4.42848">
        <ele>1071.05</ele>
        <time>2024-11-17T11:15:36Z</time>
      </trkpt>
      <trkpt lat="45.15822" lon="4.42846">
        <ele>1072.97</ele>
        <time>2024-11-17T11:15:58Z</time>
      </trkpt>
      <trkpt lat="45.15826" lon="4.42844">
        <ele>1072.97</ele>
        <time>2024-11-17T11:16:17Z</time>
      </trkpt>
      <trkpt lat="45.15828" lon="4.42844">
        <ele>1072.49</ele>
        <time>2024-11-17T11:16:42Z</time>
      </trkpt>
      <trkpt lat="45.15827" lon="4.42844">
        <ele>1072.49</ele>
        <time>2024-11-17T11:17:11Z</time>
      </trkpt>
      <trkpt lat="45.15825" lon="4.42846">
        <ele>1075.37</ele>
        <time>2024-11-17T11:17:35Z</time>
      </trkpt>
      <trkpt lat="45.15825" lon="4.42845">
        <ele>1077.29</ele>
        <time>2024-11-17T11:17:52Z</time>
      </trkpt>
      <trkpt lat="45.15826" lon="4.42844">
        <ele>1075.85</ele>
        <time>2024-11-17T11:18:05Z</time>
      </trkpt>
      <trkpt lat="45.15825" lon="4.42842">
        <ele>1074.41</ele>
        <time>2024-11-17T11:18:17Z</time>
      </trkpt>
      <trkpt lat="45.15825" lon="4.42842">
        <ele>1074.89</ele>
        <time>2024-11-17T11:18:34Z</time>
      </trkpt>
      <trkpt lat="45.15825" lon="4.42845">
        <ele>1075.37</ele>
        <time>2024-11-17T11:18:47Z</time>
      </trkpt>
      <trkpt lat="45.15824" lon="4.42852">
        <ele>1075.85</ele>
        <time>2024-11-17T11:18:59Z</time>
      </trkpt>
      <trkpt lat="45.15824" lon="4.42853">
        <ele>1075.37</ele>
        <time>2024-11-17T11:19:13Z</time>
      </trkpt>
      <trkpt lat="45.15825" lon="4.42854">
        <ele>1075.37</ele>
        <time>2024-11-17T11:19:33Z</time>
      </trkpt>
      <trkpt lat="45.15825" lon="4.42856">
        <ele>1075.85</ele>
        <time>2024-11-17T11:19:53Z</time>
      </trkpt>
      <trkpt lat="45.15826" lon="4.42856">
        <ele>1076.33</ele>
        <time>2024-11-17T11:20:12Z</time>
      </trkpt>
      <trkpt lat="45.15823" lon="4.4285">
        <ele>1074.89</ele>
        <time>2024-11-17T11:20:24Z</time>
      </trkpt>
      <trkpt lat="45.15814" lon="4.42847">
        <ele>1073.93</ele>
        <time>2024-11-17T11:20:37Z</time>
      </trkpt>
      <trkpt lat="45.15801" lon="4.42835">
        <ele>1072.01</ele>
        <time>2024-11-17T11:20:55Z</time>
      </trkpt>
      <trkpt lat="45.15786" lon="4.42825">
        <ele>1071.05</ele>
        <time>2024-11-17T11:21:12Z</time>
      </trkpt>
      <trkpt lat="45.15772" lon="4.42815">
        <ele>1069.6</ele>
        <time>2024-11-17T11:21:27Z</time>
      </trkpt>
      <trkpt lat="45.15755" lon="4.42809">
        <ele>1066.72</ele>
        <time>2024-11-17T11:21:43Z</time>
      </trkpt>
      <trkpt lat="45.15738" lon="4.42793">
        <ele>1066.24</ele>
        <time>2024-11-17T11:22:01Z</time>
      </trkpt>
      <trkpt lat="45.15726" lon="4.42775">
        <ele>1066.72</ele>
        <time>2024-11-17T11:22:16Z</time>
      </trkpt>
      <trkpt lat="45.15719" lon="4.42761">
        <ele>1065.76</ele>
        <time>2024-11-17T11:22:27Z</time>
      </trkpt>
      <trkpt lat="45.15699" lon="4.42743">
        <ele>1063.36</ele>
        <time>2024-11-17T11:22:45Z</time>
      </trkpt>
      <trkpt lat="45.15697" lon="4.42741">
        <ele>1063.36</ele>
        <time>2024-11-17T11:22:48Z</time>
      </trkpt>
      <trkpt lat="45.15682" lon="4.42725">
        <ele>1062.39</ele>
        <time>2024-11-17T11:23:05Z</time>
      </trkpt>
      <trkpt lat="45.1567" lon="4.42715">
        <ele>1062.39</ele>
        <time>2024-11-17T11:23:20Z</time>
      </trkpt>
      <trkpt lat="45.15667" lon="4.42711">
        <ele>1062.39</ele>
        <time>2024-11-17T11:23:26Z</time>
      </trkpt>
      <trkpt lat="45.15659" lon="4.42705">
        <ele>1062.39</ele>
        <time>2024-11-17T11:23:37Z</time>
      </trkpt>
      <trkpt lat="45.15644" lon="4.42687">
        <ele>1064.8</ele>
        <time>2024-11-17T11:23:56Z</time>
      </trkpt>
      <trkpt lat="45.15642" lon="4.42684">
        <ele>1064.8</ele>
        <time>2024-11-17T11:23:58Z</time>
      </trkpt>
      <trkpt lat="45.15623" lon="4.42671">
        <ele>1063.84</ele>
        <time>2024-11-17T11:24:16Z</time>
      </trkpt>
      <trkpt lat="45.1561" lon="4.42657">
        <ele>1063.84</ele>
        <time>2024-11-17T11:24:29Z</time>
      </trkpt>
      <trkpt lat="45.15606" lon="4.4265">
        <ele>1063.36</ele>
        <time>2024-11-17T11:24:35Z</time>
      </trkpt>
      <trkpt lat="45.15589" lon="4.42646">
        <ele>1060.95</ele>
        <time>2024-11-17T11:24:49Z</time>
      </trkpt>
      <trkpt lat="45.15583" lon="4.42646">
        <ele>1058.55</ele>
        <time>2024-11-17T11:25:10Z</time>
      </trkpt>
      <trkpt lat="45.15582" lon="4.42646">
        <ele>1056.15</ele>
        <time>2024-11-17T11:25:25Z</time>
      </trkpt>
      <trkpt lat="45.1558" lon="4.4265">
        <ele>1055.18</ele>
        <time>2024-11-17T11:25:36Z</time>
      </trkpt>
      <trkpt lat="45.1558" lon="4.42652">
        <ele>1054.7</ele>
        <time>2024-11-17T11:25:38Z</time>
      </trkpt>
      <trkpt lat="45.15575" lon="4.42666">
        <ele>1054.22</ele>
        <time>2024-11-17T11:25:54Z</time>
      </trkpt>
      <trkpt lat="45.15569" lon="4.42683">
        <ele>1057.11</ele>
        <time>2024-11-17T11:26:08Z</time>
      </trkpt>
      <trkpt lat="45.15564" lon="4.42704">
        <ele>1062.87</ele>
        <time>2024-11-17T11:26:25Z</time>
      </trkpt>
      <trkpt lat="45.15558" lon="4.42719">
        <ele>1069.12</ele>
        <time>2024-11-17T11:26:38Z</time>
      </trkpt>
      <trkpt lat="45.15552" lon="4.42733">
        <ele>1074.89</ele>
        <time>2024-11-17T11:26:51Z</time>
      </trkpt>
      <trkpt lat="45.1555" lon="4.42744">
        <ele>1077.29</ele>
        <time>2024-11-17T11:26:59Z</time>
      </trkpt>
      <trkpt lat="45.15548" lon="4.42754">
        <ele>1078.74</ele>
        <time>2024-11-17T11:27:06Z</time>
      </trkpt>
      <trkpt lat="45.15543" lon="4.42773">
        <ele>1081.62</ele>
        <time>2024-11-17T11:27:19Z</time>
      </trkpt>
      <trkpt lat="45.15535" lon="4.42791">
        <ele>1086.91</ele>
        <time>2024-11-17T11:27:34Z</time>
      </trkpt>
      <trkpt lat="45.15535" lon="4.42792">
        <ele>1085.95</ele>
        <time>2024-11-17T11:27:48Z</time>
      </trkpt>
      <trkpt lat="45.15533" lon="4.42796">
        <ele>1080.66</ele>
        <time>2024-11-17T11:28:01Z</time>
      </trkpt>
      <trkpt lat="45.15534" lon="4.42801">
        <ele>1077.78</ele>
        <time>2024-11-17T11:28:18Z</time>
      </trkpt>
      <trkpt lat="45.15533" lon="4.42801">
        <ele>1079.22</ele>
        <time>2024-11-17T11:28:35Z</time>
      </trkpt>
      <trkpt lat="45.15531" lon="4.42806">
        <ele>1078.74</ele>
        <time>2024-11-17T11:28:41Z</time>
      </trkpt>
      <trkpt lat="45.1553" lon="4.42811">
        <ele>1075.37</ele>
        <time>2024-11-17T11:28:54Z</time>
      </trkpt>
      <trkpt lat="45.15531" lon="4.42812">
        <ele>1073.45</ele>
        <time>2024-11-17T11:29:09Z</time>
      </trkpt>
      <trkpt lat="45.1553" lon="4.42827">
        <ele>1073.93</ele>
        <time>2024-11-17T11:29:23Z</time>
      </trkpt>
      <trkpt lat="45.1553" lon="4.4283">
        <ele>1074.89</ele>
        <time>2024-11-17T11:29:25Z</time>
      </trkpt>
      <trkpt lat="45.15525" lon="4.42851">
        <ele>1080.66</ele>
        <time>2024-11-17T11:29:39Z</time>
      </trkpt>
      <trkpt lat="45.15524" lon="4.42857">
        <ele>1081.14</ele>
        <time>2024-11-17T11:29:42Z</time>
      </trkpt>
      <trkpt lat="45.15517" lon="4.42883">
        <ele>1084.99</ele>
        <time>2024-11-17T11:29:57Z</time>
      </trkpt>
      <trkpt lat="45.15513" lon="4.42912">
        <ele>1085.47</ele>
        <time>2024-11-17T11:30:10Z</time>
      </trkpt>
      <trkpt lat="45.15509" lon="4.42936">
        <ele>1088.83</ele>
        <time>2024-11-17T11:30:24Z</time>
      </trkpt>
      <trkpt lat="45.15504" lon="4.42958">
        <ele>1091.71</ele>
        <time>2024-11-17T11:30:37Z</time>
      </trkpt>
      <trkpt lat="45.15497" lon="4.42986">
        <ele>1097.96</ele>
        <time>2024-11-17T11:30:52Z</time>
      </trkpt>
      <trkpt lat="45.15489" lon="4.43011">
        <ele>1105.17</ele>
        <time>2024-11-17T11:31:07Z</time>
      </trkpt>
      <trkpt lat="45.15489" lon="4.43015">
        <ele>1106.13</ele>
        <time>2024-11-17T11:31:09Z</time>
      </trkpt>
      <trkpt lat="45.15482" lon="4.43035">
        <ele>1109.5</ele>
        <time>2024-11-17T11:31:21Z</time>
      </trkpt>
      <trkpt lat="45.1548" lon="4.43039">
        <ele>1109.5</ele>
        <time>2024-11-17T11:31:24Z</time>
      </trkpt>
      <trkpt lat="45.15482" lon="4.43048">
        <ele>1105.65</ele>
        <time>2024-11-17T11:31:31Z</time>
      </trkpt>
      <trkpt lat="45.15472" lon="4.43066">
        <ele>1108.54</ele>
        <time>2024-11-17T11:31:45Z</time>
      </trkpt>
      <trkpt lat="45.15465" lon="4.43079">
        <ele>1109.98</ele>
        <time>2024-11-17T11:32:01Z</time>
      </trkpt>
      <trkpt lat="45.1545" lon="4.43099">
        <ele>1110.46</ele>
        <time>2024-11-17T11:32:14Z</time>
      </trkpt>
      <trkpt lat="45.1543" lon="4.43124">
        <ele>1100.37</ele>
        <time>2024-11-17T11:32:31Z</time>
      </trkpt>
      <trkpt lat="45.15419" lon="4.43129">
        <ele>1097.48</ele>
        <time>2024-11-17T11:32:39Z</time>
      </trkpt>
      <trkpt lat="45.15402" lon="4.43133">
        <ele>1095.08</ele>
        <time>2024-11-17T11:32:53Z</time>
      </trkpt>
      <trkpt lat="45.15398" lon="4.43134">
        <ele>1094.6</ele>
        <time>2024-11-17T11:32:56Z</time>
      </trkpt>
      <trkpt lat="45.15388" lon="4.43136">
        <ele>1097</ele>
        <time>2024-11-17T11:33:06Z</time>
      </trkpt>
      <trkpt lat="45.15386" lon="4.43139">
        <ele>1097</ele>
        <time>2024-11-17T11:33:11Z</time>
      </trkpt>
      <trkpt lat="45.1538" lon="4.43154">
        <ele>1096.52</ele>
        <time>2024-11-17T11:33:24Z</time>
      </trkpt>
      <trkpt lat="45.15375" lon="4.43168">
        <ele>1097</ele>
        <time>2024-11-17T11:33:36Z</time>
      </trkpt>
      <trkpt lat="45.15371" lon="4.43175">
        <ele>1097</ele>
        <time>2024-11-17T11:33:42Z</time>
      </trkpt>
      <trkpt lat="45.1536" lon="4.43188">
        <ele>1097.96</ele>
        <time>2024-11-17T11:33:55Z</time>
      </trkpt>
      <trkpt lat="45.15359" lon="4.43193">
        <ele>1097.96</ele>
        <time>2024-11-17T11:33:58Z</time>
      </trkpt>
      <trkpt lat="45.15349" lon="4.43219">
        <ele>1099.4</ele>
        <time>2024-11-17T11:34:16Z</time>
      </trkpt>
      <trkpt lat="45.15339" lon="4.43243">
        <ele>1101.81</ele>
        <time>2024-11-17T11:34:32Z</time>
      </trkpt>
      <trkpt lat="45.15325" lon="4.43265">
        <ele>1100.85</ele>
        <time>2024-11-17T11:34:47Z</time>
      </trkpt>
      <trkpt lat="45.15313" lon="4.43284">
        <ele>1097.96</ele>
        <time>2024-11-17T11:35:01Z</time>
      </trkpt>
      <trkpt lat="45.15308" lon="4.43293">
        <ele>1096.52</ele>
        <time>2024-11-17T11:35:10Z</time>
      </trkpt>
      <trkpt lat="45.15303" lon="4.43304">
        <ele>1096.04</ele>
        <time>2024-11-17T11:35:17Z</time>
      </trkpt>
      <trkpt lat="45.15289" lon="4.43336">
        <ele>1092.68</ele>
        <time>2024-11-17T11:35:35Z</time>
      </trkpt>
      <trkpt lat="45.15281" lon="4.43356">
        <ele>1090.27</ele>
        <time>2024-11-17T11:35:48Z</time>
      </trkpt>
      <trkpt lat="45.15275" lon="4.43369">
        <ele>1089.31</ele>
        <time>2024-11-17T11:35:57Z</time>
      </trkpt>
      <trkpt lat="45.15263" lon="4.43399">
        <ele>1087.39</ele>
        <time>2024-11-17T11:36:16Z</time>
      </trkpt>
      <trkpt lat="45.15253" lon="4.43426">
        <ele>1084.02</ele>
        <time>2024-11-17T11:36:33Z</time>
      </trkpt>
      <trkpt lat="45.15247" lon="4.4344">
        <ele>1081.14</ele>
        <time>2024-11-17T11:36:45Z</time>
      </trkpt>
      <trkpt lat="45.15238" lon="4.43462">
        <ele>1077.29</ele>
        <time>2024-11-17T11:37:02Z</time>
      </trkpt>
      <trkpt lat="45.15237" lon="4.43479">
        <ele>1077.78</ele>
        <time>2024-11-17T11:37:16Z</time>
      </trkpt>
      <trkpt lat="45.15239" lon="4.43494">
        <ele>1077.29</ele>
        <time>2024-11-17T11:37:30Z</time>
      </trkpt>
      <trkpt lat="45.1524" lon="4.43506">
        <ele>1076.81</ele>
        <time>2024-11-17T11:37:45Z</time>
      </trkpt>
      <trkpt lat="45.15246" lon="4.43529">
        <ele>1076.81</ele>
        <time>2024-11-17T11:38:00Z</time>
      </trkpt>
      <trkpt lat="45.15252" lon="4.43557">
        <ele>1077.78</ele>
        <time>2024-11-17T11:38:18Z</time>
      </trkpt>
      <trkpt lat="45.15254" lon="4.43584">
        <ele>1076.81</ele>
        <time>2024-11-17T11:38:35Z</time>
      </trkpt>
      <trkpt lat="45.15256" lon="4.43602">
        <ele>1076.81</ele>
        <time>2024-11-17T11:38:47Z</time>
      </trkpt>
      <trkpt lat="45.15257" lon="4.43623">
        <ele>1079.7</ele>
        <time>2024-11-17T11:38:59Z</time>
      </trkpt>
      <trkpt lat="45.15257" lon="4.43637">
        <ele>1079.7</ele>
        <time>2024-11-17T11:39:08Z</time>
      </trkpt>
      <trkpt lat="45.15259" lon="4.43652">
        <ele>1079.7</ele>
        <time>2024-11-17T11:39:17Z</time>
      </trkpt>
      <trkpt lat="45.15271" lon="4.4367">
        <ele>1075.37</ele>
        <time>2024-11-17T11:39:31Z</time>
      </trkpt>
      <trkpt lat="45.15271" lon="4.43672">
        <ele>1075.37</ele>
        <time>2024-11-17T11:39:33Z</time>
      </trkpt>
      <trkpt lat="45.15258" lon="4.43687">
        <ele>1072.01</ele>
        <time>2024-11-17T11:39:49Z</time>
      </trkpt>
      <trkpt lat="45.15234" lon="4.43691">
        <ele>1064.8</ele>
        <time>2024-11-17T11:40:09Z</time>
      </trkpt>
      <trkpt lat="45.15225" lon="4.43688">
        <ele>1059.99</ele>
        <time>2024-11-17T11:40:24Z</time>
      </trkpt>
      <trkpt lat="45.15221" lon="4.43681">
        <ele>1059.51</ele>
        <time>2024-11-17T11:40:29Z</time>
      </trkpt>
      <trkpt lat="45.15217" lon="4.43662">
        <ele>1059.51</ele>
        <time>2024-11-17T11:40:45Z</time>
      </trkpt>
      <trkpt lat="45.15216" lon="4.43659">
        <ele>1060.47</ele>
        <time>2024-11-17T11:40:49Z</time>
      </trkpt>
      <trkpt lat="45.15214" lon="4.43656">
        <ele>1060.47</ele>
        <time>2024-11-17T11:40:52Z</time>
      </trkpt>
      <trkpt lat="45.15203" lon="4.43648">
        <ele>1059.99</ele>
        <time>2024-11-17T11:41:05Z</time>
      </trkpt>
      <trkpt lat="45.1519" lon="4.43625">
        <ele>1059.51</ele>
        <time>2024-11-17T11:41:21Z</time>
      </trkpt>
      <trkpt lat="45.15178" lon="4.43613">
        <ele>1061.91</ele>
        <time>2024-11-17T11:41:36Z</time>
      </trkpt>
      <trkpt lat="45.15172" lon="4.43606">
        <ele>1062.87</ele>
        <time>2024-11-17T11:41:43Z</time>
      </trkpt>
      <trkpt lat="45.15158" lon="4.43597">
        <ele>1063.84</ele>
        <time>2024-11-17T11:41:58Z</time>
      </trkpt>
      <trkpt lat="45.15145" lon="4.43589">
        <ele>1065.28</ele>
        <time>2024-11-17T11:42:14Z</time>
      </trkpt>
      <trkpt lat="45.15131" lon="4.43579">
        <ele>1068.16</ele>
        <time>2024-11-17T11:42:28Z</time>
      </trkpt>
      <trkpt lat="45.15119" lon="4.43571">
        <ele>1070.08</ele>
        <time>2024-11-17T11:42:42Z</time>
      </trkpt>
      <trkpt lat="45.15104" lon="4.43561">
        <ele>1071.53</ele>
        <time>2024-11-17T11:42:57Z</time>
      </trkpt>
      <trkpt lat="45.15086" lon="4.43543">
        <ele>1072.01</ele>
        <time>2024-11-17T11:43:15Z</time>
      </trkpt>
      <trkpt lat="45.1507" lon="4.43526">
        <ele>1071.05</ele>
        <time>2024-11-17T11:43:32Z</time>
      </trkpt>
      <trkpt lat="45.15068" lon="4.43523">
        <ele>1071.53</ele>
        <time>2024-11-17T11:43:35Z</time>
      </trkpt>
      <trkpt lat="45.1506" lon="4.43507">
        <ele>1072.49</ele>
        <time>2024-11-17T11:43:49Z</time>
      </trkpt>
      <trkpt lat="45.15051" lon="4.43495">
        <ele>1072.97</ele>
        <time>2024-11-17T11:44:02Z</time>
      </trkpt>
      <trkpt lat="45.15039" lon="4.43476">
        <ele>1073.93</ele>
        <time>2024-11-17T11:44:18Z</time>
      </trkpt>
      <trkpt lat="45.1503" lon="4.4346">
        <ele>1076.33</ele>
        <time>2024-11-17T11:44:32Z</time>
      </trkpt>
      <trkpt lat="45.15023" lon="4.4345">
        <ele>1079.22</ele>
        <time>2024-11-17T11:44:40Z</time>
      </trkpt>
      <trkpt lat="45.1501" lon="4.4342">
        <ele>1082.1</ele>
        <time>2024-11-17T11:44:56Z</time>
      </trkpt>
      <trkpt lat="45.15001" lon="4.43402">
        <ele>1083.06</ele>
        <time>2024-11-17T11:45:07Z</time>
      </trkpt>
      <trkpt lat="45.14996" lon="4.43393">
        <ele>1083.06</ele>
        <time>2024-11-17T11:45:13Z</time>
      </trkpt>
      <trkpt lat="45.14984" lon="4.43371">
        <ele>1080.66</ele>
        <time>2024-11-17T11:45:29Z</time>
      </trkpt>
      <trkpt lat="45.14981" lon="4.43364">
        <ele>1079.22</ele>
        <time>2024-11-17T11:45:34Z</time>
      </trkpt>
      <trkpt lat="45.14978" lon="4.43359">
        <ele>1077.78</ele>
        <time>2024-11-17T11:45:37Z</time>
      </trkpt>
      <trkpt lat="45.14973" lon="4.43342">
        <ele>1073.93</ele>
        <time>2024-11-17T11:45:48Z</time>
      </trkpt>
      <trkpt lat="45.1497" lon="4.43338">
        <ele>1072.97</ele>
        <time>2024-11-17T11:45:52Z</time>
      </trkpt>
      <trkpt lat="45.14963" lon="4.43318">
        <ele>1070.57</ele>
        <time>2024-11-17T11:46:07Z</time>
      </trkpt>
      <trkpt lat="45.14961" lon="4.43316">
        <ele>1070.08</ele>
        <time>2024-11-17T11:46:09Z</time>
      </trkpt>
      <trkpt lat="45.14951" lon="4.43299">
        <ele>1068.16</ele>
        <time>2024-11-17T11:46:25Z</time>
      </trkpt>
      <trkpt lat="45.14942" lon="4.43284">
        <ele>1065.28</ele>
        <time>2024-11-17T11:46:39Z</time>
      </trkpt>
      <trkpt lat="45.14938" lon="4.43279">
        <ele>1062.87</ele>
        <time>2024-11-17T11:46:43Z</time>
      </trkpt>
      <trkpt lat="45.14934" lon="4.43272">
        <ele>1060.95</ele>
        <time>2024-11-17T11:46:47Z</time>
      </trkpt>
      <trkpt lat="45.14919" lon="4.43253">
        <ele>1057.59</ele>
        <time>2024-11-17T11:47:04Z</time>
      </trkpt>
      <trkpt lat="45.14898" lon="4.43238">
        <ele>1053.74</ele>
        <time>2024-11-17T11:47:25Z</time>
      </trkpt>
      <trkpt lat="45.14878" lon="4.4323">
        <ele>1050.38</ele>
        <time>2024-11-17T11:47:42Z</time>
      </trkpt>
      <trkpt lat="45.14872" lon="4.43224">
        <ele>1048.94</ele>
        <time>2024-11-17T11:47:48Z</time>
      </trkpt>
      <trkpt lat="45.14868" lon="4.43218">
        <ele>1047.01</ele>
        <time>2024-11-17T11:47:54Z</time>
      </trkpt>
      <trkpt lat="45.14857" lon="4.43185">
        <ele>1043.17</ele>
        <time>2024-11-17T11:48:12Z</time>
      </trkpt>
      <trkpt lat="45.14854" lon="4.43156">
        <ele>1039.32</ele>
        <time>2024-11-17T11:48:27Z</time>
      </trkpt>
      <trkpt lat="45.14851" lon="4.43125">
        <ele>1038.84</ele>
        <time>2024-11-17T11:48:45Z</time>
      </trkpt>
      <trkpt lat="45.14848" lon="4.43098">
        <ele>1036.44</ele>
        <time>2024-11-17T11:49:01Z</time>
      </trkpt>
      <trkpt lat="45.14844" lon="4.43079">
        <ele>1035.96</ele>
        <time>2024-11-17T11:49:11Z</time>
      </trkpt>
      <trkpt lat="45.14837" lon="4.43051">
        <ele>1033.07</ele>
        <time>2024-11-17T11:49:29Z</time>
      </trkpt>
      <trkpt lat="45.14836" lon="4.43033">
        <ele>1032.11</ele>
        <time>2024-11-17T11:49:42Z</time>
      </trkpt>
      <trkpt lat="45.14837" lon="4.43006">
        <ele>1030.67</ele>
        <time>2024-11-17T11:50:00Z</time>
      </trkpt>
      <trkpt lat="45.14839" lon="4.42992">
        <ele>1029.71</ele>
        <time>2024-11-17T11:50:15Z</time>
      </trkpt>
      <trkpt lat="45.14839" lon="4.42991">
        <ele>1029.71</ele>
        <time>2024-11-17T11:50:24Z</time>
      </trkpt>
      <trkpt lat="45.14836" lon="4.42973">
        <ele>1025.86</ele>
        <time>2024-11-17T11:50:38Z</time>
      </trkpt>
      <trkpt lat="45.14832" lon="4.42945">
        <ele>1022.5</ele>
        <time>2024-11-17T11:50:56Z</time>
      </trkpt>
      <trkpt lat="45.14825" lon="4.42929">
        <ele>1021.54</ele>
        <time>2024-11-17T11:51:07Z</time>
      </trkpt>
      <trkpt lat="45.14812" lon="4.42899">
        <ele>1019.62</ele>
        <time>2024-11-17T11:51:25Z</time>
      </trkpt>
      <trkpt lat="45.14804" lon="4.42877">
        <ele>1017.21</ele>
        <time>2024-11-17T11:51:41Z</time>
      </trkpt>
      <trkpt lat="45.14808" lon="4.42876">
        <ele>1016.73</ele>
        <time>2024-11-17T11:51:53Z</time>
      </trkpt>
      <trkpt lat="45.14806" lon="4.42871">
        <ele>1015.77</ele>
        <time>2024-11-17T11:52:02Z</time>
      </trkpt>
      <trkpt lat="45.14802" lon="4.42866">
        <ele>1015.29</ele>
        <time>2024-11-17T11:52:13Z</time>
      </trkpt>
      <trkpt lat="45.14802" lon="4.42862">
        <ele>1013.85</ele>
        <time>2024-11-17T11:52:22Z</time>
      </trkpt>
      <trkpt lat="45.148" lon="4.42856">
        <ele>1013.37</ele>
        <time>2024-11-17T11:52:26Z</time>
      </trkpt>
      <trkpt lat="45.14798" lon="4.42849">
        <ele>1011.93</ele>
        <time>2024-11-17T11:52:36Z</time>
      </trkpt>
      <trkpt lat="45.14798" lon="4.42844">
        <ele>1011.44</ele>
        <time>2024-11-17T11:52:41Z</time>
      </trkpt>
      <trkpt lat="45.148" lon="4.42823">
        <ele>1010.48</ele>
        <time>2024-11-17T11:52:56Z</time>
      </trkpt>
      <trkpt lat="45.14801" lon="4.42813">
        <ele>1010.48</ele>
        <time>2024-11-17T11:53:02Z</time>
      </trkpt>
      <trkpt lat="45.14803" lon="4.42792">
        <ele>1008.56</ele>
        <time>2024-11-17T11:53:17Z</time>
      </trkpt>
      <trkpt lat="45.14806" lon="4.42766">
        <ele>1005.68</ele>
        <time>2024-11-17T11:53:34Z</time>
      </trkpt>
      <trkpt lat="45.14809" lon="4.42752">
        <ele>1003.75</ele>
        <time>2024-11-17T11:53:50Z</time>
      </trkpt>
      <trkpt lat="45.1481" lon="4.4276">
        <ele>1004.23</ele>
        <time>2024-11-17T11:54:02Z</time>
      </trkpt>
      <trkpt lat="45.14811" lon="4.4276">
        <ele>1004.72</ele>
        <time>2024-11-17T11:54:03Z</time>
      </trkpt>
      <trkpt lat="45.14815" lon="4.42761">
        <ele>1004.72</ele>
        <time>2024-11-17T11:54:07Z</time>
      </trkpt>
      <trkpt lat="45.14819" lon="4.42759">
        <ele>1005.2</ele>
        <time>2024-11-17T11:54:11Z</time>
      </trkpt>
      <trkpt lat="45.14829" lon="4.42748">
        <ele>1006.64</ele>
        <time>2024-11-17T11:54:27Z</time>
      </trkpt>
      <trkpt lat="45.14826" lon="4.42748">
        <ele>1006.64</ele>
        <time>2024-11-17T11:54:46Z</time>
      </trkpt>
      <trkpt lat="45.14822" lon="4.42751">
        <ele>1007.6</ele>
        <time>2024-11-17T11:54:55Z</time>
      </trkpt>
      <trkpt lat="45.14808" lon="4.42766">
        <ele>1007.6</ele>
        <time>2024-11-17T11:55:14Z</time>
      </trkpt>
      <trkpt lat="45.14802" lon="4.42793">
        <ele>1009.04</ele>
        <time>2024-11-17T11:55:32Z</time>
      </trkpt>
      <trkpt lat="45.148" lon="4.42808">
        <ele>1010.96</ele>
        <time>2024-11-17T11:55:42Z</time>
      </trkpt>
      <trkpt lat="45.148" lon="4.4282">
        <ele>1011.93</ele>
        <time>2024-11-17T11:55:50Z</time>
      </trkpt>
      <trkpt lat="45.14796" lon="4.42842">
        <ele>1011.93</ele>
        <time>2024-11-17T11:56:06Z</time>
      </trkpt>
      <trkpt lat="45.14792" lon="4.42843">
        <ele>1011.44</ele>
        <time>2024-11-17T11:56:13Z</time>
      </trkpt>
      <trkpt lat="45.14785" lon="4.4285">
        <ele>1010.96</ele>
        <time>2024-11-17T11:56:26Z</time>
      </trkpt>
      <trkpt lat="45.14782" lon="4.4286">
        <ele>1010.48</ele>
        <time>2024-11-17T11:56:39Z</time>
      </trkpt>
      <trkpt lat="45.1478" lon="4.42856">
        <ele>1010</ele>
        <time>2024-11-17T11:56:50Z</time>
      </trkpt>
      <trkpt lat="45.14775" lon="4.42855">
        <ele>1010.48</ele>
        <time>2024-11-17T11:56:57Z</time>
      </trkpt>
      <trkpt lat="45.14762" lon="4.42856">
        <ele>1010.96</ele>
        <time>2024-11-17T11:57:09Z</time>
      </trkpt>
      <trkpt lat="45.14745" lon="4.42855">
        <ele>1013.37</ele>
        <time>2024-11-17T11:57:25Z</time>
      </trkpt>
      <trkpt lat="45.14726" lon="4.4286">
        <ele>1016.73</ele>
        <time>2024-11-17T11:57:41Z</time>
      </trkpt>
      <trkpt lat="45.14721" lon="4.42862">
        <ele>1018.17</ele>
        <time>2024-11-17T11:57:46Z</time>
      </trkpt>
      <trkpt lat="45.14704" lon="4.42865">
        <ele>1022.98</ele>
        <time>2024-11-17T11:58:01Z</time>
      </trkpt>
      <trkpt lat="45.1469" lon="4.42859">
        <ele>1023.94</ele>
        <time>2024-11-17T11:58:13Z</time>
      </trkpt>
      <trkpt lat="45.14678" lon="4.42846">
        <ele>1025.38</ele>
        <time>2024-11-17T11:58:28Z</time>
      </trkpt>
      <trkpt lat="45.14672" lon="4.42841">
        <ele>1025.86</ele>
        <time>2024-11-17T11:58:34Z</time>
      </trkpt>
      <trkpt lat="45.14671" lon="4.42839">
        <ele>1026.34</ele>
        <time>2024-11-17T11:58:36Z</time>
      </trkpt>
      <trkpt lat="45.14656" lon="4.42826">
        <ele>1030.67</ele>
        <time>2024-11-17T11:58:52Z</time>
      </trkpt>
      <trkpt lat="45.14645" lon="4.4282">
        <ele>1031.63</ele>
        <time>2024-11-17T11:59:06Z</time>
      </trkpt>
      <trkpt lat="45.14632" lon="4.42813">
        <ele>1033.07</ele>
        <time>2024-11-17T11:59:20Z</time>
      </trkpt>
      <trkpt lat="45.14623" lon="4.42807">
        <ele>1035.48</ele>
        <time>2024-11-17T11:59:28Z</time>
      </trkpt>
      <trkpt lat="45.1462" lon="4.42805">
        <ele>1036.44</ele>
        <time>2024-11-17T11:59:31Z</time>
      </trkpt>
      <trkpt lat="45.14618" lon="4.42805">
        <ele>1036.44</ele>
        <time>2024-11-17T11:59:33Z</time>
      </trkpt>
      <trkpt lat="45.14611" lon="4.42798">
        <ele>1036.92</ele>
        <time>2024-11-17T11:59:45Z</time>
      </trkpt>
      <trkpt lat="45.14595" lon="4.42796">
        <ele>1038.36</ele>
        <time>2024-11-17T11:59:59Z</time>
      </trkpt>
      <trkpt lat="45.14592" lon="4.42796">
        <ele>1038.84</ele>
        <time>2024-11-17T12:00:02Z</time>
      </trkpt>
      <trkpt lat="45.14583" lon="4.42796">
        <ele>1038.36</ele>
        <time>2024-11-17T12:00:11Z</time>
      </trkpt>
      <trkpt lat="45.1457" lon="4.42796">
        <ele>1040.28</ele>
        <time>2024-11-17T12:00:24Z</time>
      </trkpt>
      <trkpt lat="45.14568" lon="4.42795">
        <ele>1040.28</ele>
        <time>2024-11-17T12:00:26Z</time>
      </trkpt>
      <trkpt lat="45.14566" lon="4.42791">
        <ele>1043.65</ele>
        <time>2024-11-17T12:00:36Z</time>
      </trkpt>
      <trkpt lat="45.14565" lon="4.42794">
        <ele>1044.13</ele>
        <time>2024-11-17T12:00:38Z</time>
      </trkpt>
      <trkpt lat="45.14545" lon="4.42797">
        <ele>1046.05</ele>
        <time>2024-11-17T12:00:55Z</time>
      </trkpt>
      <trkpt lat="45.14526" lon="4.42802">
        <ele>1047.49</ele>
        <time>2024-11-17T12:01:11Z</time>
      </trkpt>
      <trkpt lat="45.14506" lon="4.4281">
        <ele>1047.01</ele>
        <time>2024-11-17T12:01:28Z</time>
      </trkpt>
      <trkpt lat="45.145" lon="4.42812">
        <ele>1047.49</ele>
        <time>2024-11-17T12:01:34Z</time>
      </trkpt>
      <trkpt lat="45.14485" lon="4.42824">
        <ele>1049.42</ele>
        <time>2024-11-17T12:01:50Z</time>
      </trkpt>
      <trkpt lat="45.14471" lon="4.42831">
        <ele>1050.86</ele>
        <time>2024-11-17T12:02:04Z</time>
      </trkpt>
      <trkpt lat="45.14457" lon="4.42836">
        <ele>1053.26</ele>
        <time>2024-11-17T12:02:21Z</time>
      </trkpt>
      <trkpt lat="45.14453" lon="4.42837">
        <ele>1054.22</ele>
        <time>2024-11-17T12:02:26Z</time>
      </trkpt>
      <trkpt lat="45.1444" lon="4.42845">
        <ele>1056.15</ele>
        <time>2024-11-17T12:02:38Z</time>
      </trkpt>
      <trkpt lat="45.14438" lon="4.42846">
        <ele>1056.63</ele>
        <time>2024-11-17T12:02:40Z</time>
      </trkpt>
      <trkpt lat="45.14425" lon="4.42851">
        <ele>1058.55</ele>
        <time>2024-11-17T12:02:54Z</time>
      </trkpt>
      <trkpt lat="45.1442" lon="4.42853">
        <ele>1059.03</ele>
        <time>2024-11-17T12:02:59Z</time>
      </trkpt>
      <trkpt lat="45.14401" lon="4.42861">
        <ele>1060.95</ele>
        <time>2024-11-17T12:03:15Z</time>
      </trkpt>
      <trkpt lat="45.14386" lon="4.4287">
        <ele>1062.87</ele>
        <time>2024-11-17T12:03:28Z</time>
      </trkpt>
      <trkpt lat="45.14371" lon="4.42878">
        <ele>1064.32</ele>
        <time>2024-11-17T12:03:43Z</time>
      </trkpt>
      <trkpt lat="45.14356" lon="4.42888">
        <ele>1064.8</ele>
        <time>2024-11-17T12:03:58Z</time>
      </trkpt>
      <trkpt lat="45.14343" lon="4.42894">
        <ele>1066.24</ele>
        <time>2024-11-17T12:04:11Z</time>
      </trkpt>
      <trkpt lat="45.14329" lon="4.42901">
        <ele>1068.16</ele>
        <time>2024-11-17T12:04:25Z</time>
      </trkpt>
      <trkpt lat="45.14325" lon="4.42904">
        <ele>1069.12</ele>
        <time>2024-11-17T12:04:29Z</time>
      </trkpt>
      <trkpt lat="45.14305" lon="4.42915">
        <ele>1073.45</ele>
        <time>2024-11-17T12:04:48Z</time>
      </trkpt>
      <trkpt lat="45.14287" lon="4.42924">
        <ele>1073.93</ele>
        <time>2024-11-17T12:05:04Z</time>
      </trkpt>
      <trkpt lat="45.14269" lon="4.4292">
        <ele>1075.37</ele>
        <time>2024-11-17T12:05:20Z</time>
      </trkpt>
      <trkpt lat="45.14261" lon="4.42915">
        <ele>1080.18</ele>
        <time>2024-11-17T12:05:35Z</time>
      </trkpt>
      <trkpt lat="45.14254" lon="4.42907">
        <ele>1077.78</ele>
        <time>2024-11-17T12:05:49Z</time>
      </trkpt>
      <trkpt lat="45.14252" lon="4.42906">
        <ele>1076.81</ele>
        <time>2024-11-17T12:05:51Z</time>
      </trkpt>
      <trkpt lat="45.14246" lon="4.42896">
        <ele>1073.45</ele>
        <time>2024-11-17T12:06:00Z</time>
      </trkpt>
      <trkpt lat="45.14243" lon="4.42891">
        <ele>1072.97</ele>
        <time>2024-11-17T12:06:04Z</time>
      </trkpt>
      <trkpt lat="45.14239" lon="4.42884">
        <ele>1072.49</ele>
        <time>2024-11-17T12:06:08Z</time>
      </trkpt>
      <trkpt lat="45.14225" lon="4.42861">
        <ele>1073.45</ele>
        <time>2024-11-17T12:06:25Z</time>
      </trkpt>
      <trkpt lat="45.14213" lon="4.42848">
        <ele>1071.05</ele>
        <time>2024-11-17T12:06:38Z</time>
      </trkpt>
      <trkpt lat="45.14211" lon="4.42847">
        <ele>1070.57</ele>
        <time>2024-11-17T12:06:40Z</time>
      </trkpt>
      <trkpt lat="45.14207" lon="4.42843">
        <ele>1070.57</ele>
        <time>2024-11-17T12:06:44Z</time>
      </trkpt>
      <trkpt lat="45.14204" lon="4.42838">
        <ele>1070.57</ele>
        <time>2024-11-17T12:06:49Z</time>
      </trkpt>
      <trkpt lat="45.14203" lon="4.42822">
        <ele>1069.12</ele>
        <time>2024-11-17T12:07:03Z</time>
      </trkpt>
      <trkpt lat="45.14215" lon="4.42798">
        <ele>1071.53</ele>
        <time>2024-11-17T12:07:20Z</time>
      </trkpt>
      <trkpt lat="45.14226" lon="4.4278">
        <ele>1074.89</ele>
        <time>2024-11-17T12:07:37Z</time>
      </trkpt>
      <trkpt lat="45.1423" lon="4.42767">
        <ele>1077.78</ele>
        <time>2024-11-17T12:07:50Z</time>
      </trkpt>
      <trkpt lat="45.1423" lon="4.42765">
        <ele>1078.26</ele>
        <time>2024-11-17T12:07:52Z</time>
      </trkpt>
      <trkpt lat="45.14233" lon="4.42743">
        <ele>1081.14</ele>
        <time>2024-11-17T12:08:08Z</time>
      </trkpt>
      <trkpt lat="45.14234" lon="4.42722">
        <ele>1084.02</ele>
        <time>2024-11-17T12:08:24Z</time>
      </trkpt>
      <trkpt lat="45.14237" lon="4.42709">
        <ele>1085.95</ele>
        <time>2024-11-17T12:08:37Z</time>
      </trkpt>
      <trkpt lat="45.14238" lon="4.42708">
        <ele>1086.43</ele>
        <time>2024-11-17T12:08:39Z</time>
      </trkpt>
      <trkpt lat="45.14242" lon="4.42704">
        <ele>1086.43</ele>
        <time>2024-11-17T12:08:52Z</time>
      </trkpt>
      <trkpt lat="45.14243" lon="4.42701">
        <ele>1084.5</ele>
        <time>2024-11-17T12:09:06Z</time>
      </trkpt>
      <trkpt lat="45.14249" lon="4.42696">
        <ele>1083.54</ele>
        <time>2024-11-17T12:09:17Z</time>
      </trkpt>
      <trkpt lat="45.14256" lon="4.42678">
        <ele>1082.58</ele>
        <time>2024-11-17T12:09:31Z</time>
      </trkpt>
      <trkpt lat="45.14246" lon="4.42648">
        <ele>1081.62</ele>
        <time>2024-11-17T12:09:49Z</time>
      </trkpt>
      <trkpt lat="45.14239" lon="4.42638">
        <ele>1081.14</ele>
        <time>2024-11-17T12:09:56Z</time>
      </trkpt>
      <trkpt lat="45.1423" lon="4.4262">
        <ele>1078.74</ele>
        <time>2024-11-17T12:10:11Z</time>
      </trkpt>
      <trkpt lat="45.14219" lon="4.42601">
        <ele>1077.78</ele>
        <time>2024-11-17T12:10:26Z</time>
      </trkpt>
      <trkpt lat="45.14208" lon="4.42584">
        <ele>1075.37</ele>
        <time>2024-11-17T12:10:41Z</time>
      </trkpt>
      <trkpt lat="45.14204" lon="4.42573">
        <ele>1075.37</ele>
        <time>2024-11-17T12:10:50Z</time>
      </trkpt>
      <trkpt lat="45.14203" lon="4.42568">
        <ele>1074.41</ele>
        <time>2024-11-17T12:10:54Z</time>
      </trkpt>
      <trkpt lat="45.14191" lon="4.42546">
        <ele>1071.05</ele>
        <time>2024-11-17T12:11:11Z</time>
      </trkpt>
      <trkpt lat="45.14187" lon="4.42532">
        <ele>1071.53</ele>
        <time>2024-11-17T12:11:21Z</time>
      </trkpt>
      <trkpt lat="45.14186" lon="4.42525">
        <ele>1070.57</ele>
        <time>2024-11-17T12:11:27Z</time>
      </trkpt>
      <trkpt lat="45.14186" lon="4.42518">
        <ele>1070.08</ele>
        <time>2024-11-17T12:11:32Z</time>
      </trkpt>
      <trkpt lat="45.14185" lon="4.425">
        <ele>1070.57</ele>
        <time>2024-11-17T12:11:44Z</time>
      </trkpt>
      <trkpt lat="45.14182" lon="4.42485">
        <ele>1070.57</ele>
        <time>2024-11-17T12:12:00Z</time>
      </trkpt>
      <trkpt lat="45.14179" lon="4.42477">
        <ele>1070.57</ele>
        <time>2024-11-17T12:12:13Z</time>
      </trkpt>
      <trkpt lat="45.14178" lon="4.42476">
        <ele>1069.12</ele>
        <time>2024-11-17T12:12:27Z</time>
      </trkpt>
      <trkpt lat="45.14178" lon="4.42473">
        <ele>1070.57</ele>
        <time>2024-11-17T12:12:46Z</time>
      </trkpt>
      <trkpt lat="45.14179" lon="4.42473">
        <ele>1070.57</ele>
        <time>2024-11-17T12:13:03Z</time>
      </trkpt>
      <trkpt lat="45.14178" lon="4.42469">
        <ele>1072.49</ele>
        <time>2024-11-17T12:13:15Z</time>
      </trkpt>
      <trkpt lat="45.14174" lon="4.42459">
        <ele>1072.01</ele>
        <time>2024-11-17T12:13:25Z</time>
      </trkpt>
      <trkpt lat="45.1417" lon="4.42431">
        <ele>1072.01</ele>
        <time>2024-11-17T12:13:44Z</time>
      </trkpt>
      <trkpt lat="45.14178" lon="4.42417">
        <ele>1071.53</ele>
        <time>2024-11-17T12:13:59Z</time>
      </trkpt>
      <trkpt lat="45.14189" lon="4.42407">
        <ele>1071.53</ele>
        <time>2024-11-17T12:14:15Z</time>
      </trkpt>
      <trkpt lat="45.142" lon="4.42406">
        <ele>1072.01</ele>
        <time>2024-11-17T12:14:27Z</time>
      </trkpt>
      <trkpt lat="45.14215" lon="4.42409">
        <ele>1071.05</ele>
        <time>2024-11-17T12:14:42Z</time>
      </trkpt>
      <trkpt lat="45.14222" lon="4.42414">
        <ele>1071.53</ele>
        <time>2024-11-17T12:14:57Z</time>
      </trkpt>
      <trkpt lat="45.14229" lon="4.42419">
        <ele>1071.53</ele>
        <time>2024-11-17T12:15:05Z</time>
      </trkpt>
      <trkpt lat="45.14242" lon="4.42436">
        <ele>1074.41</ele>
        <time>2024-11-17T12:15:21Z</time>
      </trkpt>
      <trkpt lat="45.14254" lon="4.42448">
        <ele>1076.33</ele>
        <time>2024-11-17T12:15:35Z</time>
      </trkpt>
      <trkpt lat="45.1426" lon="4.42456">
        <ele>1077.29</ele>
        <time>2024-11-17T12:15:45Z</time>
      </trkpt>
      <trkpt lat="45.14275" lon="4.42458">
        <ele>1080.66</ele>
        <time>2024-11-17T12:16:00Z</time>
      </trkpt>
      <trkpt lat="45.14282" lon="4.42459">
        <ele>1083.54</ele>
        <time>2024-11-17T12:16:13Z</time>
      </trkpt>
      <trkpt lat="45.14294" lon="4.42464">
        <ele>1080.66</ele>
        <time>2024-11-17T12:16:28Z</time>
      </trkpt>
      <trkpt lat="45.143" lon="4.42465">
        <ele>1079.7</ele>
        <time>2024-11-17T12:16:43Z</time>
      </trkpt>
      <trkpt lat="45.14309" lon="4.42464">
        <ele>1081.14</ele>
        <time>2024-11-17T12:16:59Z</time>
      </trkpt>
      <trkpt lat="45.14318" lon="4.42463">
        <ele>1080.66</ele>
        <time>2024-11-17T12:17:13Z</time>
      </trkpt>
      <trkpt lat="45.14333" lon="4.4246">
        <ele>1079.7</ele>
        <time>2024-11-17T12:17:28Z</time>
      </trkpt>
      <trkpt lat="45.14357" lon="4.4246">
        <ele>1078.26</ele>
        <time>2024-11-17T12:17:44Z</time>
      </trkpt>
      <trkpt lat="45.14374" lon="4.42457">
        <ele>1078.26</ele>
        <time>2024-11-17T12:17:59Z</time>
      </trkpt>
      <trkpt lat="45.14379" lon="4.42451">
        <ele>1078.74</ele>
        <time>2024-11-17T12:18:04Z</time>
      </trkpt>
      <trkpt lat="45.14382" lon="4.42439">
        <ele>1079.7</ele>
        <time>2024-11-17T12:18:15Z</time>
      </trkpt>
      <trkpt lat="45.1438" lon="4.42419">
        <ele>1081.62</ele>
        <time>2024-11-17T12:18:30Z</time>
      </trkpt>
      <trkpt lat="45.1438" lon="4.42417">
        <ele>1081.62</ele>
        <time>2024-11-17T12:18:32Z</time>
      </trkpt>
      <trkpt lat="45.1438" lon="4.4241">
        <ele>1081.14</ele>
        <time>2024-11-17T12:18:37Z</time>
      </trkpt>
      <trkpt lat="45.14378" lon="4.42399">
        <ele>1080.66</ele>
        <time>2024-11-17T12:18:46Z</time>
      </trkpt>
      <trkpt lat="45.14377" lon="4.42393">
        <ele>1081.14</ele>
        <time>2024-11-17T12:18:50Z</time>
      </trkpt>
      <trkpt lat="45.14374" lon="4.42381">
        <ele>1081.62</ele>
        <time>2024-11-17T12:18:59Z</time>
      </trkpt>
      <trkpt lat="45.14367" lon="4.42366">
        <ele>1084.02</ele>
        <time>2024-11-17T12:19:13Z</time>
      </trkpt>
      <trkpt lat="45.14365" lon="4.42357">
        <ele>1084.99</ele>
        <time>2024-11-17T12:19:23Z</time>
      </trkpt>
      <trkpt lat="45.14359" lon="4.42338">
        <ele>1089.31</ele>
        <time>2024-11-17T12:19:38Z</time>
      </trkpt>
      <trkpt lat="45.14353" lon="4.42322">
        <ele>1093.16</ele>
        <time>2024-11-17T12:19:51Z</time>
      </trkpt>
      <trkpt lat="45.14347" lon="4.423">
        <ele>1095.56</ele>
        <time>2024-11-17T12:20:05Z</time>
      </trkpt>
      <trkpt lat="45.14344" lon="4.42284">
        <ele>1097.96</ele>
        <time>2024-11-17T12:20:18Z</time>
      </trkpt>
      <trkpt lat="45.14341" lon="4.42272">
        <ele>1098.92</ele>
        <time>2024-11-17T12:20:26Z</time>
      </trkpt>
      <trkpt lat="45.14338" lon="4.42257">
        <ele>1100.37</ele>
        <time>2024-11-17T12:20:36Z</time>
      </trkpt>
      <trkpt lat="45.14337" lon="4.42254">
        <ele>1100.37</ele>
        <time>2024-11-17T12:20:38Z</time>
      </trkpt>
      <trkpt lat="45.14335" lon="4.42242">
        <ele>1101.33</ele>
        <time>2024-11-17T12:20:47Z</time>
      </trkpt>
      <trkpt lat="45.14333" lon="4.42211">
        <ele>1102.29</ele>
        <time>2024-11-17T12:21:06Z</time>
      </trkpt>
      <trkpt lat="45.14331" lon="4.42208">
        <ele>1102.77</ele>
        <time>2024-11-17T12:21:09Z</time>
      </trkpt>
      <trkpt lat="45.14323" lon="4.42215">
        <ele>1104.21</ele>
        <time>2024-11-17T12:21:24Z</time>
      </trkpt>
      <trkpt lat="45.14325" lon="4.42214">
        <ele>1104.69</ele>
        <time>2024-11-17T12:21:37Z</time>
      </trkpt>
      <trkpt lat="45.14339" lon="4.42208">
        <ele>1104.69</ele>
        <time>2024-11-17T12:21:49Z</time>
      </trkpt>
      <trkpt lat="45.14357" lon="4.42213">
        <ele>1105.17</ele>
        <time>2024-11-17T12:22:05Z</time>
      </trkpt>
      <trkpt lat="45.14376" lon="4.42219">
        <ele>1105.65</ele>
        <time>2024-11-17T12:22:21Z</time>
      </trkpt>
      <trkpt lat="45.14375" lon="4.42197">
        <ele>1107.58</ele>
        <time>2024-11-17T12:22:36Z</time>
      </trkpt>
      <trkpt lat="45.14369" lon="4.42177">
        <ele>1109.5</ele>
        <time>2024-11-17T12:22:50Z</time>
      </trkpt>
      <trkpt lat="45.14367" lon="4.42148">
        <ele>1111.42</ele>
        <time>2024-11-17T12:23:08Z</time>
      </trkpt>
      <trkpt lat="45.14367" lon="4.42144">
        <ele>1111.9</ele>
        <time>2024-11-17T12:23:10Z</time>
      </trkpt>
      <trkpt lat="45.14371" lon="4.42117">
        <ele>1115.75</ele>
        <time>2024-11-17T12:23:26Z</time>
      </trkpt>
      <trkpt lat="45.14367" lon="4.42088">
        <ele>1118.15</ele>
        <time>2024-11-17T12:23:42Z</time>
      </trkpt>
      <trkpt lat="45.14354" lon="4.42073">
        <ele>1119.59</ele>
        <time>2024-11-17T12:23:56Z</time>
      </trkpt>
      <trkpt lat="45.1434" lon="4.42068">
        <ele>1122</ele>
        <time>2024-11-17T12:24:10Z</time>
      </trkpt>
      <trkpt lat="45.14326" lon="4.42066">
        <ele>1123.92</ele>
        <time>2024-11-17T12:24:23Z</time>
      </trkpt>
      <trkpt lat="45.14305" lon="4.42051">
        <ele>1126.32</ele>
        <time>2024-11-17T12:24:41Z</time>
      </trkpt>
      <trkpt lat="45.143" lon="4.42043">
        <ele>1128.24</ele>
        <time>2024-11-17T12:24:47Z</time>
      </trkpt>
      <trkpt lat="45.14291" lon="4.42028">
        <ele>1130.17</ele>
        <time>2024-11-17T12:24:59Z</time>
      </trkpt>
      <trkpt lat="45.14287" lon="4.42019">
        <ele>1131.13</ele>
        <time>2024-11-17T12:25:05Z</time>
      </trkpt>
      <trkpt lat="45.1428" lon="4.41997">
        <ele>1134.49</ele>
        <time>2024-11-17T12:25:18Z</time>
      </trkpt>
      <trkpt lat="45.14268" lon="4.41977">
        <ele>1134.97</ele>
        <time>2024-11-17T12:25:33Z</time>
      </trkpt>
      <trkpt lat="45.14261" lon="4.41948">
        <ele>1134.01</ele>
        <time>2024-11-17T12:25:51Z</time>
      </trkpt>
      <trkpt lat="45.14258" lon="4.41938">
        <ele>1134.01</ele>
        <time>2024-11-17T12:25:56Z</time>
      </trkpt>
      <trkpt lat="45.14252" lon="4.4192">
        <ele>1134.01</ele>
        <time>2024-11-17T12:26:10Z</time>
      </trkpt>
      <trkpt lat="45.14249" lon="4.41913">
        <ele>1136.9</ele>
        <time>2024-11-17T12:26:17Z</time>
      </trkpt>
      <trkpt lat="45.14241" lon="4.41895">
        <ele>1141.22</ele>
        <time>2024-11-17T12:26:33Z</time>
      </trkpt>
      <trkpt lat="45.14234" lon="4.41864">
        <ele>1144.11</ele>
        <time>2024-11-17T12:26:48Z</time>
      </trkpt>
      <trkpt lat="45.14223" lon="4.41828">
        <ele>1142.66</ele>
        <time>2024-11-17T12:27:06Z</time>
      </trkpt>
      <trkpt lat="45.14209" lon="4.41795">
        <ele>1139.3</ele>
        <time>2024-11-17T12:27:26Z</time>
      </trkpt>
      <trkpt lat="45.14195" lon="4.41776">
        <ele>1141.7</ele>
        <time>2024-11-17T12:27:42Z</time>
      </trkpt>
      <trkpt lat="45.1418" lon="4.41757">
        <ele>1143.63</ele>
        <time>2024-11-17T12:27:59Z</time>
      </trkpt>
      <trkpt lat="45.14169" lon="4.41732">
        <ele>1144.11</ele>
        <time>2024-11-17T12:28:15Z</time>
      </trkpt>
      <trkpt lat="45.14165" lon="4.41713">
        <ele>1146.03</ele>
        <time>2024-11-17T12:28:30Z</time>
      </trkpt>
      <trkpt lat="45.14166" lon="4.41705">
        <ele>1146.51</ele>
        <time>2024-11-17T12:28:44Z</time>
      </trkpt>
      <trkpt lat="45.14166" lon="4.41703">
        <ele>1146.99</ele>
        <time>2024-11-17T12:28:46Z</time>
      </trkpt>
      <trkpt lat="45.14166" lon="4.41696">
        <ele>1147.95</ele>
        <time>2024-11-17T12:28:59Z</time>
      </trkpt>
      <trkpt lat="45.14167" lon="4.41696">
        <ele>1147.47</ele>
        <time>2024-11-17T12:29:17Z</time>
      </trkpt>
      <trkpt lat="45.14167" lon="4.41693">
        <ele>1146.03</ele>
        <time>2024-11-17T12:29:34Z</time>
      </trkpt>
      <trkpt lat="45.14169" lon="4.41676">
        <ele>1148.43</ele>
        <time>2024-11-17T12:29:51Z</time>
      </trkpt>
      <trkpt lat="45.14179" lon="4.41655">
        <ele>1148.43</ele>
        <time>2024-11-17T12:30:08Z</time>
      </trkpt>
      <trkpt lat="45.1418" lon="4.41636">
        <ele>1147.95</ele>
        <time>2024-11-17T12:30:23Z</time>
      </trkpt>
      <trkpt lat="45.14181" lon="4.41628">
        <ele>1147.95</ele>
        <time>2024-11-17T12:30:28Z</time>
      </trkpt>
      <trkpt lat="45.14182" lon="4.41624">
        <ele>1147.47</ele>
        <time>2024-11-17T12:30:31Z</time>
      </trkpt>
      <trkpt lat="45.14187" lon="4.41594">
        <ele>1146.03</ele>
        <time>2024-11-17T12:30:48Z</time>
      </trkpt>
      <trkpt lat="45.14187" lon="4.4158">
        <ele>1145.55</ele>
        <time>2024-11-17T12:30:56Z</time>
      </trkpt>
      <trkpt lat="45.14176" lon="4.41553">
        <ele>1145.55</ele>
        <time>2024-11-17T12:31:13Z</time>
      </trkpt>
      <trkpt lat="45.14174" lon="4.4154">
        <ele>1146.51</ele>
        <time>2024-11-17T12:31:21Z</time>
      </trkpt>
      <trkpt lat="45.1417" lon="4.41511">
        <ele>1145.55</ele>
        <time>2024-11-17T12:31:38Z</time>
      </trkpt>
      <trkpt lat="45.14164" lon="4.41485">
        <ele>1146.03</ele>
        <time>2024-11-17T12:31:53Z</time>
      </trkpt>
      <trkpt lat="45.14153" lon="4.41458">
        <ele>1145.55</ele>
        <time>2024-11-17T12:32:10Z</time>
      </trkpt>
      <trkpt lat="45.14152" lon="4.41453">
        <ele>1145.55</ele>
        <time>2024-11-17T12:32:13Z</time>
      </trkpt>
      <trkpt lat="45.1415" lon="4.41451">
        <ele>1145.55</ele>
        <time>2024-11-17T12:32:15Z</time>
      </trkpt>
      <trkpt lat="45.14149" lon="4.41445">
        <ele>1146.03</ele>
        <time>2024-11-17T12:32:21Z</time>
      </trkpt>
      <trkpt lat="45.14148" lon="4.41437">
        <ele>1145.07</ele>
        <time>2024-11-17T12:32:26Z</time>
      </trkpt>
      <trkpt lat="45.14143" lon="4.41423">
        <ele>1145.07</ele>
        <time>2024-11-17T12:32:35Z</time>
      </trkpt>
      <trkpt lat="45.14139" lon="4.41408">
        <ele>1145.07</ele>
        <time>2024-11-17T12:32:44Z</time>
      </trkpt>
      <trkpt lat="45.14133" lon="4.41385">
        <ele>1145.55</ele>
        <time>2024-11-17T12:33:00Z</time>
      </trkpt>
      <trkpt lat="45.14131" lon="4.4138">
        <ele>1145.55</ele>
        <time>2024-11-17T12:33:03Z</time>
      </trkpt>
      <trkpt lat="45.14123" lon="4.41354">
        <ele>1145.55</ele>
        <time>2024-11-17T12:33:20Z</time>
      </trkpt>
      <trkpt lat="45.14112" lon="4.41327">
        <ele>1144.59</ele>
        <time>2024-11-17T12:33:39Z</time>
      </trkpt>
      <trkpt lat="45.14103" lon="4.41302">
        <ele>1144.11</ele>
        <time>2024-11-17T12:33:56Z</time>
      </trkpt>
      <trkpt lat="45.14095" lon="4.4128">
        <ele>1142.66</ele>
        <time>2024-11-17T12:34:11Z</time>
      </trkpt>
      <trkpt lat="45.14089" lon="4.41264">
        <ele>1141.7</ele>
        <time>2024-11-17T12:34:21Z</time>
      </trkpt>
      <trkpt lat="45.14082" lon="4.41241">
        <ele>1141.22</ele>
        <time>2024-11-17T12:34:35Z</time>
      </trkpt>
      <trkpt lat="45.14074" lon="4.41214">
        <ele>1141.7</ele>
        <time>2024-11-17T12:34:51Z</time>
      </trkpt>
      <trkpt lat="45.14073" lon="4.41204">
        <ele>1142.66</ele>
        <time>2024-11-17T12:34:56Z</time>
      </trkpt>
      <trkpt lat="45.14069" lon="4.41176">
        <ele>1143.14</ele>
        <time>2024-11-17T12:35:11Z</time>
      </trkpt>
      <trkpt lat="45.14065" lon="4.41153">
        <ele>1145.07</ele>
        <time>2024-11-17T12:35:25Z</time>
      </trkpt>
      <trkpt lat="45.14063" lon="4.41148">
        <ele>1145.07</ele>
        <time>2024-11-17T12:35:28Z</time>
      </trkpt>
      <trkpt lat="45.14063" lon="4.41142">
        <ele>1145.55</ele>
        <time>2024-11-17T12:35:32Z</time>
      </trkpt>
      <trkpt lat="45.14069" lon="4.41115">
        <ele>1146.99</ele>
        <time>2024-11-17T12:35:49Z</time>
      </trkpt>
      <trkpt lat="45.14076" lon="4.41098">
        <ele>1148.43</ele>
        <time>2024-11-17T12:36:04Z</time>
      </trkpt>
      <trkpt lat="45.14084" lon="4.4108">
        <ele>1145.55</ele>
        <time>2024-11-17T12:36:19Z</time>
      </trkpt>
      <trkpt lat="45.1409" lon="4.41059">
        <ele>1142.66</ele>
        <time>2024-11-17T12:36:34Z</time>
      </trkpt>
      <trkpt lat="45.14095" lon="4.41031">
        <ele>1142.66</ele>
        <time>2024-11-17T12:36:51Z</time>
      </trkpt>
      <trkpt lat="45.14097" lon="4.41012">
        <ele>1144.59</ele>
        <time>2024-11-17T12:37:06Z</time>
      </trkpt>
      <trkpt lat="45.14098" lon="4.40987">
        <ele>1146.99</ele>
        <time>2024-11-17T12:37:21Z</time>
      </trkpt>
      <trkpt lat="45.141" lon="4.40959">
        <ele>1148.43</ele>
        <time>2024-11-17T12:37:35Z</time>
      </trkpt>
      <trkpt lat="45.14098" lon="4.40931">
        <ele>1148.91</ele>
        <time>2024-11-17T12:37:52Z</time>
      </trkpt>
      <trkpt lat="45.14098" lon="4.40917">
        <ele>1149.87</ele>
        <time>2024-11-17T12:38:00Z</time>
      </trkpt>
      <trkpt lat="45.14098" lon="4.40912">
        <ele>1149.87</ele>
        <time>2024-11-17T12:38:03Z</time>
      </trkpt>
      <trkpt lat="45.14097" lon="4.40885">
        <ele>1154.2</ele>
        <time>2024-11-17T12:38:20Z</time>
      </trkpt>
      <trkpt lat="45.14096" lon="4.40874">
        <ele>1155.64</ele>
        <time>2024-11-17T12:38:30Z</time>
      </trkpt>
      <trkpt lat="45.14094" lon="4.40854">
        <ele>1155.64</ele>
        <time>2024-11-17T12:38:40Z</time>
      </trkpt>
      <trkpt lat="45.14091" lon="4.40825">
        <ele>1154.2</ele>
        <time>2024-11-17T12:38:56Z</time>
      </trkpt>
      <trkpt lat="45.14095" lon="4.40824">
        <ele>1153.72</ele>
        <time>2024-11-17T12:39:06Z</time>
      </trkpt>
      <trkpt lat="45.14092" lon="4.40825">
        <ele>1154.68</ele>
        <time>2024-11-17T12:39:12Z</time>
      </trkpt>
      <trkpt lat="45.14091" lon="4.40815">
        <ele>1154.2</ele>
        <time>2024-11-17T12:39:17Z</time>
      </trkpt>
      <trkpt lat="45.14084" lon="4.40781">
        <ele>1154.2</ele>
        <time>2024-11-17T12:39:33Z</time>
      </trkpt>
      <trkpt lat="45.14085" lon="4.40777">
        <ele>1154.68</ele>
        <time>2024-11-17T12:39:35Z</time>
      </trkpt>
      <trkpt lat="45.14084" lon="4.4077">
        <ele>1154.2</ele>
        <time>2024-11-17T12:39:39Z</time>
      </trkpt>
      <trkpt lat="45.14078" lon="4.40736">
        <ele>1154.68</ele>
        <time>2024-11-17T12:39:58Z</time>
      </trkpt>
      <trkpt lat="45.14076" lon="4.40705">
        <ele>1157.08</ele>
        <time>2024-11-17T12:40:14Z</time>
      </trkpt>
      <trkpt lat="45.14077" lon="4.40676">
        <ele>1159.01</ele>
        <time>2024-11-17T12:40:29Z</time>
      </trkpt>
      <trkpt lat="45.14076" lon="4.40655">
        <ele>1160.93</ele>
        <time>2024-11-17T12:40:42Z</time>
      </trkpt>
      <trkpt lat="45.14073" lon="4.40626">
        <ele>1164.77</ele>
        <time>2024-11-17T12:40:59Z</time>
      </trkpt>
      <trkpt lat="45.1407" lon="4.40597">
        <ele>1165.74</ele>
        <time>2024-11-17T12:41:14Z</time>
      </trkpt>
      <trkpt lat="45.14068" lon="4.40576">
        <ele>1164.77</ele>
        <time>2024-11-17T12:41:29Z</time>
      </trkpt>
      <trkpt lat="45.14066" lon="4.40574">
        <ele>1162.37</ele>
        <time>2024-11-17T12:41:43Z</time>
      </trkpt>
      <trkpt lat="45.14064" lon="4.40566">
        <ele>1159.49</ele>
        <time>2024-11-17T12:42:00Z</time>
      </trkpt>
      <trkpt lat="45.14063" lon="4.4054">
        <ele>1159.01</ele>
        <time>2024-11-17T12:42:15Z</time>
      </trkpt>
      <trkpt lat="45.1406" lon="4.40519">
        <ele>1157.56</ele>
        <time>2024-11-17T12:42:28Z</time>
      </trkpt>
      <trkpt lat="45.14057" lon="4.40486">
        <ele>1157.08</ele>
        <time>2024-11-17T12:42:44Z</time>
      </trkpt>
      <trkpt lat="45.14055" lon="4.40464">
        <ele>1158.05</ele>
        <time>2024-11-17T12:42:56Z</time>
      </trkpt>
      <trkpt lat="45.14057" lon="4.40446">
        <ele>1158.05</ele>
        <time>2024-11-17T12:43:14Z</time>
      </trkpt>
      <trkpt lat="45.14057" lon="4.40439">
        <ele>1157.56</ele>
        <time>2024-11-17T12:43:18Z</time>
      </trkpt>
      <trkpt lat="45.14055" lon="4.40402">
        <ele>1158.05</ele>
        <time>2024-11-17T12:43:35Z</time>
      </trkpt>
      <trkpt lat="45.14057" lon="4.4037">
        <ele>1156.6</ele>
        <time>2024-11-17T12:43:51Z</time>
      </trkpt>
      <trkpt lat="45.14057" lon="4.40336">
        <ele>1154.2</ele>
        <time>2024-11-17T12:44:07Z</time>
      </trkpt>
      <trkpt lat="45.14058" lon="4.40299">
        <ele>1152.76</ele>
        <time>2024-11-17T12:44:26Z</time>
      </trkpt>
      <trkpt lat="45.14062" lon="4.40262">
        <ele>1149.87</ele>
        <time>2024-11-17T12:44:44Z</time>
      </trkpt>
      <trkpt lat="45.14066" lon="4.4023">
        <ele>1145.07</ele>
        <time>2024-11-17T12:45:00Z</time>
      </trkpt>
      <trkpt lat="45.14071" lon="4.40199">
        <ele>1142.66</ele>
        <time>2024-11-17T12:45:15Z</time>
      </trkpt>
      <trkpt lat="45.14074" lon="4.40174">
        <ele>1141.22</ele>
        <time>2024-11-17T12:45:28Z</time>
      </trkpt>
      <trkpt lat="45.14081" lon="4.40144">
        <ele>1139.78</ele>
        <time>2024-11-17T12:45:44Z</time>
      </trkpt>
      <trkpt lat="45.14085" lon="4.40136">
        <ele>1139.3</ele>
        <time>2024-11-17T12:45:49Z</time>
      </trkpt>
      <trkpt lat="45.14089" lon="4.4013">
        <ele>1139.3</ele>
        <time>2024-11-17T12:45:53Z</time>
      </trkpt>
      <trkpt lat="45.14114" lon="4.40108">
        <ele>1137.86</ele>
        <time>2024-11-17T12:46:12Z</time>
      </trkpt>
      <trkpt lat="45.14132" lon="4.40092">
        <ele>1141.22</ele>
        <time>2024-11-17T12:46:30Z</time>
      </trkpt>
      <trkpt lat="45.14142" lon="4.40072">
        <ele>1138.34</ele>
        <time>2024-11-17T12:46:44Z</time>
      </trkpt>
      <trkpt lat="45.14158" lon="4.40038">
        <ele>1134.49</ele>
        <time>2024-11-17T12:47:03Z</time>
      </trkpt>
      <trkpt lat="45.14167" lon="4.40011">
        <ele>1132.09</ele>
        <time>2024-11-17T12:47:19Z</time>
      </trkpt>
      <trkpt lat="45.14177" lon="4.39984">
        <ele>1131.13</ele>
        <time>2024-11-17T12:47:36Z</time>
      </trkpt>
      <trkpt lat="45.14187" lon="4.39959">
        <ele>1129.69</ele>
        <time>2024-11-17T12:47:50Z</time>
      </trkpt>
      <trkpt lat="45.14189" lon="4.39937">
        <ele>1127.76</ele>
        <time>2024-11-17T12:48:02Z</time>
      </trkpt>
      <trkpt lat="45.142" lon="4.3991">
        <ele>1124.88</ele>
        <time>2024-11-17T12:48:17Z</time>
      </trkpt>
      <trkpt lat="45.14201" lon="4.39909">
        <ele>1124.4</ele>
        <time>2024-11-17T12:48:18Z</time>
      </trkpt>
      <trkpt lat="45.14202" lon="4.39905">
        <ele>1123.92</ele>
        <time>2024-11-17T12:48:20Z</time>
      </trkpt>
      <trkpt lat="45.14205" lon="4.39897">
        <ele>1122</ele>
        <time>2024-11-17T12:48:24Z</time>
      </trkpt>
      <trkpt lat="45.14214" lon="4.39859">
        <ele>1116.71</ele>
        <time>2024-11-17T12:48:42Z</time>
      </trkpt>
      <trkpt lat="45.14217" lon="4.39828">
        <ele>1114.31</ele>
        <time>2024-11-17T12:48:58Z</time>
      </trkpt>
      <trkpt lat="45.14219" lon="4.39812">
        <ele>1114.31</ele>
        <time>2024-11-17T12:49:06Z</time>
      </trkpt>
      <trkpt lat="45.14225" lon="4.39778">
        <ele>1113.82</ele>
        <time>2024-11-17T12:49:24Z</time>
      </trkpt>
      <trkpt lat="45.14233" lon="4.39743">
        <ele>1114.79</ele>
        <time>2024-11-17T12:49:41Z</time>
      </trkpt>
      <trkpt lat="45.14243" lon="4.39718">
        <ele>1116.71</ele>
        <time>2024-11-17T12:49:58Z</time>
      </trkpt>
      <trkpt lat="45.14252" lon="4.39697">
        <ele>1117.19</ele>
        <time>2024-11-17T12:50:13Z</time>
      </trkpt>
      <trkpt lat="45.14268" lon="4.39677">
        <ele>1118.15</ele>
        <time>2024-11-17T12:50:30Z</time>
      </trkpt>
      <trkpt lat="45.14282" lon="4.39663">
        <ele>1117.67</ele>
        <time>2024-11-17T12:50:44Z</time>
      </trkpt>
      <trkpt lat="45.143" lon="4.39641">
        <ele>1120.55</ele>
        <time>2024-11-17T12:51:01Z</time>
      </trkpt>
      <trkpt lat="45.14317" lon="4.39621">
        <ele>1122.48</ele>
        <time>2024-11-17T12:51:17Z</time>
      </trkpt>
      <trkpt lat="45.1433" lon="4.39599">
        <ele>1121.03</ele>
        <time>2024-11-17T12:51:32Z</time>
      </trkpt>
      <trkpt lat="45.1434" lon="4.39572">
        <ele>1118.15</ele>
        <time>2024-11-17T12:51:48Z</time>
      </trkpt>
      <trkpt lat="45.14351" lon="4.39546">
        <ele>1117.19</ele>
        <time>2024-11-17T12:52:04Z</time>
      </trkpt>
      <trkpt lat="45.14366" lon="4.39524">
        <ele>1116.71</ele>
        <time>2024-11-17T12:52:20Z</time>
      </trkpt>
      <trkpt lat="45.14379" lon="4.39501">
        <ele>1116.23</ele>
        <time>2024-11-17T12:52:35Z</time>
      </trkpt>
      <trkpt lat="45.1439" lon="4.39489">
        <ele>1090.6</ele>
      </trkpt>
      <trkpt lat="45.1441" lon="4.39453">
        <ele>1089.3</ele>
      </trkpt>
      <trkpt lat="45.14439" lon="4.39396">
        <ele>1088</ele>
      </trkpt>
      <trkpt lat="45.14443" lon="4.3938">
        <ele>1087.7</ele>
      </trkpt>
      <trkpt lat="45.14442" lon="4.39362">
        <ele>1086.9</ele>
      </trkpt>
      <trkpt lat="45.14437" lon="4.39352">
        <ele>1086.5</ele>
      </trkpt>
      <trkpt lat="45.14422" lon="4.39328">
        <ele>1085.7</ele>
      </trkpt>
      <trkpt lat="45.14414" lon="4.39318">
        <ele>1084.7</ele>
      </trkpt>
      <trkpt lat="45.14399" lon="4.393">
        <ele>1082.4</ele>
      </trkpt>
      <trkpt lat="45.14387" lon="4.39282">
        <ele>1080</ele>
      </trkpt>
      <trkpt lat="45.14388" lon="4.39267">
        <ele>1079.1</ele>
      </trkpt>
      <trkpt lat="45.1439" lon="4.39258">
        <ele>1078.7</ele>
      </trkpt>
      <trkpt lat="45.14399" lon="4.39216">
        <ele>1075.6</ele>
      </trkpt>
      <trkpt lat="45.14406" lon="4.39184">
        <ele>1081.62</ele>
        <time>2024-11-17T13:01:21Z</time>
      </trkpt>
      <trkpt lat="45.14408" lon="4.39149">
        <ele>1080.18</ele>
        <time>2024-11-17T13:01:39Z</time>
      </trkpt>
      <trkpt lat="45.14404" lon="4.39113">
        <ele>1072.97</ele>
        <time>2024-11-17T13:01:59Z</time>
      </trkpt>
      <trkpt lat="45.14401" lon="4.3909">
        <ele>1073.45</ele>
        <time>2024-11-17T13:02:14Z</time>
      </trkpt>
      <trkpt lat="45.14396" lon="4.39058">
        <ele>1072.97</ele>
        <time>2024-11-17T13:02:33Z</time>
      </trkpt>
      <trkpt lat="45.14391" lon="4.39022">
        <ele>1071.05</ele>
        <time>2024-11-17T13:02:53Z</time>
      </trkpt>
      <trkpt lat="45.14385" lon="4.3898">
        <ele>1070.57</ele>
        <time>2024-11-17T13:03:15Z</time>
      </trkpt>
      <trkpt lat="45.14382" lon="4.38941">
        <ele>1071.53</ele>
        <time>2024-11-17T13:03:36Z</time>
      </trkpt>
      <trkpt lat="45.14378" lon="4.38908">
        <ele>1071.53</ele>
        <time>2024-11-17T13:03:55Z</time>
      </trkpt>
      <trkpt lat="45.1437" lon="4.38876">
        <ele>1073.93</ele>
        <time>2024-11-17T13:04:14Z</time>
      </trkpt>
      <trkpt lat="45.14368" lon="4.3887">
        <ele>1073.93</ele>
        <time>2024-11-17T13:04:18Z</time>
      </trkpt>
      <trkpt lat="45.14368" lon="4.3885">
        <ele>1072.97</ele>
        <time>2024-11-17T13:04:28Z</time>
      </trkpt>
      <trkpt lat="45.14363" lon="4.38823">
        <ele>1074.41</ele>
        <time>2024-11-17T13:04:47Z</time>
      </trkpt>
      <trkpt lat="45.14359" lon="4.38799">
        <ele>1080.18</ele>
        <time>2024-11-17T13:05:04Z</time>
      </trkpt>
      <trkpt lat="45.14356" lon="4.38771">
        <ele>1081.62</ele>
        <time>2024-11-17T13:05:20Z</time>
      </trkpt>
      <trkpt lat="45.14354" lon="4.38745">
        <ele>1083.06</ele>
        <time>2024-11-17T13:05:34Z</time>
      </trkpt>
      <trkpt lat="45.14354" lon="4.38732">
        <ele>1082.1</ele>
        <time>2024-11-17T13:05:41Z</time>
      </trkpt>
      <trkpt lat="45.14353" lon="4.38729">
        <ele>1081.62</ele>
        <time>2024-11-17T13:05:43Z</time>
      </trkpt>
      <trkpt lat="45.14352" lon="4.38715">
        <ele>1079.22</ele>
        <time>2024-11-17T13:05:50Z</time>
      </trkpt>
      <trkpt lat="45.14352" lon="4.38712">
        <ele>1079.7</ele>
        <time>2024-11-17T13:05:52Z</time>
      </trkpt>
      <trkpt lat="45.14351" lon="4.3869">
        <ele>1078.26</ele>
        <time>2024-11-17T13:06:05Z</time>
      </trkpt>
      <trkpt lat="45.14351" lon="4.38683">
        <ele>1076.81</ele>
        <time>2024-11-17T13:06:08Z</time>
      </trkpt>
      <trkpt lat="45.1435" lon="4.38671">
        <ele>1073.45</ele>
        <time>2024-11-17T13:06:13Z</time>
      </trkpt>
      <trkpt lat="45.14349" lon="4.38648">
        <ele>1071.05</ele>
        <time>2024-11-17T13:06:27Z</time>
      </trkpt>
      <trkpt lat="45.14348" lon="4.38618">
        <ele>1068.64</ele>
        <time>2024-11-17T13:06:42Z</time>
      </trkpt>
      <trkpt lat="45.14348" lon="4.38588">
        <ele>1063.36</ele>
        <time>2024-11-17T13:06:57Z</time>
      </trkpt>
      <trkpt lat="45.14354" lon="4.38559">
        <ele>1061.43</ele>
        <time>2024-11-17T13:07:13Z</time>
      </trkpt>
      <trkpt lat="45.14356" lon="4.38551">
        <ele>1062.87</ele>
        <time>2024-11-17T13:07:20Z</time>
      </trkpt>
      <trkpt lat="45.14361" lon="4.38529">
        <ele>1065.76</ele>
        <time>2024-11-17T13:07:35Z</time>
      </trkpt>
      <trkpt lat="45.14363" lon="4.38499">
        <ele>1065.76</ele>
        <time>2024-11-17T13:07:50Z</time>
      </trkpt>
      <trkpt lat="45.14364" lon="4.38458">
        <ele>1052.3</ele>
        <time>2024-11-17T13:08:08Z</time>
      </trkpt>
      <trkpt lat="45.1436" lon="4.38422">
        <ele>1041.73</ele>
        <time>2024-11-17T13:08:27Z</time>
      </trkpt>
      <trkpt lat="45.14364" lon="4.38388">
        <ele>1031.63</ele>
        <time>2024-11-17T13:08:46Z</time>
      </trkpt>
      <trkpt lat="45.14383" lon="4.38358">
        <ele>1029.71</ele>
        <time>2024-11-17T13:09:05Z</time>
      </trkpt>
      <trkpt lat="45.14405" lon="4.38332">
        <ele>1028.27</ele>
        <time>2024-11-17T13:09:26Z</time>
      </trkpt>
      <trkpt lat="45.14426" lon="4.38309">
        <ele>1027.31</ele>
        <time>2024-11-17T13:09:46Z</time>
      </trkpt>
      <trkpt lat="45.1444" lon="4.3829">
        <ele>1026.34</ele>
        <time>2024-11-17T13:10:01Z</time>
      </trkpt>
      <trkpt lat="45.14444" lon="4.38284">
        <ele>1025.86</ele>
        <time>2024-11-17T13:10:06Z</time>
      </trkpt>
      <trkpt lat="45.14446" lon="4.3828">
        <ele>1024.42</ele>
        <time>2024-11-17T13:10:20Z</time>
      </trkpt>
      <trkpt lat="45.14455" lon="4.38274">
        <ele>1024.42</ele>
        <time>2024-11-17T13:10:33Z</time>
      </trkpt>
      <trkpt lat="45.1446" lon="4.3827">
        <ele>1023.94</ele>
        <time>2024-11-17T13:10:38Z</time>
      </trkpt>
      <trkpt lat="45.14465" lon="4.38265">
        <ele>1023.46</ele>
        <time>2024-11-17T13:10:43Z</time>
      </trkpt>
      <trkpt lat="45.14479" lon="4.38254">
        <ele>1023.94</ele>
        <time>2024-11-17T13:10:57Z</time>
      </trkpt>
      <trkpt lat="45.14495" lon="4.38247">
        <ele>1022.5</ele>
        <time>2024-11-17T13:11:12Z</time>
      </trkpt>
      <trkpt lat="45.14513" lon="4.38243">
        <ele>1019.62</ele>
        <time>2024-11-17T13:11:26Z</time>
      </trkpt>
      <trkpt lat="45.14535" lon="4.38251">
        <ele>1017.21</ele>
        <time>2024-11-17T13:11:43Z</time>
      </trkpt>
      <trkpt lat="45.1455" lon="4.38254">
        <ele>1017.21</ele>
        <time>2024-11-17T13:11:54Z</time>
      </trkpt>
      <trkpt lat="45.14568" lon="4.38248">
        <ele>1016.73</ele>
        <time>2024-11-17T13:12:11Z</time>
      </trkpt>
      <trkpt lat="45.14584" lon="4.38233">
        <ele>1019.13</ele>
        <time>2024-11-17T13:12:25Z</time>
      </trkpt>
      <trkpt lat="45.14596" lon="4.38209">
        <ele>1019.62</ele>
        <time>2024-11-17T13:12:41Z</time>
      </trkpt>
      <trkpt lat="45.14618" lon="4.38201">
        <ele>1018.65</ele>
        <time>2024-11-17T13:12:57Z</time>
      </trkpt>
      <trkpt lat="45.14632" lon="4.38193">
        <ele>1019.13</ele>
        <time>2024-11-17T13:13:12Z</time>
      </trkpt>
      <trkpt lat="45.14647" lon="4.38176">
        <ele>1018.65</ele>
        <time>2024-11-17T13:13:27Z</time>
      </trkpt>
      <trkpt lat="45.14665" lon="4.38154">
        <ele>1020.1</ele>
        <time>2024-11-17T13:13:47Z</time>
      </trkpt>
      <trkpt lat="45.14678" lon="4.38141">
        <ele>1022.02</ele>
        <time>2024-11-17T13:14:02Z</time>
      </trkpt>
      <trkpt lat="45.1469" lon="4.38133">
        <ele>1022.5</ele>
        <time>2024-11-17T13:14:15Z</time>
      </trkpt>
      <trkpt lat="45.14704" lon="4.38125">
        <ele>1024.42</ele>
        <time>2024-11-17T13:14:30Z</time>
      </trkpt>
      <trkpt lat="45.14721" lon="4.38117">
        <ele>1024.9</ele>
        <time>2024-11-17T13:14:44Z</time>
      </trkpt>
      <trkpt lat="45.14735" lon="4.38109">
        <ele>1026.34</ele>
        <time>2024-11-17T13:14:55Z</time>
      </trkpt>
      <trkpt lat="45.14754" lon="4.38099">
        <ele>1028.27</ele>
        <time>2024-11-17T13:15:10Z</time>
      </trkpt>
      <trkpt lat="45.14756" lon="4.38097">
        <ele>1028.27</ele>
        <time>2024-11-17T13:15:12Z</time>
      </trkpt>
      <trkpt lat="45.14782" lon="4.38081">
        <ele>1027.31</ele>
        <time>2024-11-17T13:15:30Z</time>
      </trkpt>
      <trkpt lat="45.148" lon="4.38072">
        <ele>1028.75</ele>
        <time>2024-11-17T13:15:44Z</time>
      </trkpt>
      <trkpt lat="45.14816" lon="4.3805">
        <ele>1032.11</ele>
        <time>2024-11-17T13:16:00Z</time>
      </trkpt>
      <trkpt lat="45.14828" lon="4.38035">
        <ele>1033.07</ele>
        <time>2024-11-17T13:16:12Z</time>
      </trkpt>
      <trkpt lat="45.14834" lon="4.38031">
        <ele>1032.11</ele>
        <time>2024-11-17T13:16:17Z</time>
      </trkpt>
      <trkpt lat="45.14853" lon="4.38011">
        <ele>1033.07</ele>
        <time>2024-11-17T13:16:36Z</time>
      </trkpt>
      <trkpt lat="45.14863" lon="4.3799">
        <ele>1032.59</ele>
        <time>2024-11-17T13:16:51Z</time>
      </trkpt>
      <trkpt lat="45.1487" lon="4.37964">
        <ele>1030.19</ele>
        <time>2024-11-17T13:17:07Z</time>
      </trkpt>
      <trkpt lat="45.14873" lon="4.37949">
        <ele>1028.75</ele>
        <time>2024-11-17T13:17:15Z</time>
      </trkpt>
      <trkpt lat="45.14875" lon="4.37942">
        <ele>1027.79</ele>
        <time>2024-11-17T13:17:19Z</time>
      </trkpt>
      <trkpt lat="45.14878" lon="4.37905">
        <ele>1026.83</ele>
        <time>2024-11-17T13:17:41Z</time>
      </trkpt>
      <trkpt lat="45.14878" lon="4.37897">
        <ele>1027.79</ele>
        <time>2024-11-17T13:17:46Z</time>
      </trkpt>
      <trkpt lat="45.14875" lon="4.37874">
        <ele>1030.67</ele>
        <time>2024-11-17T13:18:02Z</time>
      </trkpt>
      <trkpt lat="45.14877" lon="4.37851">
        <ele>1032.11</ele>
        <time>2024-11-17T13:18:16Z</time>
      </trkpt>
      <trkpt lat="45.14877" lon="4.37828">
        <ele>1037.4</ele>
        <time>2024-11-17T13:18:32Z</time>
      </trkpt>
      <trkpt lat="45.14875" lon="4.37793">
        <ele>1038.36</ele>
        <time>2024-11-17T13:18:49Z</time>
      </trkpt>
      <trkpt lat="45.14866" lon="4.3777">
        <ele>1039.8</ele>
        <time>2024-11-17T13:19:04Z</time>
      </trkpt>
      <trkpt lat="45.14853" lon="4.37749">
        <ele>1043.65</ele>
        <time>2024-11-17T13:19:20Z</time>
      </trkpt>
      <trkpt lat="45.14841" lon="4.37727">
        <ele>1048.94</ele>
        <time>2024-11-17T13:19:36Z</time>
      </trkpt>
      <trkpt lat="45.14834" lon="4.37716">
        <ele>1051.34</ele>
        <time>2024-11-17T13:19:44Z</time>
      </trkpt>
      <trkpt lat="45.14818" lon="4.3769">
        <ele>1055.18</ele>
        <time>2024-11-17T13:20:02Z</time>
      </trkpt>
      <trkpt lat="45.14803" lon="4.37669">
        <ele>1058.07</ele>
        <time>2024-11-17T13:20:19Z</time>
      </trkpt>
      <trkpt lat="45.14788" lon="4.37646">
        <ele>1061.91</ele>
        <time>2024-11-17T13:20:36Z</time>
      </trkpt>
      <trkpt lat="45.14773" lon="4.37623">
        <ele>1061.91</ele>
        <time>2024-11-17T13:20:52Z</time>
      </trkpt>
      <trkpt lat="45.14758" lon="4.37599">
        <ele>1061.91</ele>
        <time>2024-11-17T13:21:09Z</time>
      </trkpt>
      <trkpt lat="45.14747" lon="4.37586">
        <ele>1060.95</ele>
        <time>2024-11-17T13:21:20Z</time>
      </trkpt>
      <trkpt lat="45.1473" lon="4.3758">
        <ele>1059.51</ele>
        <time>2024-11-17T13:21:35Z</time>
      </trkpt>
      <trkpt lat="45.14709" lon="4.37571">
        <ele>1060.95</ele>
        <time>2024-11-17T13:21:51Z</time>
      </trkpt>
      <trkpt lat="45.14694" lon="4.37541">
        <ele>1053.74</ele>
        <time>2024-11-17T13:22:09Z</time>
      </trkpt>
      <trkpt lat="45.14692" lon="4.375">
        <ele>1047.01</ele>
        <time>2024-11-17T13:22:27Z</time>
      </trkpt>
      <trkpt lat="45.14696" lon="4.37464">
        <ele>1040.76</ele>
        <time>2024-11-17T13:22:47Z</time>
      </trkpt>
      <trkpt lat="45.14704" lon="4.37432">
        <ele>1038.36</ele>
        <time>2024-11-17T13:23:05Z</time>
      </trkpt>
      <trkpt lat="45.1471" lon="4.37417">
        <ele>1037.4</ele>
        <time>2024-11-17T13:23:15Z</time>
      </trkpt>
      <trkpt lat="45.14717" lon="4.37409">
        <ele>1037.4</ele>
        <time>2024-11-17T13:23:26Z</time>
      </trkpt>
      <trkpt lat="45.14719" lon="4.37406">
        <ele>1036.92</ele>
        <time>2024-11-17T13:23:29Z</time>
      </trkpt>
      <trkpt lat="45.14738" lon="4.37393">
        <ele>1034.04</ele>
        <time>2024-11-17T13:23:46Z</time>
      </trkpt>
      <trkpt lat="45.1476" lon="4.37379">
        <ele>1034.52</ele>
        <time>2024-11-17T13:24:04Z</time>
      </trkpt>
      <trkpt lat="45.14786" lon="4.37364">
        <ele>1034.04</ele>
        <time>2024-11-17T13:24:25Z</time>
      </trkpt>
      <trkpt lat="45.148" lon="4.37357">
        <ele>1034.04</ele>
        <time>2024-11-17T13:24:39Z</time>
      </trkpt>
      <trkpt lat="45.14822" lon="4.37344">
        <ele>1034.04</ele>
        <time>2024-11-17T13:24:58Z</time>
      </trkpt>
      <trkpt lat="45.14843" lon="4.37331">
        <ele>1034.52</ele>
        <time>2024-11-17T13:25:17Z</time>
      </trkpt>
      <trkpt lat="45.14865" lon="4.37314">
        <ele>1035</ele>
        <time>2024-11-17T13:25:35Z</time>
      </trkpt>
      <trkpt lat="45.1489" lon="4.37287">
        <ele>1036.44</ele>
        <time>2024-11-17T13:25:57Z</time>
      </trkpt>
      <trkpt lat="45.14911" lon="4.37263">
        <ele>1036.92</ele>
        <time>2024-11-17T13:26:17Z</time>
      </trkpt>
      <trkpt lat="45.14934" lon="4.37241">
        <ele>1037.88</ele>
        <time>2024-11-17T13:26:39Z</time>
      </trkpt>
      <trkpt lat="45.14958" lon="4.37226">
        <ele>1039.8</ele>
        <time>2024-11-17T13:26:59Z</time>
      </trkpt>
      <trkpt lat="45.1498" lon="4.37213">
        <ele>1042.21</ele>
        <time>2024-11-17T13:27:18Z</time>
      </trkpt>
      <trkpt lat="45.15002" lon="4.37199">
        <ele>1044.13</ele>
        <time>2024-11-17T13:27:36Z</time>
      </trkpt>
      <trkpt lat="45.15025" lon="4.37181">
        <ele>1045.57</ele>
        <time>2024-11-17T13:27:56Z</time>
      </trkpt>
      <trkpt lat="45.15049" lon="4.37152">
        <ele>1046.53</ele>
        <time>2024-11-17T13:28:19Z</time>
      </trkpt>
      <trkpt lat="45.15059" lon="4.37129">
        <ele>1045.57</ele>
        <time>2024-11-17T13:28:35Z</time>
      </trkpt>
      <trkpt lat="45.15074" lon="4.37108">
        <ele>1047.97</ele>
        <time>2024-11-17T13:28:53Z</time>
      </trkpt>
      <trkpt lat="45.15087" lon="4.37097">
        <ele>1051.82</ele>
        <time>2024-11-17T13:29:08Z</time>
      </trkpt>
      <trkpt lat="45.15093" lon="4.37094">
        <ele>1052.78</ele>
        <time>2024-11-17T13:29:13Z</time>
      </trkpt>
      <trkpt lat="45.15112" lon="4.37081">
        <ele>1055.67</ele>
        <time>2024-11-17T13:29:32Z</time>
      </trkpt>
      <trkpt lat="45.15129" lon="4.37068">
        <ele>1058.07</ele>
        <time>2024-11-17T13:29:48Z</time>
      </trkpt>
      <trkpt lat="45.15145" lon="4.37058">
        <ele>1059.03</ele>
        <time>2024-11-17T13:30:04Z</time>
      </trkpt>
      <trkpt lat="45.15152" lon="4.3705">
        <ele>1060.47</ele>
        <time>2024-11-17T13:30:14Z</time>
      </trkpt>
      <trkpt lat="45.15169" lon="4.37034">
        <ele>1063.84</ele>
        <time>2024-11-17T13:30:31Z</time>
      </trkpt>
      <trkpt lat="45.15185" lon="4.37012">
        <ele>1064.8</ele>
        <time>2024-11-17T13:30:49Z</time>
      </trkpt>
      <trkpt lat="45.15202" lon="4.36987">
        <ele>1061.91</ele>
        <time>2024-11-17T13:31:08Z</time>
      </trkpt>
      <trkpt lat="45.15219" lon="4.36956">
        <ele>1057.11</ele>
        <time>2024-11-17T13:31:28Z</time>
      </trkpt>
      <trkpt lat="45.15235" lon="4.36918">
        <ele>1051.34</ele>
        <time>2024-11-17T13:31:51Z</time>
      </trkpt>
      <trkpt lat="45.1525" lon="4.36883">
        <ele>1047.49</ele>
        <time>2024-11-17T13:32:12Z</time>
      </trkpt>
      <trkpt lat="45.15273" lon="4.36846">
        <ele>1047.49</ele>
        <time>2024-11-17T13:32:38Z</time>
      </trkpt>
      <trkpt lat="45.15297" lon="4.36825">
        <ele>1046.05</ele>
        <time>2024-11-17T13:32:58Z</time>
      </trkpt>
      <trkpt lat="45.15323" lon="4.36805">
        <ele>1047.01</ele>
        <time>2024-11-17T13:33:19Z</time>
      </trkpt>
      <trkpt lat="45.15346" lon="4.3679">
        <ele>1048.94</ele>
        <time>2024-11-17T13:33:38Z</time>
      </trkpt>
      <trkpt lat="45.15369" lon="4.36776">
        <ele>1050.38</ele>
        <time>2024-11-17T13:33:57Z</time>
      </trkpt>
      <trkpt lat="45.15388" lon="4.3676">
        <ele>1050.86</ele>
        <time>2024-11-17T13:34:15Z</time>
      </trkpt>
      <trkpt lat="45.15404" lon="4.36741">
        <ele>1051.34</ele>
        <time>2024-11-17T13:34:34Z</time>
      </trkpt>
      <trkpt lat="45.15405" lon="4.36738">
        <ele>1050.86</ele>
        <time>2024-11-17T13:34:36Z</time>
      </trkpt>
      <trkpt lat="45.15409" lon="4.3671">
        <ele>1052.3</ele>
        <time>2024-11-17T13:34:53Z</time>
      </trkpt>
      <trkpt lat="45.15416" lon="4.36678">
        <ele>1053.74</ele>
        <time>2024-11-17T13:35:11Z</time>
      </trkpt>
      <trkpt lat="45.15427" lon="4.36644">
        <ele>1052.3</ele>
        <time>2024-11-17T13:35:32Z</time>
      </trkpt>
      <trkpt lat="45.15438" lon="4.36611">
        <ele>1052.3</ele>
        <time>2024-11-17T13:35:52Z</time>
      </trkpt>
      <trkpt lat="45.15449" lon="4.36581">
        <ele>1053.26</ele>
        <time>2024-11-17T13:36:11Z</time>
      </trkpt>
      <trkpt lat="45.15444" lon="4.36555">
        <ele>1053.74</ele>
        <time>2024-11-17T13:36:27Z</time>
      </trkpt>
      <trkpt lat="45.15438" lon="4.36532">
        <ele>1053.74</ele>
        <time>2024-11-17T13:36:45Z</time>
      </trkpt>
      <trkpt lat="45.1544" lon="4.3653">
        <ele>1054.7</ele>
        <time>2024-11-17T13:36:57Z</time>
      </trkpt>
      <trkpt lat="45.15447" lon="4.36525">
        <ele>1055.67</ele>
        <time>2024-11-17T13:37:10Z</time>
      </trkpt>
      <trkpt lat="45.15445" lon="4.36526">
        <ele>1052.3</ele>
        <time>2024-11-17T13:37:26Z</time>
      </trkpt>
      <trkpt lat="45.15443" lon="4.36527">
        <ele>1051.34</ele>
        <time>2024-11-17T13:37:28Z</time>
      </trkpt>
      <trkpt lat="45.15439" lon="4.36527">
        <ele>1050.38</ele>
        <time>2024-11-17T13:37:33Z</time>
      </trkpt>
      <trkpt lat="45.15429" lon="4.365">
        <ele>1048.94</ele>
        <time>2024-11-17T13:37:49Z</time>
      </trkpt>
      <trkpt lat="45.15425" lon="4.3649">
        <ele>1049.42</ele>
        <time>2024-11-17T13:37:55Z</time>
      </trkpt>
      <trkpt lat="45.15417" lon="4.3645">
        <ele>1048.94</ele>
        <time>2024-11-17T13:38:17Z</time>
      </trkpt>
      <trkpt lat="45.15413" lon="4.36418">
        <ele>1048.94</ele>
        <time>2024-11-17T13:38:35Z</time>
      </trkpt>
      <trkpt lat="45.15409" lon="4.36386">
        <ele>1049.42</ele>
        <time>2024-11-17T13:38:54Z</time>
      </trkpt>
      <trkpt lat="45.15408" lon="4.36352">
        <ele>1050.86</ele>
        <time>2024-11-17T13:39:14Z</time>
      </trkpt>
      <trkpt lat="45.15405" lon="4.3632">
        <ele>1050.38</ele>
        <time>2024-11-17T13:39:34Z</time>
      </trkpt>
      <trkpt lat="45.15401" lon="4.36293">
        <ele>1050.86</ele>
        <time>2024-11-17T13:39:52Z</time>
      </trkpt>
      <trkpt lat="45.154" lon="4.36285">
        <ele>1050.38</ele>
        <time>2024-11-17T13:39:57Z</time>
      </trkpt>
      <trkpt lat="45.15399" lon="4.36278">
        <ele>1050.38</ele>
        <time>2024-11-17T13:40:01Z</time>
      </trkpt>
      <trkpt lat="45.15395" lon="4.36244">
        <ele>1048.94</ele>
        <time>2024-11-17T13:40:21Z</time>
      </trkpt>
      <trkpt lat="45.15394" lon="4.36211">
        <ele>1048.94</ele>
        <time>2024-11-17T13:40:40Z</time>
      </trkpt>
      <trkpt lat="45.15395" lon="4.36179">
        <ele>1047.49</ele>
        <time>2024-11-17T13:40:58Z</time>
      </trkpt>
      <trkpt lat="45.15384" lon="4.36161">
        <ele>1045.57</ele>
        <time>2024-11-17T13:41:13Z</time>
      </trkpt>
      <trkpt lat="45.15374" lon="4.36138">
        <ele>1044.61</ele>
        <time>2024-11-17T13:41:29Z</time>
      </trkpt>
      <trkpt lat="45.15362" lon="4.361">
        <ele>1042.69</ele>
        <time>2024-11-17T13:41:51Z</time>
      </trkpt>
      <trkpt lat="45.15355" lon="4.36064">
        <ele>1040.28</ele>
        <time>2024-11-17T13:42:12Z</time>
      </trkpt>
      <trkpt lat="45.15351" lon="4.36039">
        <ele>1039.32</ele>
        <time>2024-11-17T13:42:27Z</time>
      </trkpt>
      <trkpt lat="45.15345" lon="4.36008">
        <ele>1037.88</ele>
        <time>2024-11-17T13:42:45Z</time>
      </trkpt>
      <trkpt lat="45.15345" lon="4.36003">
        <ele>1037.88</ele>
        <time>2024-11-17T13:42:48Z</time>
      </trkpt>
      <trkpt lat="45.15339" lon="4.3598">
        <ele>1035.96</ele>
        <time>2024-11-17T13:43:03Z</time>
      </trkpt>
      <trkpt lat="45.15333" lon="4.35948">
        <ele>1032.59</ele>
        <time>2024-11-17T13:43:22Z</time>
      </trkpt>
      <trkpt lat="45.15331" lon="4.35924">
        <ele>1031.63</ele>
        <time>2024-11-17T13:43:38Z</time>
      </trkpt>
      <trkpt lat="45.15334" lon="4.35904">
        <ele>1029.71</ele>
        <time>2024-11-17T13:43:53Z</time>
      </trkpt>
      <trkpt lat="45.15338" lon="4.3588">
        <ele>1028.75</ele>
        <time>2024-11-17T13:44:08Z</time>
      </trkpt>
      <trkpt lat="45.15338" lon="4.35847">
        <ele>1026.83</ele>
        <time>2024-11-17T13:44:26Z</time>
      </trkpt>
      <trkpt lat="45.15336" lon="4.35838">
        <ele>1026.34</ele>
        <time>2024-11-17T13:44:39Z</time>
      </trkpt>
      <trkpt lat="45.15332" lon="4.35816">
        <ele>1025.86</ele>
        <time>2024-11-17T13:44:53Z</time>
      </trkpt>
      <trkpt lat="45.15328" lon="4.35808">
        <ele>1024.9</ele>
        <time>2024-11-17T13:45:00Z</time>
      </trkpt>
      <trkpt lat="45.15319" lon="4.35785">
        <ele>1021.06</ele>
        <time>2024-11-17T13:45:14Z</time>
      </trkpt>
      <trkpt lat="45.1531" lon="4.35764">
        <ele>1020.58</ele>
        <time>2024-11-17T13:45:30Z</time>
      </trkpt>
      <trkpt lat="45.15297" lon="4.35736">
        <ele>1019.13</ele>
        <time>2024-11-17T13:45:48Z</time>
      </trkpt>
      <trkpt lat="45.15282" lon="4.35713">
        <ele>1017.21</ele>
        <time>2024-11-17T13:46:06Z</time>
      </trkpt>
      <trkpt lat="45.15273" lon="4.35699">
        <ele>1015.29</ele>
        <time>2024-11-17T13:46:18Z</time>
      </trkpt>
      <trkpt lat="45.15266" lon="4.35684">
        <ele>1014.33</ele>
        <time>2024-11-17T13:46:28Z</time>
      </trkpt>
      <trkpt lat="45.15252" lon="4.35656">
        <ele>1012.89</ele>
        <time>2024-11-17T13:46:47Z</time>
      </trkpt>
      <trkpt lat="45.15234" lon="4.35625">
        <ele>1010.48</ele>
        <time>2024-11-17T13:47:09Z</time>
      </trkpt>
      <trkpt lat="45.15215" lon="4.35599">
        <ele>1009.52</ele>
        <time>2024-11-17T13:47:29Z</time>
      </trkpt>
      <trkpt lat="45.15196" lon="4.35578">
        <ele>1008.08</ele>
        <time>2024-11-17T13:47:46Z</time>
      </trkpt>
      <trkpt lat="45.1518" lon="4.35558">
        <ele>1007.6</ele>
        <time>2024-11-17T13:48:02Z</time>
      </trkpt>
      <trkpt lat="45.15163" lon="4.35535">
        <ele>1005.68</ele>
        <time>2024-11-17T13:48:20Z</time>
      </trkpt>
      <trkpt lat="45.15145" lon="4.35508">
        <ele>1003.75</ele>
        <time>2024-11-17T13:48:39Z</time>
      </trkpt>
      <trkpt lat="45.1513" lon="4.35484">
        <ele>1003.75</ele>
        <time>2024-11-17T13:48:58Z</time>
      </trkpt>
      <trkpt lat="45.15118" lon="4.35467">
        <ele>1003.75</ele>
        <time>2024-11-17T13:49:15Z</time>
      </trkpt>
      <trkpt lat="45.1512" lon="4.3546">
        <ele>1003.75</ele>
        <time>2024-11-17T13:49:26Z</time>
      </trkpt>
      <trkpt lat="45.15122" lon="4.35456">
        <ele>1003.75</ele>
        <time>2024-11-17T13:49:30Z</time>
      </trkpt>
      <trkpt lat="45.1514" lon="4.35433">
        <ele>1006.16</ele>
        <time>2024-11-17T13:49:52Z</time>
      </trkpt>
      <trkpt lat="45.15157" lon="4.35419">
        <ele>1008.56</ele>
        <time>2024-11-17T13:50:09Z</time>
      </trkpt>
      <trkpt lat="45.15179" lon="4.35403">
        <ele>1007.12</ele>
        <time>2024-11-17T13:50:28Z</time>
      </trkpt>
      <trkpt lat="45.152" lon="4.35378">
        <ele>1004.23</ele>
        <time>2024-11-17T13:50:50Z</time>
      </trkpt>
      <trkpt lat="45.15219" lon="4.35352">
        <ele>1002.79</ele>
        <time>2024-11-17T13:51:10Z</time>
      </trkpt>
      <trkpt lat="45.15234" lon="4.3532">
        <ele>1002.79</ele>
        <time>2024-11-17T13:51:31Z</time>
      </trkpt>
      <trkpt lat="45.15246" lon="4.35284">
        <ele>1002.79</ele>
        <time>2024-11-17T13:51:52Z</time>
      </trkpt>
      <trkpt lat="45.15263" lon="4.35254">
        <ele>1003.27</ele>
        <time>2024-11-17T13:52:12Z</time>
      </trkpt>
      <trkpt lat="45.15282" lon="4.35224">
        <ele>1004.23</ele>
        <time>2024-11-17T13:52:33Z</time>
      </trkpt>
      <trkpt lat="45.15295" lon="4.35199">
        <ele>1003.75</ele>
        <time>2024-11-17T13:52:49Z</time>
      </trkpt>
      <trkpt lat="45.15314" lon="4.35168">
        <ele>1000.87</ele>
        <time>2024-11-17T13:53:10Z</time>
      </trkpt>
      <trkpt lat="45.15336" lon="4.35134">
        <ele>997.51</ele>
        <time>2024-11-17T13:53:34Z</time>
      </trkpt>
      <trkpt lat="45.15358" lon="4.35109">
        <ele>994.62</ele>
        <time>2024-11-17T13:53:54Z</time>
      </trkpt>
      <trkpt lat="45.15383" lon="4.35087">
        <ele>991.74</ele>
        <time>2024-11-17T13:54:15Z</time>
      </trkpt>
      <trkpt lat="45.15405" lon="4.35072">
        <ele>988.85</ele>
        <time>2024-11-17T13:54:33Z</time>
      </trkpt>
      <trkpt lat="45.15434" lon="4.35054">
        <ele>986.45</ele>
        <time>2024-11-17T13:54:55Z</time>
      </trkpt>
      <trkpt lat="45.15453" lon="4.35028">
        <ele>985.97</ele>
        <time>2024-11-17T13:55:15Z</time>
      </trkpt>
      <trkpt lat="45.15473" lon="4.35">
        <ele>986.45</ele>
        <time>2024-11-17T13:55:37Z</time>
      </trkpt>
      <trkpt lat="45.1549" lon="4.34979">
        <ele>985.97</ele>
        <time>2024-11-17T13:55:54Z</time>
      </trkpt>
      <trkpt lat="45.155" lon="4.34968">
        <ele>986.45</ele>
        <time>2024-11-17T13:56:03Z</time>
      </trkpt>
      <trkpt lat="45.15519" lon="4.34954">
        <ele>986.93</ele>
        <time>2024-11-17T13:56:20Z</time>
      </trkpt>
      <trkpt lat="45.15538" lon="4.34941">
        <ele>988.85</ele>
        <time>2024-11-17T13:56:38Z</time>
      </trkpt>
      <trkpt lat="45.15556" lon="4.34922">
        <ele>989.81</ele>
        <time>2024-11-17T13:56:56Z</time>
      </trkpt>
      <trkpt lat="45.15571" lon="4.34907">
        <ele>992.22</ele>
        <time>2024-11-17T13:57:13Z</time>
      </trkpt>
      <trkpt lat="45.15572" lon="4.34906">
        <ele>992.22</ele>
        <time>2024-11-17T13:57:14Z</time>
      </trkpt>
      <trkpt lat="45.15589" lon="4.34887">
        <ele>992.22</ele>
        <time>2024-11-17T13:57:33Z</time>
      </trkpt>
      <trkpt lat="45.15602" lon="4.34869">
        <ele>993.18</ele>
        <time>2024-11-17T13:57:50Z</time>
      </trkpt>
      <trkpt lat="45.15612" lon="4.34849">
        <ele>995.1</ele>
        <time>2024-11-17T13:58:06Z</time>
      </trkpt>
      <trkpt lat="45.15621" lon="4.34835">
        <ele>996.54</ele>
        <time>2024-11-17T13:58:20Z</time>
      </trkpt>
      <trkpt lat="45.15625" lon="4.34831">
        <ele>997.02</ele>
        <time>2024-11-17T13:58:24Z</time>
      </trkpt>
      <trkpt lat="45.15637" lon="4.34816">
        <ele>999.91</ele>
        <time>2024-11-17T13:58:38Z</time>
      </trkpt>
      <trkpt lat="45.15656" lon="4.348">
        <ele>1003.75</ele>
        <time>2024-11-17T13:58:57Z</time>
      </trkpt>
      <trkpt lat="45.15663" lon="4.34797">
        <ele>1004.23</ele>
        <time>2024-11-17T13:59:05Z</time>
      </trkpt>
      <trkpt lat="45.15676" lon="4.348">
        <ele>1004.23</ele>
        <time>2024-11-17T13:59:20Z</time>
      </trkpt>
      <trkpt lat="45.15678" lon="4.34801">
        <ele>1003.27</ele>
        <time>2024-11-17T13:59:33Z</time>
      </trkpt>
      <trkpt lat="45.15681" lon="4.34802">
        <ele>1003.27</ele>
        <time>2024-11-17T13:59:36Z</time>
      </trkpt>
      <trkpt lat="45.15683" lon="4.34802">
        <ele>1003.27</ele>
        <time>2024-11-17T13:59:38Z</time>
      </trkpt>
      <trkpt lat="45.1569" lon="4.34803">
        <ele>1005.2</ele>
        <time>2024-11-17T13:59:52Z</time>
      </trkpt>
      <trkpt lat="45.15698" lon="4.34801">
        <ele>1004.23</ele>
        <time>2024-11-17T14:00:01Z</time>
      </trkpt>
      <trkpt lat="45.15712" lon="4.34789">
        <ele>1007.12</ele>
        <time>2024-11-17T14:00:18Z</time>
      </trkpt>
      <trkpt lat="45.15717" lon="4.34769">
        <ele>1009.52</ele>
        <time>2024-11-17T14:00:32Z</time>
      </trkpt>
      <trkpt lat="45.15724" lon="4.34755">
        <ele>1009.52</ele>
        <time>2024-11-17T14:00:42Z</time>
      </trkpt>
      <trkpt lat="45.15727" lon="4.34747">
        <ele>1010</ele>
        <time>2024-11-17T14:00:54Z</time>
      </trkpt>
      <trkpt lat="45.15731" lon="4.34741">
        <ele>1010</ele>
        <time>2024-11-17T14:01:04Z</time>
      </trkpt>
      <trkpt lat="45.15742" lon="4.34713">
        <ele>1010</ele>
        <time>2024-11-17T14:01:23Z</time>
      </trkpt>
      <trkpt lat="45.15754" lon="4.34683">
        <ele>1008.56</ele>
        <time>2024-11-17T14:01:44Z</time>
      </trkpt>
      <trkpt lat="45.15768" lon="4.34656">
        <ele>1013.85</ele>
        <time>2024-11-17T14:02:02Z</time>
      </trkpt>
      <trkpt lat="45.15786" lon="4.34646">
        <ele>1018.17</ele>
        <time>2024-11-17T14:02:19Z</time>
      </trkpt>
      <trkpt lat="45.15802" lon="4.34625">
        <ele>1016.73</ele>
        <time>2024-11-17T14:02:37Z</time>
      </trkpt>
      <trkpt lat="45.15816" lon="4.34618">
        <ele>1010.96</ele>
        <time>2024-11-17T14:02:53Z</time>
      </trkpt>
      <trkpt lat="45.15819" lon="4.34611">
        <ele>1004.23</ele>
        <time>2024-11-17T14:03:12Z</time>
      </trkpt>
      <trkpt lat="45.15825" lon="4.34599">
        <ele>1006.16</ele>
        <time>2024-11-17T14:03:22Z</time>
      </trkpt>
      <trkpt lat="45.15828" lon="4.34596">
        <ele>1005.68</ele>
        <time>2024-11-17T14:03:33Z</time>
      </trkpt>
      <trkpt lat="45.15829" lon="4.34597">
        <ele>1004.72</ele>
        <time>2024-11-17T14:03:48Z</time>
      </trkpt>
      <trkpt lat="45.15828" lon="4.34597">
        <ele>1004.72</ele>
        <time>2024-11-17T14:03:59Z</time>
      </trkpt>
      <trkpt lat="45.15825" lon="4.34591">
        <ele>1004.72</ele>
        <time>2024-11-17T14:04:18Z</time>
      </trkpt>
      <trkpt lat="45.1583" lon="4.34606">
        <ele>1005.68</ele>
        <time>2024-11-17T14:04:41Z</time>
      </trkpt>
      <trkpt lat="45.15821" lon="4.34593">
        <ele>997.99</ele>
        <time>2024-11-17T14:28:38Z</time>
      </trkpt>
      <trkpt lat="45.15826" lon="4.34595">
        <ele>999.91</ele>
        <time>2024-11-17T14:28:51Z</time>
      </trkpt>
      <trkpt lat="45.15826" lon="4.34597">
        <ele>1002.31</ele>
        <time>2024-11-17T14:29:02Z</time>
      </trkpt>
      <trkpt lat="45.15827" lon="4.34599">
        <ele>1001.35</ele>
        <time>2024-11-17T14:29:15Z</time>
      </trkpt>
      <trkpt lat="45.15826" lon="4.34598">
        <ele>1000.87</ele>
        <time>2024-11-17T14:29:33Z</time>
      </trkpt>
      <trkpt lat="45.15823" lon="4.34606">
        <ele>1001.35</ele>
        <time>2024-11-17T14:29:46Z</time>
      </trkpt>
      <trkpt lat="45.15819" lon="4.34598">
        <ele>1001.35</ele>
        <time>2024-11-17T14:29:58Z</time>
      </trkpt>
      <trkpt lat="45.15823" lon="4.34589">
        <ele>1000.87</ele>
        <time>2024-11-17T14:30:10Z</time>
      </trkpt>
      <trkpt lat="45.1583" lon="4.34587">
        <ele>1000.87</ele>
        <time>2024-11-17T14:30:18Z</time>
      </trkpt>
      <trkpt lat="45.15837" lon="4.34579">
        <ele>1003.27</ele>
        <time>2024-11-17T14:30:28Z</time>
      </trkpt>
      <trkpt lat="45.15841" lon="4.34566">
        <ele>1002.79</ele>
        <time>2024-11-17T14:30:44Z</time>
      </trkpt>
      <trkpt lat="45.15841" lon="4.34562">
        <ele>1001.83</ele>
        <time>2024-11-17T14:30:48Z</time>
      </trkpt>
      <trkpt lat="45.15837" lon="4.34546">
        <ele>1000.39</ele>
        <time>2024-11-17T14:31:00Z</time>
      </trkpt>
      <trkpt lat="45.15814" lon="4.34523">
        <ele>998.47</ele>
        <time>2024-11-17T14:31:42Z</time>
      </trkpt>
      <trkpt lat="45.15816" lon="4.34511">
        <ele>997.51</ele>
        <time>2024-11-17T14:32:43Z</time>
      </trkpt>
      <trkpt lat="45.15812" lon="4.34509">
        <ele>994.62</ele>
        <time>2024-11-17T14:34:47Z</time>
      </trkpt>
      <trkpt lat="45.15819" lon="4.34479">
        <ele>991.74</ele>
        <time>2024-11-17T14:36:26Z</time>
      </trkpt>
    </trkseg>
  </trk>
</gpx>